Wetterdaten: Freitag, 28.09.2018
Datum Zeit Temp. A. Pool Temp. Temp. 5cm Feuchte A. Luftdruck Regen Wind Richtung Richtung Sonnenschein ET UV Solar Taupunkt Windchill Windben Empfang
28.09.2018 00:00 8,7 C 15,0 C 5,6 C 86 % 1022,6 hPa 0,0 l/m 4,8 km/h (1 Bft) SW 219 0 min 0,000 mm 0,0 UV-I 0 W/m 6,5 C 8,7 C 6,4 km/h (2 Bft) 97,87 %
28.09.2018 00:02 8,8 C 15,0 C 5,0 C 86 % 1022,5 hPa 0,0 l/m 5,1 km/h (1 Bft) S-SW 203 0 min 0,000 mm 0,0 UV-I 0 W/m 6,6 C 8,8 C 6,4 km/h (2 Bft) 97,50 %
28.09.2018 00:04 8,9 C 15,0 C 5,0 C 86 % 1022,5 hPa 0,0 l/m 4,1 km/h (1 Bft) SW 219 0 min 0,000 mm 0,0 UV-I 0 W/m 6,7 C 8,9 C 6,4 km/h (2 Bft) 98,00 %
28.09.2018 00:06 8,9 C 15,0 C 5,6 C 85 % 1022,5 hPa 0,0 l/m 4,1 km/h (1 Bft) SW 217 0 min 0,000 mm 0,0 UV-I 0 W/m 6,5 C 8,9 C 4,8 km/h (1 Bft) 96,00 %
28.09.2018 00:08 8,8 C 15,0 C 5,0 C 86 % 1022,6 hPa 0,0 l/m 4,1 km/h (1 Bft) SW 217 0 min 0,000 mm 0,0 UV-I 0 W/m 6,6 C 8,8 C 6,4 km/h (2 Bft) 97,87 %
28.09.2018 00:10 8,8 C 15,0 C 5,6 C 85 % 1022,5 hPa 0,0 l/m 4,2 km/h (1 Bft) SW 216 0 min 0,000 mm 0,0 UV-I 0 W/m 6,4 C 8,8 C 6,4 km/h (2 Bft) 95,74 %
28.09.2018 00:12 8,7 C 15,0 C 5,0 C 85 % 1022,5 hPa 0,0 l/m 4,5 km/h (1 Bft) SW 216 0 min 0,000 mm 0,0 UV-I 0 W/m 6,3 C 8,7 C 6,4 km/h (2 Bft) 97,87 %
28.09.2018 00:14 8,6 C 15,0 C 5,0 C 85 % 1022,6 hPa 0,0 l/m 3,8 km/h (1 Bft) SW 216 0 min 0,000 mm 0,0 UV-I 0 W/m 6,2 C 8,6 C 4,8 km/h (1 Bft) 95,74 %
28.09.2018 00:16 8,4 C 15,0 C 5,0 C 86 % 1022,6 hPa 0,0 l/m 4,3 km/h (1 Bft) SW 216 0 min 0,000 mm 0,0 UV-I 0 W/m 6,2 C 8,4 C 4,8 km/h (1 Bft) 95,74 %
28.09.2018 00:18 8,6 C 15,0 C 5,0 C 87 % 1022,6 hPa 0,0 l/m 4,6 km/h (1 Bft) SW 215 0 min 0,000 mm 0,0 UV-I 0 W/m 6,6 C 8,6 C 6,4 km/h (2 Bft) 100,00 %
28.09.2018 00:20 8,7 C 15,0 C 5,0 C 87 % 1022,6 hPa 0,0 l/m 3,4 km/h (1 Bft) SW 215 0 min 0,000 mm 0,0 UV-I 0 W/m 6,7 C 8,7 C 4,8 km/h (1 Bft) 97,87 %
28.09.2018 00:22 8,8 C 15,0 C 5,0 C 87 % 1022,6 hPa 0,0 l/m 4,0 km/h (1 Bft) SW 215 0 min 0,000 mm 0,0 UV-I 0 W/m 6,8 C 8,8 C 6,4 km/h (2 Bft) 95,74 %
28.09.2018 00:24 9,0 C 15,0 C 5,0 C 87 % 1022,5 hPa 0,0 l/m 4,0 km/h (1 Bft) SW 215 0 min 0,000 mm 0,0 UV-I 0 W/m 7,0 C 9,0 C 4,8 km/h (1 Bft) 97,87 %
28.09.2018 00:26 9,2 C 15,0 C 5,0 C 86 % 1022,5 hPa 0,0 l/m 3,7 km/h (1 Bft) SW 215 0 min 0,000 mm 0,0 UV-I 0 W/m 7,0 C 9,2 C 4,8 km/h (1 Bft) 95,74 %
28.09.2018 00:28 9,1 C 15,0 C 5,0 C 85 % 1022,5 hPa 0,0 l/m 3,7 km/h (1 Bft) SW 215 0 min 0,000 mm 0,0 UV-I 0 W/m 6,7 C 9,1 C 4,8 km/h (1 Bft) 97,87 %
28.09.2018 00:30 8,8 C 15,0 C 5,0 C 86 % 1022,5 hPa 0,0 l/m 3,6 km/h (1 Bft) SW 215 0 min 0,000 mm 0,0 UV-I 0 W/m 6,6 C 8,8 C 4,8 km/h (1 Bft) 100,00 %
28.09.2018 00:32 8,8 C 15,0 C 5,0 C 87 % 1022,5 hPa 0,0 l/m 4,1 km/h (1 Bft) SW 215 0 min 0,000 mm 0,0 UV-I 0 W/m 6,8 C 8,8 C 6,4 km/h (2 Bft) 97,92 %
28.09.2018 00:34 8,7 C 15,0 C 5,0 C 87 % 1022,5 hPa 0,0 l/m 4,8 km/h (1 Bft) SW 215 0 min 0,000 mm 0,0 UV-I 0 W/m 6,7 C 8,7 C 6,4 km/h (2 Bft) 97,87 %
28.09.2018 00:36 8,7 C 15,0 C 5,0 C 87 % 1022,5 hPa 0,0 l/m 3,8 km/h (1 Bft) SW 215 0 min 0,000 mm 0,0 UV-I 0 W/m 6,7 C 8,7 C 4,8 km/h (1 Bft) 100,00 %
28.09.2018 00:38 8,6 C 15,0 C 5,0 C 87 % 1022,5 hPa 0,0 l/m 4,3 km/h (1 Bft) SW 215 0 min 0,000 mm 0,0 UV-I 0 W/m 6,6 C 8,6 C 4,8 km/h (1 Bft) 98,00 %
28.09.2018 00:40 8,6 C 15,0 C 5,0 C 88 % 1022,5 hPa 0,0 l/m 4,5 km/h (1 Bft) SW 215 0 min 0,000 mm 0,0 UV-I 0 W/m 6,7 C 8,6 C 6,4 km/h (2 Bft) 100,00 %
28.09.2018 00:42 8,6 C 15,0 C 5,0 C 88 % 1022,5 hPa 0,0 l/m 3,9 km/h (1 Bft) SW 215 0 min 0,000 mm 0,0 UV-I 0 W/m 6,7 C 8,6 C 4,8 km/h (1 Bft) 100,00 %
28.09.2018 00:44 8,7 C 15,0 C 5,0 C 88 % 1022,5 hPa 0,0 l/m 3,7 km/h (1 Bft) SW 215 0 min 0,000 mm 0,0 UV-I 0 W/m 6,8 C 8,7 C 4,8 km/h (1 Bft) 98,00 %
28.09.2018 00:46 8,8 C 15,0 C 5,0 C 88 % 1022,5 hPa 0,0 l/m 3,4 km/h (1 Bft) SW 215 0 min 0,000 mm 0,0 UV-I 0 W/m 6,9 C 8,8 C 4,8 km/h (1 Bft) 100,00 %
28.09.2018 00:48 8,9 C 15,0 C 5,0 C 88 % 1022,5 hPa 0,0 l/m 2,7 km/h (1 Bft) SW 215 0 min 0,000 mm 0,0 UV-I 0 W/m 7,0 C 8,9 C 4,8 km/h (1 Bft) 100,00 %
28.09.2018 00:50 9,2 C 15,0 C 5,0 C 89 % 1022,4 hPa 0,0 l/m 2,7 km/h (1 Bft) SW 215 0 min 0,000 mm 0,0 UV-I 0 W/m 7,5 C 9,2 C 3,2 km/h (1 Bft) 97,87 %
28.09.2018 00:52 9,3 C 15,0 C 5,0 C 88 % 1022,4 hPa 0,0 l/m 3,7 km/h (1 Bft) SW 215 0 min 0,000 mm 0,0 UV-I 0 W/m 7,4 C 9,3 C 4,8 km/h (1 Bft) 97,87 %
28.09.2018 00:54 9,3 C 15,0 C 5,6 C 88 % 1022,4 hPa 0,0 l/m 5,0 km/h (1 Bft) SW 215 0 min 0,000 mm 0,0 UV-I 0 W/m 7,4 C 9,3 C 6,4 km/h (2 Bft) 97,87 %
28.09.2018 00:56 9,1 C 15,0 C 6,1 C 87 % 1022,4 hPa 0,0 l/m 5,6 km/h (1 Bft) SW 215 0 min 0,000 mm 0,0 UV-I 0 W/m 7,1 C 9,1 C 8,0 km/h (2 Bft) 100,00 %
28.09.2018 00:58 9,0 C 15,0 C 6,1 C 87 % 1022,4 hPa 0,0 l/m 4,8 km/h (1 Bft) SW 229 0 min 0,000 mm 0,0 UV-I 0 W/m 7,0 C 9,0 C 6,4 km/h (2 Bft) 100,00 %
28.09.2018 01:00 8,8 C 15,0 C 5,6 C 87 % 1022,4 hPa 0,0 l/m 3,7 km/h (1 Bft) SW 218 0 min 0,000 mm 0,0 UV-I 0 W/m 6,8 C 8,8 C 4,8 km/h (1 Bft) 97,87 %
28.09.2018 01:02 8,7 C 15,0 C 5,6 C 88 % 1022,3 hPa 0,0 l/m 3,8 km/h (1 Bft) SW 217 0 min 0,000 mm 0,0 UV-I 0 W/m 6,8 C 8,7 C 4,8 km/h (1 Bft) 98,00 %
28.09.2018 01:04 8,7 C 15,0 C 5,6 C 88 % 1022,3 hPa 0,0 l/m 4,0 km/h (1 Bft) SW 217 0 min 0,000 mm 0,0 UV-I 0 W/m 6,8 C 8,7 C 4,8 km/h (1 Bft) 93,62 %
28.09.2018 01:06 8,6 C 15,0 C 5,6 C 89 % 1022,3 hPa 0,0 l/m 4,7 km/h (1 Bft) SW 217 0 min 0,000 mm 0,0 UV-I 0 W/m 6,9 C 8,6 C 6,4 km/h (2 Bft) 93,62 %
28.09.2018 01:08 8,6 C 15,0 C 5,6 C 89 % 1022,3 hPa 0,0 l/m 4,8 km/h (1 Bft) S-SW 207 0 min 0,000 mm 0,0 UV-I 0 W/m 6,9 C 8,6 C 6,4 km/h (2 Bft) 97,87 %
28.09.2018 01:10 8,7 C 15,0 C 5,6 C 89 % 1022,3 hPa 0,0 l/m 5,4 km/h (1 Bft) SW 219 0 min 0,000 mm 0,0 UV-I 0 W/m 7,0 C 8,7 C 6,4 km/h (2 Bft) 98,00 %
28.09.2018 01:12 8,8 C 15,0 C 5,6 C 90 % 1022,3 hPa 0,0 l/m 4,6 km/h (1 Bft) S-SW 210 0 min 0,000 mm 0,0 UV-I 0 W/m 7,3 C 8,8 C 6,4 km/h (2 Bft) 97,44 %
28.09.2018 01:14 8,9 C 15,0 C 5,6 C 90 % 1022,2 hPa 0,0 l/m 4,3 km/h (1 Bft) S-SW 210 0 min 0,000 mm 0,0 UV-I 0 W/m 7,4 C 8,9 C 6,4 km/h (2 Bft) 97,87 %
28.09.2018 01:16 9,1 C 15,0 C 6,1 C 90 % 1022,2 hPa 0,0 l/m 4,6 km/h (1 Bft) SW 220 0 min 0,000 mm 0,0 UV-I 0 W/m 7,5 C 9,1 C 6,4 km/h (2 Bft) 97,87 %
28.09.2018 01:18 9,2 C 15,0 C 6,1 C 90 % 1022,2 hPa 0,0 l/m 4,4 km/h (1 Bft) SW 225 0 min 0,000 mm 0,0 UV-I 0 W/m 7,6 C 9,2 C 6,4 km/h (2 Bft) 97,87 %
28.09.2018 01:20 9,3 C 15,0 C 6,1 C 89 % 1022,2 hPa 0,0 l/m 3,2 km/h (1 Bft) SW 225 0 min 0,000 mm 0,0 UV-I 0 W/m 7,6 C 9,3 C 4,8 km/h (1 Bft) 100,00 %
28.09.2018 01:22 9,3 C 15,0 C 6,1 C 89 % 1022,2 hPa 0,0 l/m 3,5 km/h (1 Bft) SW 225 0 min 0,000 mm 0,0 UV-I 0 W/m 7,6 C 9,3 C 4,8 km/h (1 Bft) 96,23 %
28.09.2018 01:24 9,2 C 15,0 C 5,6 C 89 % 1022,2 hPa 0,0 l/m 4,5 km/h (1 Bft) SW 225 0 min 0,000 mm 0,0 UV-I 0 W/m 7,5 C 9,2 C 6,4 km/h (2 Bft) 95,74 %
28.09.2018 01:26 9,1 C 15,0 C 6,1 C 89 % 1022,2 hPa 0,0 l/m 4,7 km/h (1 Bft) SW 229 0 min 0,000 mm 0,0 UV-I 0 W/m 7,4 C 9,1 C 6,4 km/h (2 Bft) 93,62 %
28.09.2018 01:28 9,1 C 15,0 C 6,1 C 89 % 1022,2 hPa 0,0 l/m 5,2 km/h (1 Bft) SW 231 0 min 0,000 mm 0,0 UV-I 0 W/m 7,4 C 9,1 C 6,4 km/h (2 Bft) 93,62 %
28.09.2018 01:30 9,0 C 15,0 C 6,1 C 89 % 1022,1 hPa 0,0 l/m 4,2 km/h (1 Bft) SW 230 0 min 0,000 mm 0,0 UV-I 0 W/m 7,3 C 9,0 C 4,8 km/h (1 Bft) 97,37 %
28.09.2018 01:32 8,9 C 15,0 C 6,7 C 89 % 1022,0 hPa 0,0 l/m 4,4 km/h (1 Bft) SW 221 0 min 0,000 mm 0,0 UV-I 0 W/m 7,2 C 8,9 C 6,4 km/h (2 Bft) 93,62 %
28.09.2018 01:34 8,7 C 15,0 C 6,1 C 89 % 1022,0 hPa 0,0 l/m 5,8 km/h (2 Bft) S-SW 211 0 min 0,000 mm 0,0 UV-I 0 W/m 7,0 C 8,7 C 8,0 km/h (2 Bft) 95,74 %
28.09.2018 01:36 8,6 C 15,0 C 6,1 C 90 % 1022,0 hPa 0,0 l/m 4,9 km/h (1 Bft) SW 218 0 min 0,000 mm 0,0 UV-I 0 W/m 7,1 C 8,6 C 6,4 km/h (2 Bft) 95,74 %
28.09.2018 01:38 8,6 C 15,0 C 6,1 C 90 % 1022,0 hPa 0,0 l/m 4,7 km/h (1 Bft) SW 217 0 min 0,000 mm 0,0 UV-I 0 W/m 7,1 C 8,6 C 6,4 km/h (2 Bft) 93,62 %
28.09.2018 01:40 8,6 C 15,0 C 6,1 C 90 % 1022,0 hPa 0,0 l/m 4,6 km/h (1 Bft) SW 227 0 min 0,000 mm 0,0 UV-I 0 W/m 7,1 C 8,6 C 6,4 km/h (2 Bft) 95,74 %
28.09.2018 01:42 8,6 C 15,0 C 5,6 C 90 % 1022,0 hPa 0,0 l/m 5,6 km/h (1 Bft) SW 215 0 min 0,000 mm 0,0 UV-I 0 W/m 7,1 C 8,6 C 8,0 km/h (2 Bft) 94,00 %
28.09.2018 01:44 8,6 C 15,0 C 6,1 C 90 % 1022,1 hPa 0,0 l/m 4,2 km/h (1 Bft) SW 215 0 min 0,000 mm 0,0 UV-I 0 W/m 7,1 C 8,6 C 6,4 km/h (2 Bft) 97,87 %
28.09.2018 01:46 8,6 C 15,0 C 6,1 C 90 % 1022,0 hPa 0,0 l/m 3,8 km/h (1 Bft) SW 215 0 min 0,000 mm 0,0 UV-I 0 W/m 7,1 C 8,6 C 6,4 km/h (2 Bft) 100,00 %
28.09.2018 01:48 8,6 C 15,0 C 6,7 C 90 % 1022,0 hPa 0,0 l/m 4,0 km/h (1 Bft) SW 218 0 min 0,000 mm 0,0 UV-I 0 W/m 7,1 C 8,6 C 6,4 km/h (2 Bft) 98,00 %
28.09.2018 01:50 8,6 C 15,0 C 6,7 C 90 % 1022,0 hPa 0,0 l/m 3,5 km/h (1 Bft) SW 218 0 min 0,000 mm 0,0 UV-I 0 W/m 7,1 C 8,6 C 4,8 km/h (1 Bft) 100,00 %
28.09.2018 01:52 8,6 C 15,0 C 6,1 C 90 % 1022,0 hPa 0,0 l/m 4,5 km/h (1 Bft) SW 217 0 min 0,000 mm 0,0 UV-I 0 W/m 7,1 C 8,6 C 6,4 km/h (2 Bft) 95,74 %
28.09.2018 01:54 8,7 C 15,0 C 6,1 C 90 % 1022,1 hPa 0,0 l/m 4,9 km/h (1 Bft) SW 217 0 min 0,000 mm 0,0 UV-I 0 W/m 7,2 C 8,7 C 6,4 km/h (2 Bft) 100,00 %
28.09.2018 01:56 8,7 C 15,0 C 6,7 C 90 % 1022,0 hPa 0,0 l/m 5,0 km/h (1 Bft) S-SW 202 0 min 0,000 mm 0,0 UV-I 0 W/m 7,2 C 8,7 C 6,4 km/h (2 Bft) 100,00 %
28.09.2018 01:58 8,4 C 15,0 C 6,7 C 89 % 1021,9 hPa 0,0 l/m 4,2 km/h (1 Bft) S-SW 201 0 min 0,000 mm 0,0 UV-I 0 W/m 6,7 C 8,4 C 6,4 km/h (2 Bft) 100,00 %
28.09.2018 02:00 8,3 C 15,0 C 6,1 C 89 % 1021,9 hPa 0,0 l/m 4,3 km/h (1 Bft) S-SW 211 0 min 0,000 mm 0,0 UV-I 0 W/m 6,6 C 8,3 C 6,4 km/h (2 Bft) 97,87 %
28.09.2018 02:02 8,1 C 15,0 C 6,1 C 89 % 1021,9 hPa 0,0 l/m 5,0 km/h (1 Bft) SW 217 0 min 0,000 mm 0,0 UV-I 0 W/m 6,4 C 8,1 C 6,4 km/h (2 Bft) 95,74 %
28.09.2018 02:04 8,1 C 15,0 C 5,6 C 90 % 1021,9 hPa 0,0 l/m 4,8 km/h (1 Bft) S-SW 209 0 min 0,000 mm 0,0 UV-I 0 W/m 6,6 C 8,1 C 6,4 km/h (2 Bft) 100,00 %
28.09.2018 02:06 8,2 C 15,0 C 5,6 C 91 % 1021,9 hPa 0,0 l/m 4,8 km/h (1 Bft) S 190 0 min 0,000 mm 0,0 UV-I 0 W/m 6,8 C 8,2 C 6,4 km/h (2 Bft) 100,00 %
28.09.2018 02:08 8,3 C 15,0 C 5,6 C 91 % 1021,8 hPa 0,0 l/m 4,1 km/h (1 Bft) S 191 0 min 0,000 mm 0,0 UV-I 0 W/m 6,9 C 8,3 C 6,4 km/h (2 Bft) 100,00 %
28.09.2018 02:10 8,3 C 15,0 C 5,6 C 91 % 1021,8 hPa 0,0 l/m 4,1 km/h (1 Bft) S-SW 199 0 min 0,000 mm 0,0 UV-I 0 W/m 6,9 C 8,3 C 6,4 km/h (2 Bft) 95,74 %
28.09.2018 02:12 8,4 C 15,0 C 6,1 C 91 % 1021,8 hPa 0,0 l/m 3,0 km/h (1 Bft) S-SW 199 0 min 0,000 mm 0,0 UV-I 0 W/m 7,0 C 8,4 C 4,8 km/h (1 Bft) 100,00 %
28.09.2018 02:14 8,5 C 15,0 C 5,6 C 91 % 1021,8 hPa 0,0 l/m 3,5 km/h (1 Bft) SW 222 0 min 0,000 mm 0,0 UV-I 0 W/m 7,1 C 8,5 C 4,8 km/h (1 Bft) 97,87 %
28.09.2018 02:16 8,5 C 15,0 C 5,6 C 91 % 1021,8 hPa 0,0 l/m 4,6 km/h (1 Bft) SW 221 0 min 0,000 mm 0,0 UV-I 0 W/m 7,1 C 8,5 C 6,4 km/h (2 Bft) 100,00 %
28.09.2018 02:18 8,3 C 15,0 C 5,6 C 90 % 1021,8 hPa 0,0 l/m 4,6 km/h (1 Bft) SW 221 0 min 0,000 mm 0,0 UV-I 0 W/m 6,8 C 8,3 C 6,4 km/h (2 Bft) 97,87 %
28.09.2018 02:20 8,2 C 15,0 C 5,6 C 90 % 1021,8 hPa 0,0 l/m 3,9 km/h (1 Bft) SW 221 0 min 0,000 mm 0,0 UV-I 0 W/m 6,7 C 8,2 C 4,8 km/h (1 Bft) 97,87 %
28.09.2018 02:22 8,1 C 15,0 C 5,6 C 90 % 1021,7 hPa 0,0 l/m 4,0 km/h (1 Bft) S-SW 209 0 min 0,000 mm 0,0 UV-I 0 W/m 6,6 C 8,1 C 6,4 km/h (2 Bft) 100,00 %
28.09.2018 02:24 7,9 C 15,0 C 5,6 C 90 % 1021,7 hPa 0,0 l/m 5,2 km/h (1 Bft) S-SW 212 0 min 0,000 mm 0,0 UV-I 0 W/m 6,4 C 7,9 C 6,4 km/h (2 Bft) 95,74 %
28.09.2018 02:26 7,8 C 15,0 C 6,1 C 90 % 1021,7 hPa 0,0 l/m 5,4 km/h (1 Bft) S-SW 213 0 min 0,000 mm 0,0 UV-I 0 W/m 6,3 C 7,8 C 6,4 km/h (2 Bft) 100,00 %
28.09.2018 02:28 7,9 C 15,0 C 6,1 C 91 % 1021,7 hPa 0,0 l/m 5,1 km/h (1 Bft) S-SW 209 0 min 0,000 mm 0,0 UV-I 0 W/m 6,5 C 7,9 C 8,0 km/h (2 Bft) 97,87 %
28.09.2018 02:30 7,9 C 15,0 C 6,1 C 91 % 1021,6 hPa 0,0 l/m 5,0 km/h (1 Bft) S-SW 207 0 min 0,000 mm 0,0 UV-I 0 W/m 6,5 C 7,9 C 8,0 km/h (2 Bft) 95,74 %
28.09.2018 02:32 8,1 C 15,0 C 6,1 C 91 % 1021,6 hPa 0,0 l/m 5,4 km/h (1 Bft) S-SW 207 0 min 0,000 mm 0,0 UV-I 0 W/m 6,7 C 8,1 C 8,0 km/h (2 Bft) 96,00 %
28.09.2018 02:34 8,2 C 15,0 C 6,7 C 91 % 1021,6 hPa 0,0 l/m 4,8 km/h (1 Bft) SW 217 0 min 0,000 mm 0,0 UV-I 0 W/m 6,8 C 8,2 C 6,4 km/h (2 Bft) 100,00 %
28.09.2018 02:36 8,2 C 15,0 C 6,7 C 91 % 1021,5 hPa 0,0 l/m 4,5 km/h (1 Bft) S-SW 204 0 min 0,000 mm 0,0 UV-I 0 W/m 6,8 C 8,2 C 6,4 km/h (2 Bft) 96,00 %
28.09.2018 02:38 8,2 C 15,0 C 6,7 C 90 % 1021,5 hPa 0,0 l/m 4,9 km/h (1 Bft) SW 219 0 min 0,000 mm 0,0 UV-I 0 W/m 6,7 C 8,2 C 8,0 km/h (2 Bft) 95,74 %
28.09.2018 02:40 8,2 C 15,0 C 6,7 C 90 % 1021,5 hPa 0,0 l/m 4,5 km/h (1 Bft) S-SW 209 0 min 0,000 mm 0,0 UV-I 0 W/m 6,7 C 8,2 C 6,4 km/h (2 Bft) 97,87 %
28.09.2018 02:42 8,2 C 15,0 C 6,1 C 90 % 1021,5 hPa 0,0 l/m 4,6 km/h (1 Bft) S-SW 209 0 min 0,000 mm 0,0 UV-I 0 W/m 6,7 C 8,2 C 6,4 km/h (2 Bft) 95,74 %
28.09.2018 02:44 8,3 C 15,0 C 6,1 C 91 % 1021,5 hPa 0,0 l/m 4,5 km/h (1 Bft) S-SW 208 0 min 0,000 mm 0,0 UV-I 0 W/m 6,9 C 8,3 C 6,4 km/h (2 Bft) 93,62 %
28.09.2018 02:46 8,3 C 15,0 C 6,1 C 91 % 1021,4 hPa 0,0 l/m 4,1 km/h (1 Bft) S-SW 207 0 min 0,000 mm 0,0 UV-I 0 W/m 6,9 C 8,3 C 6,4 km/h (2 Bft) 95,74 %
28.09.2018 02:48 8,4 C 15,0 C 6,1 C 90 % 1021,4 hPa 0,0 l/m 4,7 km/h (1 Bft) S-SW 192 0 min 0,000 mm 0,0 UV-I 0 W/m 6,9 C 8,4 C 6,4 km/h (2 Bft) 96,00 %
28.09.2018 02:50 8,3 C 15,0 C 5,6 C 90 % 1021,4 hPa 0,0 l/m 3,6 km/h (1 Bft) S-SW 192 0 min 0,000 mm 0,0 UV-I 0 W/m 6,8 C 8,3 C 4,8 km/h (1 Bft) 95,83 %
28.09.2018 02:52 8,3 C 15,0 C 5,6 C 90 % 1021,3 hPa 0,0 l/m 3,1 km/h (1 Bft) S-SW 192 0 min 0,000 mm 0,0 UV-I 0 W/m 6,8 C 8,3 C 4,8 km/h (1 Bft) 95,74 %
28.09.2018 02:54 8,3 C 15,0 C 5,0 C 90 % 1021,4 hPa 0,0 l/m 2,4 km/h (1 Bft) S-SW 207 0 min 0,000 mm 0,0 UV-I 0 W/m 6,8 C 8,3 C 4,8 km/h (1 Bft) 95,74 %
28.09.2018 02:56 8,3 C 15,0 C 5,0 C 90 % 1021,4 hPa 0,0 l/m 2,9 km/h (1 Bft) S-SW 207 0 min 0,000 mm 0,0 UV-I 0 W/m 6,8 C 8,3 C 3,2 km/h (1 Bft) 93,62 %
28.09.2018 02:58 8,3 C 15,0 C 4,4 C 90 % 1021,3 hPa 0,0 l/m 3,2 km/h (1 Bft) S-SW 207 0 min 0,000 mm 0,0 UV-I 0 W/m 6,8 C 8,3 C 3,2 km/h (1 Bft) 95,92 %
28.09.2018 03:00 8,2 C 15,0 C 5,0 C 90 % 1021,4 hPa 0,0 l/m 3,3 km/h (1 Bft) S-SW 207 0 min 0,000 mm 0,0 UV-I 0 W/m 6,7 C 8,2 C 4,8 km/h (1 Bft) 94,74 %
28.09.2018 03:02 8,1 C 15,0 C 5,0 C 90 % 1021,3 hPa 0,0 l/m 3,4 km/h (1 Bft) S-SW 207 0 min 0,000 mm 0,0 UV-I 0 W/m 6,6 C 8,1 C 4,8 km/h (1 Bft) 93,62 %
28.09.2018 03:04 8,0 C 15,0 C 5,0 C 91 % 1021,4 hPa 0,0 l/m 4,6 km/h (1 Bft) SW 216 0 min 0,000 mm 0,0 UV-I 0 W/m 6,6 C 8,0 C 6,4 km/h (2 Bft) 97,87 %
28.09.2018 03:06 8,0 C 15,0 C 5,6 C 91 % 1021,4 hPa 0,0 l/m 4,9 km/h (1 Bft) S-SW 211 0 min 0,000 mm 0,0 UV-I 0 W/m 6,6 C 8,0 C 6,4 km/h (2 Bft) 97,87 %
28.09.2018 03:08 7,9 C 15,0 C 5,6 C 91 % 1021,4 hPa 0,0 l/m 4,5 km/h (1 Bft) S-SW 205 0 min 0,000 mm 0,0 UV-I 0 W/m 6,5 C 7,9 C 6,4 km/h (2 Bft) 96,15 %
28.09.2018 03:10 8,0 C 15,0 C 6,1 C 91 % 1021,3 hPa 0,0 l/m 3,6 km/h (1 Bft) S-SW 205 0 min 0,000 mm 0,0 UV-I 0 W/m 6,6 C 8,0 C 4,8 km/h (1 Bft) 95,92 %
28.09.2018 03:12 8,0 C 15,0 C 6,1 C 91 % 1021,3 hPa 0,0 l/m 4,1 km/h (1 Bft) S-SW 205 0 min 0,000 mm 0,0 UV-I 0 W/m 6,6 C 8,0 C 6,4 km/h (2 Bft) 94,74 %
28.09.2018 03:14 7,9 C 15,0 C 6,1 C 91 % 1021,3 hPa 0,0 l/m 4,5 km/h (1 Bft) S-SW 205 0 min 0,000 mm 0,0 UV-I 0 W/m 6,5 C 7,9 C 4,8 km/h (1 Bft) 97,87 %
28.09.2018 03:16 8,1 C 15,0 C 6,1 C 91 % 1021,3 hPa 0,0 l/m 4,8 km/h (1 Bft) S-SW 198 0 min 0,000 mm 0,0 UV-I 0 W/m 6,7 C 8,1 C 6,4 km/h (2 Bft) 97,87 %
28.09.2018 03:18 8,1 C 15,0 C 5,6 C 91 % 1021,3 hPa 0,0 l/m 4,5 km/h (1 Bft) S-SW 196 0 min 0,000 mm 0,0 UV-I 0 W/m 6,7 C 8,1 C 6,4 km/h (2 Bft) 97,87 %
28.09.2018 03:20 8,2 C 15,0 C 6,1 C 91 % 1021,2 hPa 0,0 l/m 4,5 km/h (1 Bft) S-SW 208 0 min 0,000 mm 0,0 UV-I 0 W/m 6,8 C 8,2 C 6,4 km/h (2 Bft) 97,87 %
28.09.2018 03:22 8,2 C 15,0 C 6,1 C 91 % 1021,1 hPa 0,0 l/m 4,5 km/h (1 Bft) S-SW 207 0 min 0,000 mm 0,0 UV-I 0 W/m 6,8 C 8,2 C 6,4 km/h (2 Bft) 94,34 %
28.09.2018 03:24 8,3 C 15,0 C 6,1 C 91 % 1021,1 hPa 0,0 l/m 4,9 km/h (1 Bft) SW 218 0 min 0,000 mm 0,0 UV-I 0 W/m 6,9 C 8,3 C 6,4 km/h (2 Bft) 94,00 %
28.09.2018 03:26 8,3 C 15,0 C 5,6 C 91 % 1021,1 hPa 0,0 l/m 3,3 km/h (1 Bft) SW 218 0 min 0,000 mm 0,0 UV-I 0 W/m 6,9 C 8,3 C 4,8 km/h (1 Bft) 97,87 %
28.09.2018 03:28 8,3 C 15,0 C 5,6 C 91 % 1021,1 hPa 0,0 l/m 3,8 km/h (1 Bft) SW 223 0 min 0,000 mm 0,0 UV-I 0 W/m 6,9 C 8,3 C 6,4 km/h (2 Bft) 97,87 %
28.09.2018 03:30 8,2 C 15,0 C 5,0 C 91 % 1021,2 hPa 0,0 l/m 3,9 km/h (1 Bft) S-SW 205 0 min 0,000 mm 0,0 UV-I 0 W/m 6,8 C 8,2 C 4,8 km/h (1 Bft) 93,62 %
28.09.2018 03:32 8,2 C 15,0 C 5,0 C 91 % 1021,2 hPa 0,0 l/m 4,3 km/h (1 Bft) S-SW 208 0 min 0,000 mm 0,0 UV-I 0 W/m 6,8 C 8,2 C 6,4 km/h (2 Bft) 97,87 %
28.09.2018 03:34 8,3 C 15,0 C 4,4 C 91 % 1021,2 hPa 0,0 l/m 4,2 km/h (1 Bft) S-SW 208 0 min 0,000 mm 0,0 UV-I 0 W/m 6,9 C 8,3 C 4,8 km/h (1 Bft) 97,14 %
28.09.2018 03:36 8,3 C 15,0 C 4,4 C 91 % 1021,2 hPa 0,0 l/m 3,9 km/h (1 Bft) S-SW 208 0 min 0,000 mm 0,0 UV-I 0 W/m 6,9 C 8,3 C 4,8 km/h (1 Bft) 95,74 %
28.09.2018 03:38 8,3 C 15,0 C 4,4 C 91 % 1021,1 hPa 0,0 l/m 4,1 km/h (1 Bft) S-SW 208 0 min 0,000 mm 0,0 UV-I 0 W/m 6,9 C 8,3 C 4,8 km/h (1 Bft) 97,87 %
28.09.2018 03:40 8,2 C 15,0 C 5,0 C 90 % 1021,1 hPa 0,0 l/m 3,9 km/h (1 Bft) S-SW 208 0 min 0,000 mm 0,0 UV-I 0 W/m 6,7 C 8,2 C 4,8 km/h (1 Bft) 97,87 %
28.09.2018 03:42 8,2 C 15,0 C 5,6 C 90 % 1021,1 hPa 0,0 l/m 4,1 km/h (1 Bft) S-SW 208 0 min 0,000 mm 0,0 UV-I 0 W/m 6,7 C 8,2 C 4,8 km/h (1 Bft) 95,74 %
28.09.2018 03:45 8,2 C 15,0 C 6,1 C 91 % 1021,1 hPa 0,0 l/m 4,7 km/h (1 Bft) S-SW 208 0 min 0,000 mm 0,0 UV-I 0 W/m 6,8 C 8,2 C 6,4 km/h (2 Bft) 96,39 %
28.09.2018 03:46 8,2 C 15,0 C 6,1 C 91 % 1021,1 hPa 0,0 l/m 5,1 km/h (1 Bft) S-SW 208 0 min 0,000 mm 0,0 UV-I 0 W/m 6,8 C 8,2 C 6,4 km/h (2 Bft) 91,67 %
28.09.2018 03:48 8,2 C 15,0 C 6,1 C 91 % 1021,0 hPa 0,0 l/m 4,5 km/h (1 Bft) S-SW 207 0 min 0,000 mm 0,0 UV-I 0 W/m 6,8 C 8,2 C 6,4 km/h (2 Bft) 98,00 %
28.09.2018 03:50 8,2 C 15,0 C 6,1 C 91 % 1021,1 hPa 0,0 l/m 4,8 km/h (1 Bft) S-SW 208 0 min 0,000 mm 0,0 UV-I 0 W/m 6,8 C 8,2 C 8,0 km/h (2 Bft) 95,74 %
28.09.2018 03:52 8,1 C 15,0 C 6,1 C 91 % 1021,0 hPa 0,0 l/m 4,4 km/h (1 Bft) S-SW 197 0 min 0,000 mm 0,0 UV-I 0 W/m 6,7 C 8,1 C 4,8 km/h (1 Bft) 91,49 %
28.09.2018 03:54 8,1 C 15,0 C 6,1 C 91 % 1021,1 hPa 0,0 l/m 4,0 km/h (1 Bft) SW 236 0 min 0,000 mm 0,0 UV-I 0 W/m 6,7 C 8,1 C 6,4 km/h (2 Bft) 98,00 %
28.09.2018 03:56 8,2 C 15,0 C 5,6 C 91 % 1021,1 hPa 0,0 l/m 5,1 km/h (1 Bft) SW 236 0 min 0,000 mm 0,0 UV-I 0 W/m 6,8 C 8,2 C 8,0 km/h (2 Bft) 93,62 %
28.09.2018 03:58 8,2 C 15,0 C 5,6 C 91 % 1021,1 hPa 0,0 l/m 6,7 km/h (2 Bft) SW 232 0 min 0,000 mm 0,0 UV-I 0 W/m 6,8 C 8,0 C 8,0 km/h (2 Bft) 91,49 %
28.09.2018 04:00 8,2 C 15,0 C 6,1 C 91 % 1021,1 hPa 0,0 l/m 7,1 km/h (2 Bft) W-SW 247 0 min 0,000 mm 0,0 UV-I 0 W/m 6,8 C 7,7 C 11,3 km/h (2 Bft) 98,00 %
28.09.2018 04:02 8,2 C 15,0 C 6,1 C 91 % 1021,1 hPa 0,0 l/m 7,3 km/h (2 Bft) W-SW 239 0 min 0,000 mm 0,0 UV-I 0 W/m 6,8 C 7,5 C 9,7 km/h (2 Bft) 100,00 %
28.09.2018 04:04 8,3 C 15,0 C 6,1 C 92 % 1021,0 hPa 0,0 l/m 6,8 km/h (2 Bft) SW 229 0 min 0,000 mm 0,0 UV-I 0 W/m 7,1 C 8,0 C 9,7 km/h (2 Bft) 98,00 %
28.09.2018 04:06 8,3 C 15,0 C 6,1 C 92 % 1021,0 hPa 0,0 l/m 5,3 km/h (1 Bft) S-SW 213 0 min 0,000 mm 0,0 UV-I 0 W/m 7,1 C 8,3 C 8,0 km/h (2 Bft) 95,74 %
28.09.2018 04:08 8,3 C 15,0 C 6,1 C 91 % 1021,1 hPa 0,0 l/m 5,4 km/h (1 Bft) W-SW 247 0 min 0,000 mm 0,0 UV-I 0 W/m 6,9 C 8,3 C 8,0 km/h (2 Bft) 93,62 %
28.09.2018 04:10 8,4 C 15,0 C 6,1 C 91 % 1021,0 hPa 0,0 l/m 5,5 km/h (1 Bft) SW 218 0 min 0,000 mm 0,0 UV-I 0 W/m 7,0 C 8,4 C 8,0 km/h (2 Bft) 97,87 %
28.09.2018 04:12 8,4 C 15,0 C 6,1 C 91 % 1021,1 hPa 0,0 l/m 5,5 km/h (1 Bft) SW 221 0 min 0,000 mm 0,0 UV-I 0 W/m 7,0 C 8,4 C 9,7 km/h (2 Bft) 95,74 %
28.09.2018 04:14 8,4 C 15,0 C 6,1 C 91 % 1021,0 hPa 0,0 l/m 5,9 km/h (2 Bft) S-SW 212 0 min 0,000 mm 0,0 UV-I 0 W/m 7,0 C 8,4 C 9,7 km/h (2 Bft) 98,00 %
28.09.2018 04:16 8,4 C 15,0 C 6,1 C 91 % 1020,9 hPa 0,0 l/m 6,1 km/h (2 Bft) S 191 0 min 0,000 mm 0,0 UV-I 0 W/m 7,0 C 8,4 C 9,7 km/h (2 Bft) 97,37 %
28.09.2018 04:18 8,4 C 15,0 C 6,7 C 90 % 1021,0 hPa 0,0 l/m 7,5 km/h (2 Bft) S-SW 210 0 min 0,000 mm 0,0 UV-I 0 W/m 6,9 C 7,5 C 9,7 km/h (2 Bft) 98,00 %
28.09.2018 04:20 8,4 C 15,0 C 6,1 C 90 % 1020,9 hPa 0,0 l/m 6,5 km/h (2 Bft) SW 215 0 min 0,000 mm 0,0 UV-I 0 W/m 6,9 C 8,3 C 9,7 km/h (2 Bft) 100,00 %
28.09.2018 04:22 8,3 C 15,0 C 6,1 C 90 % 1020,9 hPa 0,0 l/m 6,5 km/h (2 Bft) SW 216 0 min 0,000 mm 0,0 UV-I 0 W/m 6,8 C 8,2 C 9,7 km/h (2 Bft) 100,00 %
28.09.2018 04:24 8,3 C 15,0 C 6,1 C 91 % 1020,9 hPa 0,0 l/m 5,7 km/h (1 Bft) S-SW 195 0 min 0,000 mm 0,0 UV-I 0 W/m 6,9 C 8,3 C 8,0 km/h (2 Bft) 100,00 %
28.09.2018 04:26 8,3 C 15,0 C 6,1 C 90 % 1020,8 hPa 0,0 l/m 4,6 km/h (1 Bft) S-SW 194 0 min 0,000 mm 0,0 UV-I 0 W/m 6,8 C 8,3 C 6,4 km/h (2 Bft) 97,87 %
28.09.2018 04:28 8,3 C 15,0 C 6,1 C 90 % 1020,8 hPa 0,0 l/m 5,0 km/h (1 Bft) S-SW 194 0 min 0,000 mm 0,0 UV-I 0 W/m 6,8 C 8,3 C 6,4 km/h (2 Bft) 100,00 %
28.09.2018 04:30 8,2 C 15,0 C 6,1 C 90 % 1020,8 hPa 0,0 l/m 5,7 km/h (1 Bft) S-SW 205 0 min 0,000 mm 0,0 UV-I 0 W/m 6,7 C 8,2 C 8,0 km/h (2 Bft) 97,87 %
28.09.2018 04:32 8,2 C 15,0 C 6,1 C 91 % 1020,8 hPa 0,0 l/m 5,6 km/h (1 Bft) S-SW 203 0 min 0,000 mm 0,0 UV-I 0 W/m 6,8 C 8,2 C 8,0 km/h (2 Bft) 95,74 %
28.09.2018 04:34 8,2 C 15,0 C 6,1 C 90 % 1020,8 hPa 0,0 l/m 5,2 km/h (1 Bft) SW 216 0 min 0,000 mm 0,0 UV-I 0 W/m 6,7 C 8,2 C 6,4 km/h (2 Bft) 100,00 %
28.09.2018 04:36 8,2 C 15,0 C 6,1 C 90 % 1020,8 hPa 0,0 l/m 4,9 km/h (1 Bft) S-SW 202 0 min 0,000 mm 0,0 UV-I 0 W/m 6,7 C 8,2 C 6,4 km/h (2 Bft) 100,00 %
28.09.2018 04:38 8,2 C 15,0 C 6,1 C 91 % 1020,8 hPa 0,0 l/m 6,4 km/h (2 Bft) S-SW 194 0 min 0,000 mm 0,0 UV-I 0 W/m 6,8 C 8,2 C 8,0 km/h (2 Bft) 100,00 %
28.09.2018 04:40 8,2 C 15,0 C 6,7 C 91 % 1020,8 hPa 0,0 l/m 5,5 km/h (1 Bft) S-SW 204 0 min 0,000 mm 0,0 UV-I 0 W/m 6,8 C 8,2 C 8,0 km/h (2 Bft) 100,00 %
28.09.2018 04:42 8,2 C 15,0 C 6,7 C 91 % 1020,8 hPa 0,0 l/m 6,0 km/h (2 Bft) S-SW 208 0 min 0,000 mm 0,0 UV-I 0 W/m 6,8 C 8,2 C 8,0 km/h (2 Bft) 95,74 %
28.09.2018 04:44 8,2 C 15,0 C 6,1 C 91 % 1020,7 hPa 0,0 l/m 5,0 km/h (1 Bft) S-SW 209 0 min 0,000 mm 0,0 UV-I 0 W/m 6,8 C 8,2 C 6,4 km/h (2 Bft) 97,96 %
28.09.2018 04:46 8,2 C 15,0 C 6,1 C 91 % 1020,6 hPa 0,0 l/m 4,6 km/h (1 Bft) S-SW 207 0 min 0,000 mm 0,0 UV-I 0 W/m 6,8 C 8,2 C 6,4 km/h (2 Bft) 100,00 %
28.09.2018 04:48 8,2 C 15,0 C 6,1 C 91 % 1020,6 hPa 0,0 l/m 4,0 km/h (1 Bft) S-SW 210 0 min 0,000 mm 0,0 UV-I 0 W/m 6,8 C 8,2 C 6,4 km/h (2 Bft) 97,87 %
28.09.2018 04:50 8,2 C 15,0 C 6,1 C 91 % 1020,6 hPa 0,0 l/m 3,9 km/h (1 Bft) S-SW 210 0 min 0,000 mm 0,0 UV-I 0 W/m 6,8 C 8,2 C 4,8 km/h (1 Bft) 100,00 %
28.09.2018 04:52 8,1 C 15,0 C 5,6 C 90 % 1020,5 hPa 0,0 l/m 4,4 km/h (1 Bft) S-SW 210 0 min 0,000 mm 0,0 UV-I 0 W/m 6,6 C 8,1 C 6,4 km/h (2 Bft) 97,87 %
28.09.2018 04:54 7,9 C 15,0 C 5,6 C 90 % 1020,5 hPa 0,0 l/m 4,1 km/h (1 Bft) S-SW 210 0 min 0,000 mm 0,0 UV-I 0 W/m 6,4 C 7,9 C 6,4 km/h (2 Bft) 100,00 %
28.09.2018 04:56 7,8 C 15,0 C 5,6 C 91 % 1020,5 hPa 0,0 l/m 4,7 km/h (1 Bft) S-SW 212 0 min 0,000 mm 0,0 UV-I 0 W/m 6,4 C 7,8 C 8,0 km/h (2 Bft) 100,00 %
28.09.2018 04:58 7,8 C 15,0 C 5,6 C 91 % 1020,6 hPa 0,0 l/m 4,8 km/h (1 Bft) SW 215 0 min 0,000 mm 0,0 UV-I 0 W/m 6,4 C 7,8 C 6,4 km/h (2 Bft) 97,87 %
28.09.2018 05:00 7,8 C 15,0 C 5,6 C 91 % 1020,6 hPa 0,0 l/m 4,3 km/h (1 Bft) S-SW 209 0 min 0,000 mm 0,0 UV-I 0 W/m 6,4 C 7,8 C 6,4 km/h (2 Bft) 100,00 %
28.09.2018 05:02 7,8 C 15,0 C 5,6 C 91 % 1020,6 hPa 0,0 l/m 4,2 km/h (1 Bft) S-SW 209 0 min 0,000 mm 0,0 UV-I 0 W/m 6,4 C 7,8 C 4,8 km/h (1 Bft) 100,00 %
28.09.2018 05:04 7,7 C 15,0 C 5,0 C 90 % 1020,6 hPa 0,0 l/m 4,4 km/h (1 Bft) S-SW 208 0 min 0,000 mm 0,0 UV-I 0 W/m 6,2 C 7,7 C 4,8 km/h (1 Bft) 100,00 %
28.09.2018 05:06 7,6 C 15,0 C 5,0 C 91 % 1020,6 hPa 0,0 l/m 4,6 km/h (1 Bft) S-SW 207 0 min 0,000 mm 0,0 UV-I 0 W/m 6,2 C 7,6 C 6,4 km/h (2 Bft) 100,00 %
28.09.2018 05:08 7,4 C 15,0 C 4,4 C 91 % 1020,6 hPa 0,0 l/m 4,9 km/h (1 Bft) S-SW 200 0 min 0,000 mm 0,0 UV-I 0 W/m 6,0 C 7,4 C 6,4 km/h (2 Bft) 100,00 %
28.09.2018 05:10 7,4 C 15,0 C 4,4 C 91 % 1020,6 hPa 0,0 l/m 4,6 km/h (1 Bft) S-SW 199 0 min 0,000 mm 0,0 UV-I 0 W/m 6,0 C 7,4 C 6,4 km/h (2 Bft) 100,00 %
28.09.2018 05:12 7,3 C 15,0 C 3,9 C 91 % 1020,6 hPa 0,0 l/m 4,9 km/h (1 Bft) S-SW 199 0 min 0,000 mm 0,0 UV-I 0 W/m 5,9 C 7,3 C 8,0 km/h (2 Bft) 95,74 %
28.09.2018 05:14 7,4 C 15,0 C 4,4 C 92 % 1020,6 hPa 0,0 l/m 4,9 km/h (1 Bft) S-SW 209 0 min 0,000 mm 0,0 UV-I 0 W/m 6,2 C 7,4 C 6,4 km/h (2 Bft) 97,87 %
28.09.2018 05:16 7,6 C 15,0 C 5,0 C 92 % 1020,5 hPa 0,0 l/m 4,3 km/h (1 Bft) S-SW 209 0 min 0,000 mm 0,0 UV-I 0 W/m 6,4 C 7,6 C 6,4 km/h (2 Bft) 97,87 %
28.09.2018 05:18 7,7 C 15,0 C 5,0 C 92 % 1020,5 hPa 0,0 l/m 5,2 km/h (1 Bft) S-SW 201 0 min 0,000 mm 0,0 UV-I 0 W/m 6,5 C 7,7 C 6,4 km/h (2 Bft) 93,62 %
28.09.2018 05:20 7,7 C 15,0 C 5,0 C 92 % 1020,5 hPa 0,0 l/m 4,8 km/h (1 Bft) S-SW 193 0 min 0,000 mm 0,0 UV-I 0 W/m 6,5 C 7,7 C 6,4 km/h (2 Bft) 93,62 %
28.09.2018 05:22 7,8 C 15,0 C 5,6 C 92 % 1020,5 hPa 0,0 l/m 4,9 km/h (1 Bft) S-SW 205 0 min 0,000 mm 0,0 UV-I 0 W/m 6,6 C 7,8 C 6,4 km/h (2 Bft) 98,00 %
28.09.2018 05:24 7,8 C 15,0 C 5,6 C 92 % 1020,5 hPa 0,0 l/m 4,7 km/h (1 Bft) S-SW 205 0 min 0,000 mm 0,0 UV-I 0 W/m 6,6 C 7,8 C 6,4 km/h (2 Bft) 95,74 %
28.09.2018 05:26 7,9 C 15,0 C 5,6 C 92 % 1020,5 hPa 0,0 l/m 4,9 km/h (1 Bft) S-SW 202 0 min 0,000 mm 0,0 UV-I 0 W/m 6,7 C 7,9 C 6,4 km/h (2 Bft) 97,87 %
28.09.2018 05:28 7,9 C 15,0 C 6,1 C 92 % 1020,5 hPa 0,0 l/m 4,7 km/h (1 Bft) S-SW 198 0 min 0,000 mm 0,0 UV-I 0 W/m 6,7 C 7,9 C 6,4 km/h (2 Bft) 95,74 %
28.09.2018 05:30 7,9 C 15,0 C 6,1 C 92 % 1020,5 hPa 0,0 l/m 5,1 km/h (1 Bft) S-SW 202 0 min 0,000 mm 0,0 UV-I 0 W/m 6,7 C 7,9 C 8,0 km/h (2 Bft) 89,47 %
28.09.2018 05:32 7,9 C 15,0 C 6,1 C 92 % 1020,5 hPa 0,0 l/m 4,2 km/h (1 Bft) S-SW 206 0 min 0,000 mm 0,0 UV-I 0 W/m 6,7 C 7,9 C 6,4 km/h (2 Bft) 98,00 %
28.09.2018 05:34 7,8 C 15,0 C 6,1 C 92 % 1020,5 hPa 0,0 l/m 4,9 km/h (1 Bft) S-SW 205 0 min 0,000 mm 0,0 UV-I 0 W/m 6,6 C 7,8 C 6,4 km/h (2 Bft) 97,87 %
28.09.2018 05:36 7,8 C 15,0 C 6,1 C 92 % 1020,4 hPa 0,0 l/m 3,8 km/h (1 Bft) S-SW 211 0 min 0,000 mm 0,0 UV-I 0 W/m 6,6 C 7,8 C 4,8 km/h (1 Bft) 94,00 %
28.09.2018 05:38 7,8 C 15,0 C 6,1 C 92 % 1020,5 hPa 0,0 l/m 3,6 km/h (1 Bft) S-SW 211 0 min 0,000 mm 0,0 UV-I 0 W/m 6,6 C 7,8 C 4,8 km/h (1 Bft) 97,96 %
28.09.2018 05:40 7,7 C 15,0 C 5,6 C 92 % 1020,4 hPa 0,0 l/m 2,6 km/h (1 Bft) S-SW 211 0 min 0,000 mm 0,0 UV-I 0 W/m 6,5 C 7,7 C 4,8 km/h (1 Bft) 97,22 %
28.09.2018 05:42 7,7 C 15,0 C 5,0 C 92 % 1020,4 hPa 0,0 l/m 3,1 km/h (1 Bft) S-SW 198 0 min 0,000 mm 0,0 UV-I 0 W/m 6,5 C 7,7 C 4,8 km/h (1 Bft) 98,11 %
28.09.2018 05:44 7,6 C 15,0 C 5,0 C 92 % 1020,5 hPa 0,0 l/m 3,9 km/h (1 Bft) S-SW 198 0 min 0,000 mm 0,0 UV-I 0 W/m 6,4 C 7,6 C 6,4 km/h (2 Bft) 95,74 %
28.09.2018 05:46 7,6 C 15,0 C 5,0 C 92 % 1020,4 hPa 0,0 l/m 3,5 km/h (1 Bft) S-SW 198 0 min 0,000 mm 0,0 UV-I 0 W/m 6,4 C 7,6 C 4,8 km/h (1 Bft) 95,74 %
28.09.2018 05:48 7,4 C 15,0 C 4,4 C 92 % 1020,4 hPa 0,0 l/m 3,0 km/h (1 Bft) S-SW 198 0 min 0,000 mm 0,0 UV-I 0 W/m 6,2 C 7,4 C 4,8 km/h (1 Bft) 95,74 %
28.09.2018 05:50 7,5 C 15,0 C 3,9 C 93 % 1020,3 hPa 0,0 l/m 3,3 km/h (1 Bft) S-SW 198 0 min 0,000 mm 0,0 UV-I 0 W/m 6,4 C 7,5 C 4,8 km/h (1 Bft) 97,87 %
28.09.2018 05:52 7,6 C 15,0 C 3,9 C 93 % 1020,3 hPa 0,0 l/m 3,0 km/h (1 Bft) S-SW 198 0 min 0,000 mm 0,0 UV-I 0 W/m 6,5 C 7,6 C 4,8 km/h (1 Bft) 96,00 %
28.09.2018 05:54 7,6 C 15,0 C 3,9 C 93 % 1020,3 hPa 0,0 l/m 3,4 km/h (1 Bft) S-SW 198 0 min 0,000 mm 0,0 UV-I 0 W/m 6,5 C 7,6 C 4,8 km/h (1 Bft) 93,62 %
28.09.2018 05:56 7,6 C 15,0 C 3,3 C 93 % 1020,3 hPa 0,0 l/m 3,5 km/h (1 Bft) S-SW 211 0 min 0,000 mm 0,0 UV-I 0 W/m 6,5 C 7,6 C 6,4 km/h (2 Bft) 94,74 %
28.09.2018 05:58 7,6 C 15,0 C 3,9 C 93 % 1020,4 hPa 0,0 l/m 3,6 km/h (1 Bft) S-SW 211 0 min 0,000 mm 0,0 UV-I 0 W/m 6,5 C 7,6 C 4,8 km/h (1 Bft) 95,74 %
28.09.2018 06:00 7,5 C 15,0 C 3,9 C 93 % 1020,4 hPa 0,0 l/m 4,3 km/h (1 Bft) S-SW 211 0 min 0,000 mm 0,0 UV-I 0 W/m 6,4 C 7,5 C 6,4 km/h (2 Bft) 95,74 %
28.09.2018 06:02 7,5 C 15,0 C 3,9 C 93 % 1020,4 hPa 0,0 l/m 4,2 km/h (1 Bft) S-SW 211 0 min 0,000 mm 0,0 UV-I 0 W/m 6,4 C 7,5 C 6,4 km/h (2 Bft) 95,74 %
28.09.2018 06:04 7,6 C 15,0 C 3,9 C 93 % 1020,4 hPa 0,0 l/m 3,2 km/h (1 Bft) S-SW 211 0 min 0,000 mm 0,0 UV-I 0 W/m 6,5 C 7,6 C 4,8 km/h (1 Bft) 93,62 %
28.09.2018 06:06 7,5 C 15,0 C 3,9 C 93 % 1020,4 hPa 0,0 l/m 2,8 km/h (1 Bft) S-SW 211 0 min 0,000 mm 0,0 UV-I 0 W/m 6,4 C 7,5 C 4,8 km/h (1 Bft) 95,74 %
28.09.2018 06:08 7,3 C 15,0 C 3,9 C 92 % 1020,4 hPa 0,0 l/m 3,3 km/h (1 Bft) S-SW 211 0 min 0,000 mm 0,0 UV-I 0 W/m 6,1 C 7,3 C 4,8 km/h (1 Bft) 93,62 %
28.09.2018 06:10 7,2 C 15,0 C 3,3 C 92 % 1020,4 hPa 0,0 l/m 3,4 km/h (1 Bft) S-SW 211 0 min 0,000 mm 0,0 UV-I 0 W/m 6,0 C 7,2 C 4,8 km/h (1 Bft) 94,00 %
28.09.2018 06:12 7,2 C 15,0 C 3,3 C 93 % 1020,4 hPa 0,0 l/m 2,9 km/h (1 Bft) S-SW 211 0 min 0,000 mm 0,0 UV-I 0 W/m 6,1 C 7,2 C 4,8 km/h (1 Bft) 96,00 %
28.09.2018 06:14 7,3 C 15,0 C 3,3 C 93 % 1020,4 hPa 0,0 l/m 4,0 km/h (1 Bft) S-SW 211 0 min 0,000 mm 0,0 UV-I 0 W/m 6,2 C 7,3 C 4,8 km/h (1 Bft) 98,00 %
28.09.2018 06:16 7,3 C 15,0 C 3,9 C 93 % 1020,4 hPa 0,0 l/m 3,7 km/h (1 Bft) S-SW 211 0 min 0,000 mm 0,0 UV-I 0 W/m 6,2 C 7,3 C 4,8 km/h (1 Bft) 97,22 %
28.09.2018 06:18 7,4 C 15,0 C 4,4 C 93 % 1020,4 hPa 0,0 l/m 4,6 km/h (1 Bft) S-SW 211 0 min 0,000 mm 0,0 UV-I 0 W/m 6,3 C 7,4 C 6,4 km/h (2 Bft) 98,00 %
28.09.2018 06:20 7,2 C 15,0 C 4,4 C 93 % 1020,5 hPa 0,0 l/m 3,7 km/h (1 Bft) S-SW 211 0 min 0,000 mm 0,0 UV-I 0 W/m 6,1 C 7,2 C 4,8 km/h (1 Bft) 93,62 %
28.09.2018 06:22 7,2 C 15,0 C 4,4 C 93 % 1020,5 hPa 0,0 l/m 4,4 km/h (1 Bft) S-SW 211 0 min 0,000 mm 0,0 UV-I 0 W/m 6,1 C 7,2 C 6,4 km/h (2 Bft) 97,87 %
28.09.2018 06:24 7,3 C 15,0 C 3,9 C 93 % 1020,5 hPa 0,0 l/m 2,9 km/h (1 Bft) S-SW 211 0 min 0,000 mm 0,0 UV-I 0 W/m 6,2 C 7,3 C 4,8 km/h (1 Bft) 95,74 %
28.09.2018 06:26 7,4 C 14,4 C 3,9 C 94 % 1020,5 hPa 0,0 l/m 3,3 km/h (1 Bft) S-SW 211 0 min 0,000 mm 0,0 UV-I 0 W/m 6,5 C 7,4 C 4,8 km/h (1 Bft) 97,87 %
28.09.2018 06:28 7,4 C 14,4 C 3,9 C 94 % 1020,6 hPa 0,0 l/m 3,4 km/h (1 Bft) S-SW 211 0 min 0,000 mm 0,0 UV-I 0 W/m 6,5 C 7,4 C 4,8 km/h (1 Bft) 93,62 %
28.09.2018 06:30 7,4 C 15,0 C 3,9 C 93 % 1020,6 hPa 0,0 l/m 4,0 km/h (1 Bft) S-SW 211 0 min 0,000 mm 0,0 UV-I 0 W/m 6,3 C 7,4 C 4,8 km/h (1 Bft) 91,49 %
28.09.2018 06:32 7,3 C 14,4 C 3,9 C 93 % 1020,6 hPa 0,0 l/m 3,6 km/h (1 Bft) S-SW 211 0 min 0,000 mm 0,0 UV-I 0 W/m 6,2 C 7,3 C 4,8 km/h (1 Bft) 92,00 %
28.09.2018 06:34 7,2 C 14,4 C 3,9 C 93 % 1020,6 hPa 0,0 l/m 3,6 km/h (1 Bft) S-SW 211 0 min 0,000 mm 0,0 UV-I 0 W/m 6,1 C 7,2 C 4,8 km/h (1 Bft) 96,00 %
28.09.2018 06:36 7,2 C 15,0 C 3,9 C 93 % 1020,5 hPa 0,0 l/m 4,8 km/h (1 Bft) S-SW 211 0 min 0,000 mm 0,0 UV-I 0 W/m 6,1 C 7,2 C 6,4 km/h (2 Bft) 94,74 %
28.09.2018 06:38 7,1 C 15,0 C 3,9 C 93 % 1020,6 hPa 0,0 l/m 3,8 km/h (1 Bft) S-SW 211 0 min 0,000 mm 0,0 UV-I 0 W/m 6,0 C 7,1 C 4,8 km/h (1 Bft) 93,62 %
28.09.2018 06:40 7,0 C 14,4 C 3,9 C 93 % 1020,5 hPa 0,0 l/m 2,7 km/h (1 Bft) S-SW 211 0 min 0,000 mm 0,0 UV-I 0 W/m 5,9 C 7,0 C 3,2 km/h (1 Bft) 95,74 %
28.09.2018 06:42 6,9 C 15,0 C 3,9 C 93 % 1020,5 hPa 0,0 l/m 2,7 km/h (1 Bft) S-SW 211 0 min 0,000 mm 0,0 UV-I 0 W/m 5,8 C 6,9 C 4,8 km/h (1 Bft) 95,74 %
28.09.2018 06:44 6,9 C 15,0 C 3,9 C 93 % 1020,4 hPa 0,0 l/m 2,5 km/h (1 Bft) S-SW 211 0 min 0,000 mm 0,0 UV-I 1 W/m 5,8 C 6,9 C 3,2 km/h (1 Bft) 95,74 %
28.09.2018 06:46 6,9 C 14,4 C 3,9 C 93 % 1020,4 hPa 0,0 l/m 3,1 km/h (1 Bft) S-SW 211 0 min 0,000 mm 0,0 UV-I 5 W/m 5,8 C 6,9 C 4,8 km/h (1 Bft) 95,74 %
28.09.2018 06:48 6,9 C 14,4 C 3,9 C 94 % 1020,5 hPa 0,0 l/m 2,7 km/h (1 Bft) S-SW 211 0 min 0,000 mm 0,0 UV-I 5 W/m 6,0 C 6,9 C 4,8 km/h (1 Bft) 97,87 %
28.09.2018 06:50 6,9 C 15,0 C 3,3 C 94 % 1020,5 hPa 0,0 l/m 1,9 km/h (1 Bft) S-SW 211 0 min 0,000 mm 0,0 UV-I 5 W/m 6,0 C 6,9 C 3,2 km/h (1 Bft) 100,00 %
28.09.2018 06:52 7,0 C 14,4 C 3,3 C 94 % 1020,5 hPa 0,0 l/m 2,8 km/h (1 Bft) S-SW 211 0 min 0,000 mm 0,0 UV-I 6 W/m 6,1 C 7,0 C 4,8 km/h (1 Bft) 100,00 %
28.09.2018 06:54 7,1 C 14,4 C 3,9 C 94 % 1020,5 hPa 0,0 l/m 3,7 km/h (1 Bft) S-SW 213 0 min 0,000 mm 0,0 UV-I 7 W/m 6,2 C 7,1 C 4,8 km/h (1 Bft) 100,00 %
28.09.2018 06:56 7,1 C 14,4 C 3,9 C 94 % 1020,5 hPa 0,0 l/m 3,5 km/h (1 Bft) S-SW 213 0 min 0,000 mm 0,0 UV-I 7 W/m 6,2 C 7,1 C 4,8 km/h (1 Bft) 97,87 %
28.09.2018 06:58 7,0 C 14,4 C 3,9 C 94 % 1020,5 hPa 0,0 l/m 3,6 km/h (1 Bft) S-SW 213 0 min 0,000 mm 0,0 UV-I 8 W/m 6,1 C 7,0 C 4,8 km/h (1 Bft) 97,87 %
28.09.2018 07:00 6,9 C 14,4 C 3,9 C 93 % 1020,5 hPa 0,0 l/m 4,4 km/h (1 Bft) S 180 0 min 0,000 mm 0,0 UV-I 9 W/m 5,8 C 6,9 C 6,4 km/h (2 Bft) 100,00 %
28.09.2018 07:02 6,8 C 14,4 C 3,9 C 93 % 1020,6 hPa 0,0 l/m 4,9 km/h (1 Bft) S 185 0 min 0,000 mm 0,0 UV-I 9 W/m 5,7 C 6,8 C 6,4 km/h (2 Bft) 100,00 %
28.09.2018 07:04 6,7 C 14,4 C 3,9 C 94 % 1020,6 hPa 0,0 l/m 3,7 km/h (1 Bft) S 182 0 min 0,000 mm 0,0 UV-I 11 W/m 5,8 C 6,7 C 4,8 km/h (1 Bft) 97,87 %
28.09.2018 07:06 6,7 C 14,4 C 3,9 C 94 % 1020,5 hPa 0,0 l/m 3,1 km/h (1 Bft) S 180 0 min 0,000 mm 0,0 UV-I 13 W/m 5,8 C 6,7 C 3,2 km/h (1 Bft) 97,87 %
28.09.2018 07:08 6,8 C 14,4 C 3,9 C 94 % 1020,5 hPa 0,0 l/m 2,6 km/h (1 Bft) S 180 0 min 0,000 mm 0,0 UV-I 16 W/m 5,9 C 6,8 C 3,2 km/h (1 Bft) 95,74 %
28.09.2018 07:10 6,9 C 14,4 C 3,9 C 95 % 1020,6 hPa 0,0 l/m 4,0 km/h (1 Bft) S 187 2 min 0,000 mm 0,0 UV-I 18 W/m 6,2 C 6,9 C 4,8 km/h (1 Bft) 97,87 %
28.09.2018 07:12 7,1 C 14,4 C 3,9 C 95 % 1020,6 hPa 0,0 l/m 3,4 km/h (1 Bft) S 187 2 min 0,000 mm 0,0 UV-I 20 W/m 6,4 C 7,1 C 4,8 km/h (1 Bft) 97,87 %
28.09.2018 07:14 7,1 C 14,4 C 4,4 C 94 % 1020,6 hPa 0,0 l/m 3,3 km/h (1 Bft) S 187 2 min 0,000 mm 0,0 UV-I 23 W/m 6,2 C 7,1 C 4,8 km/h (1 Bft) 97,87 %
28.09.2018 07:16 7,1 C 14,4 C 4,4 C 94 % 1020,6 hPa 0,0 l/m 2,9 km/h (1 Bft) S 187 2 min 0,000 mm 0,0 UV-I 26 W/m 6,2 C 7,1 C 3,2 km/h (1 Bft) 100,00 %
28.09.2018 07:18 7,1 C 14,4 C 5,0 C 94 % 1020,7 hPa 0,0 l/m 2,9 km/h (1 Bft) S 187 2 min 0,000 mm 0,0 UV-I 31 W/m 6,2 C 7,1 C 3,2 km/h (1 Bft) 100,00 %
28.09.2018 07:20 7,0 C 14,4 C 4,4 C 94 % 1020,7 hPa 0,0 l/m 2,3 km/h (1 Bft) S-SW 192 2 min 0,000 mm 0,0 UV-I 35 W/m 6,1 C 7,0 C 3,2 km/h (1 Bft) 100,00 %
28.09.2018 07:22 7,0 C 14,4 C 4,4 C 94 % 1020,7 hPa 0,0 l/m 2,2 km/h (1 Bft) S-SW 192 2 min 0,000 mm 0,0 UV-I 39 W/m 6,1 C 7,0 C 3,2 km/h (1 Bft) 100,00 %
28.09.2018 07:24 7,0 C 14,4 C 4,4 C 94 % 1020,7 hPa 0,0 l/m 2,1 km/h (1 Bft) S-SW 192 2 min 0,000 mm 0,0 UV-I 43 W/m 6,1 C 7,0 C 3,2 km/h (1 Bft) 100,00 %
28.09.2018 07:26 6,9 C 14,4 C 4,4 C 94 % 1020,7 hPa 0,0 l/m 2,0 km/h (1 Bft) S-SW 192 2 min 0,000 mm 0,0 UV-I 48 W/m 6,0 C 6,9 C 3,2 km/h (1 Bft) 100,00 %
28.09.2018 07:28 6,9 C 14,4 C 4,4 C 94 % 1020,7 hPa 0,0 l/m 2,7 km/h (1 Bft) S-SW 192 2 min 0,000 mm 0,0 UV-I 53 W/m 6,0 C 6,9 C 3,2 km/h (1 Bft) 100,00 %
28.09.2018 07:30 6,9 C 14,4 C 4,4 C 94 % 1020,8 hPa 0,0 l/m 2,9 km/h (1 Bft) S-SW 192 2 min 0,000 mm 0,0 UV-I 57 W/m 6,0 C 6,9 C 4,8 km/h (1 Bft) 97,87 %
28.09.2018 07:32 7,0 C 14,4 C 4,4 C 94 % 1020,8 hPa 0,0 l/m 3,5 km/h (1 Bft) S-SW 199 2 min 0,000 mm 0,0 UV-I 62 W/m 6,1 C 7,0 C 4,8 km/h (1 Bft) 97,87 %
28.09.2018 07:34 7,1 C 14,4 C 4,4 C 94 % 1020,8 hPa 0,0 l/m 3,6 km/h (1 Bft) S-SW 199 2 min 0,000 mm 0,0 UV-I 67 W/m 6,2 C 7,1 C 4,8 km/h (1 Bft) 100,00 %
28.09.2018 07:36 7,1 C 14,4 C 4,4 C 93 % 1020,9 hPa 0,0 l/m 3,3 km/h (1 Bft) S-SW 199 2 min 0,000 mm 0,0 UV-I 69 W/m 6,0 C 7,1 C 4,8 km/h (1 Bft) 100,00 %
28.09.2018 07:38 7,1 C 14,4 C 5,0 C 93 % 1020,9 hPa 0,0 l/m 2,2 km/h (1 Bft) S-SW 199 2 min 0,000 mm 0,0 UV-I 74 W/m 6,0 C 7,1 C 3,2 km/h (1 Bft) 100,00 %
28.09.2018 07:40 7,1 C 14,4 C 5,0 C 93 % 1020,9 hPa 0,0 l/m 3,6 km/h (1 Bft) S-SW 199 2 min 0,000 mm 0,0 UV-I 78 W/m 6,0 C 7,1 C 4,8 km/h (1 Bft) 97,87 %
28.09.2018 07:42 7,0 C 14,4 C 5,0 C 93 % 1020,8 hPa 0,0 l/m 3,4 km/h (1 Bft) S-SW 199 2 min 0,000 mm 0,0 UV-I 82 W/m 5,9 C 7,0 C 4,8 km/h (1 Bft) 97,87 %
28.09.2018 07:44 7,0 C 14,4 C 5,0 C 93 % 1020,9 hPa 0,0 l/m 3,4 km/h (1 Bft) S-SW 199 2 min 0,000 mm 0,0 UV-I 86 W/m 5,9 C 7,0 C 4,8 km/h (1 Bft) 92,11 %
28.09.2018 07:46 7,0 C 14,4 C 5,0 C 94 % 1020,8 hPa 0,0 l/m 3,3 km/h (1 Bft) S-SW 199 2 min 0,000 mm 0,0 UV-I 90 W/m 6,1 C 7,0 C 4,8 km/h (1 Bft) 97,87 %
28.09.2018 07:48 7,1 C 14,4 C 5,0 C 94 % 1020,8 hPa 0,0 l/m 4,4 km/h (1 Bft) S-SW 199 2 min 0,000 mm 0,0 UV-I 94 W/m 6,2 C 7,1 C 6,4 km/h (2 Bft) 97,87 %
28.09.2018 07:50 7,3 C 14,4 C 5,6 C 94 % 1020,9 hPa 0,0 l/m 3,9 km/h (1 Bft) S-SW 200 2 min 0,000 mm 0,0 UV-I 98 W/m 6,4 C 7,3 C 6,4 km/h (2 Bft) 97,87 %
28.09.2018 07:52 7,5 C 14,4 C 5,6 C 94 % 1020,9 hPa 0,0 l/m 3,3 km/h (1 Bft) S-SW 201 2 min 0,000 mm 0,0 UV-I 104 W/m 6,6 C 7,5 C 6,4 km/h (2 Bft) 95,74 %
28.09.2018 07:54 7,6 C 14,4 C 5,0 C 94 % 1020,9 hPa 0,0 l/m 2,9 km/h (1 Bft) S-SW 201 2 min 0,000 mm 0,0 UV-I 110 W/m 6,7 C 7,6 C 4,8 km/h (1 Bft) 95,74 %
28.09.2018 07:56 7,8 C 14,4 C 5,6 C 94 % 1020,9 hPa 0,0 l/m 3,6 km/h (1 Bft) S-SW 201 2 min 0,000 mm 0,0 UV-I 116 W/m 6,9 C 7,8 C 4,8 km/h (1 Bft) 95,74 %
28.09.2018 07:58 8,0 C 14,4 C 6,1 C 94 % 1020,9 hPa 0,0 l/m 3,7 km/h (1 Bft) S-SW 201 2 min 0,000 mm 0,0 UV-I 118 W/m 7,1 C 8,0 C 4,8 km/h (1 Bft) 93,62 %
28.09.2018 08:00 8,1 C 14,4 C 6,7 C 93 % 1020,9 hPa 0,0 l/m 3,6 km/h (1 Bft) S-SW 201 2 min 0,025 mm 0,0 UV-I 125 W/m 7,0 C 8,1 C 4,8 km/h (1 Bft) 95,74 %
28.09.2018 08:02 8,3 C 14,4 C 6,7 C 93 % 1020,9 hPa 0,0 l/m 2,7 km/h (1 Bft) S-SW 201 2 min 0,000 mm 0,0 UV-I 129 W/m 7,2 C 8,3 C 3,2 km/h (1 Bft) 96,00 %
28.09.2018 08:04 8,4 C 14,4 C 6,1 C 93 % 1020,8 hPa 0,0 l/m 2,4 km/h (1 Bft) S-SW 201 2 min 0,000 mm 0,0 UV-I 133 W/m 7,3 C 8,4 C 4,8 km/h (1 Bft) 93,62 %
28.09.2018 08:06 8,6 C 14,4 C 6,1 C 92 % 1020,9 hPa 0,0 l/m 3,3 km/h (1 Bft) SW 223 2 min 0,000 mm 0,0 UV-I 139 W/m 7,4 C 8,6 C 4,8 km/h (1 Bft) 96,23 %
28.09.2018 08:08 8,8 C 14,4 C 6,1 C 92 % 1020,9 hPa 0,0 l/m 3,8 km/h (1 Bft) SW 223 2 min 0,000 mm 0,0 UV-I 144 W/m 7,6 C 8,8 C 4,8 km/h (1 Bft) 97,87 %
28.09.2018 08:10 8,9 C 14,4 C 6,1 C 92 % 1020,9 hPa 0,0 l/m 3,4 km/h (1 Bft) SW 223 2 min 0,000 mm 0,0 UV-I 149 W/m 7,7 C 8,9 C 4,8 km/h (1 Bft) 97,22 %
28.09.2018 08:12 9,1 C 14,4 C 6,7 C 91 % 1020,9 hPa 0,0 l/m 2,9 km/h (1 Bft) SW 229 2 min 0,000 mm 0,0 UV-I 154 W/m 7,7 C 9,1 C 4,8 km/h (1 Bft) 98,00 %
28.09.2018 08:14 9,1 C 14,4 C 7,2 C 90 % 1020,9 hPa 0,0 l/m 3,2 km/h (1 Bft) SW 230 2 min 0,000 mm 0,0 UV-I 159 W/m 7,5 C 9,1 C 4,8 km/h (1 Bft) 97,87 %
28.09.2018 08:16 9,2 C 14,4 C 7,2 C 90 % 1020,9 hPa 0,0 l/m 2,5 km/h (1 Bft) SW 230 2 min 0,000 mm 0,0 UV-I 163 W/m 7,6 C 9,2 C 3,2 km/h (1 Bft) 93,62 %
28.09.2018 08:18 9,2 C 14,4 C 7,2 C 90 % 1020,9 hPa 0,0 l/m 2,6 km/h (1 Bft) SW 230 2 min 0,000 mm 0,0 UV-I 168 W/m 7,6 C 9,2 C 4,8 km/h (1 Bft) 95,74 %
28.09.2018 08:20 9,2 C 14,4 C 7,8 C 89 % 1020,9 hPa 0,0 l/m 2,5 km/h (1 Bft) SW 230 2 min 0,000 mm 0,0 UV-I 173 W/m 7,5 C 9,2 C 3,2 km/h (1 Bft) 94,00 %
28.09.2018 08:22 9,3 C 14,4 C 7,8 C 90 % 1020,9 hPa 0,0 l/m 3,0 km/h (1 Bft) SW 229 2 min 0,000 mm 0,0 UV-I 180 W/m 7,7 C 9,3 C 4,8 km/h (1 Bft) 97,87 %
28.09.2018 08:24 9,5 C 14,4 C 8,3 C 89 % 1020,9 hPa 0,0 l/m 2,8 km/h (1 Bft) SW 229 2 min 0,000 mm 0,0 UV-I 184 W/m 7,8 C 9,5 C 4,8 km/h (1 Bft) 95,74 %
28.09.2018 08:26 9,6 C 14,4 C 8,3 C 89 % 1021,0 hPa 0,0 l/m 2,8 km/h (1 Bft) SW 229 2 min 0,000 mm 0,0 UV-I 188 W/m 7,9 C 9,6 C 4,8 km/h (1 Bft) 95,74 %
28.09.2018 08:28 9,7 C 14,4 C 8,3 C 88 % 1021,0 hPa 0,0 l/m 4,1 km/h (1 Bft) SW 228 2 min 0,000 mm 0,0 UV-I 193 W/m 7,8 C 9,7 C 4,8 km/h (1 Bft) 93,62 %
28.09.2018 08:30 9,8 C 14,4 C 8,9 C 88 % 1021,0 hPa 0,0 l/m 3,4 km/h (1 Bft) SW 228 2 min 0,000 mm 0,0 UV-I 198 W/m 7,9 C 9,8 C 4,8 km/h (1 Bft) 95,74 %
28.09.2018 08:32 10,0 C 14,4 C 8,9 C 88 % 1021,0 hPa 0,0 l/m 2,5 km/h (1 Bft) SW 228 2 min 0,000 mm 0,0 UV-I 204 W/m 8,1 C 10,0 C 4,8 km/h (1 Bft) 95,74 %
28.09.2018 08:34 10,1 C 14,4 C 8,9 C 87 % 1021,0 hPa 0,0 l/m 3,5 km/h (1 Bft) SW 228 2 min 0,000 mm 0,0 UV-I 208 W/m 8,0 C 10,1 C 4,8 km/h (1 Bft) 95,74 %
28.09.2018 08:36 10,2 C 14,4 C 8,9 C 87 % 1021,0 hPa 0,0 l/m 3,1 km/h (1 Bft) SW 228 2 min 0,000 mm 0,0 UV-I 214 W/m 8,1 C 10,2 C 6,4 km/h (2 Bft) 97,87 %
28.09.2018 08:38 10,4 C 14,4 C 8,9 C 87 % 1021,0 hPa 0,0 l/m 3,5 km/h (1 Bft) SW 228 2 min 0,000 mm 0,0 UV-I 219 W/m 8,3 C 10,4 C 4,8 km/h (1 Bft) 97,87 %
28.09.2018 08:40 10,6 C 14,4 C 8,9 C 86 % 1021,0 hPa 0,0 l/m 3,5 km/h (1 Bft) SW 228 2 min 0,000 mm 0,4 UV-I 224 W/m 8,4 C 10,6 C 4,8 km/h (1 Bft) 97,87 %
28.09.2018 08:42 10,6 C 14,4 C 8,9 C 85 % 1021,0 hPa 0,0 l/m 3,4 km/h (1 Bft) SW 228 2 min 0,000 mm 0,5 UV-I 229 W/m 8,2 C 10,6 C 4,8 km/h (1 Bft) 100,00 %
28.09.2018 08:44 10,7 C 14,4 C 8,9 C 85 % 1021,0 hPa 0,0 l/m 4,7 km/h (1 Bft) SW 228 2 min 0,000 mm 0,5 UV-I 234 W/m 8,3 C 10,7 C 6,4 km/h (2 Bft) 95,74 %
28.09.2018 08:46 10,8 C 14,4 C 8,9 C 84 % 1021,0 hPa 0,0 l/m 3,1 km/h (1 Bft) SW 228 2 min 0,000 mm 0,5 UV-I 240 W/m 8,2 C 10,8 C 4,8 km/h (1 Bft) 100,00 %
28.09.2018 08:48 10,8 C 14,4 C 8,9 C 84 % 1021,1 hPa 0,0 l/m 2,7 km/h (1 Bft) SW 228 2 min 0,000 mm 0,5 UV-I 245 W/m 8,2 C 10,8 C 3,2 km/h (1 Bft) 100,00 %
28.09.2018 08:50 10,9 C 14,4 C 8,9 C 83 % 1021,0 hPa 0,0 l/m 2,9 km/h (1 Bft) SW 228 2 min 0,000 mm 0,5 UV-I 250 W/m 8,1 C 10,9 C 3,2 km/h (1 Bft) 100,00 %
28.09.2018 08:52 11,0 C 14,4 C 8,9 C 83 % 1021,1 hPa 0,0 l/m 2,7 km/h (1 Bft) SW 228 2 min 0,000 mm 0,6 UV-I 256 W/m 8,2 C 11,0 C 3,2 km/h (1 Bft) 97,87 %
28.09.2018 08:54 11,2 C 14,4 C 9,4 C 82 % 1021,1 hPa 0,0 l/m 2,5 km/h (1 Bft) SW 228 2 min 0,000 mm 0,6 UV-I 260 W/m 8,2 C 11,2 C 3,2 km/h (1 Bft) 98,00 %
28.09.2018 08:56 11,2 C 14,4 C 9,4 C 81 % 1021,0 hPa 0,0 l/m 1,8 km/h (1 Bft) SW 228 2 min 0,000 mm 0,6 UV-I 266 W/m 8,1 C 11,2 C 3,2 km/h (1 Bft) 94,74 %
28.09.2018 08:58 11,3 C 14,4 C 9,4 C 80 % 1021,0 hPa 0,0 l/m 1,7 km/h (1 Bft) SW 228 2 min 0,000 mm 0,6 UV-I 270 W/m 8,0 C 11,3 C 3,2 km/h (1 Bft) 97,87 %
28.09.2018 09:00 11,4 C 14,4 C 9,4 C 80 % 1021,0 hPa 0,0 l/m 1,4 km/h (1 Bft) SW 228 2 min 0,102 mm 0,7 UV-I 276 W/m 8,1 C 11,4 C 3,2 km/h (1 Bft) 96,00 %
28.09.2018 09:02 11,6 C 14,4 C 9,4 C 81 % 1021,0 hPa 0,0 l/m 1,8 km/h (1 Bft) SW 228 2 min 0,000 mm 0,7 UV-I 280 W/m 8,5 C 11,6 C 3,2 km/h (1 Bft) 95,74 %
28.09.2018 09:04 11,7 C 14,4 C 9,4 C 81 % 1021,0 hPa 0,0 l/m 2,3 km/h (1 Bft) SW 228 2 min 0,000 mm 0,7 UV-I 286 W/m 8,5 C 11,7 C 3,2 km/h (1 Bft) 96,00 %
28.09.2018 09:06 11,8 C 14,4 C 9,4 C 80 % 1021,0 hPa 0,0 l/m 1,5 km/h (1 Bft) SW 228 2 min 0,000 mm 0,7 UV-I 291 W/m 8,5 C 11,8 C 3,2 km/h (1 Bft) 95,74 %
28.09.2018 09:08 11,9 C 14,4 C 9,4 C 80 % 1021,0 hPa 0,0 l/m 0,1 km/h (0 Bft) SW 228 2 min 0,000 mm 0,7 UV-I 296 W/m 8,6 C 11,9 C 1,6 km/h (1 Bft) 94,74 %
28.09.2018 09:10 12,2 C 14,4 C 9,4 C 80 % 1021,0 hPa 0,0 l/m 1,1 km/h (1 Bft) SW 228 2 min 0,000 mm 0,8 UV-I 301 W/m 8,9 C 12,2 C 1,6 km/h (1 Bft) 95,74 %
28.09.2018 09:12 12,2 C 14,4 C 10,0 C 78 % 1021,0 hPa 0,0 l/m 2,4 km/h (1 Bft) SW 228 2 min 0,000 mm 0,8 UV-I 308 W/m 8,5 C 12,2 C 4,8 km/h (1 Bft) 95,74 %
28.09.2018 09:14 12,2 C 14,4 C 10,0 C 77 % 1021,0 hPa 0,0 l/m 2,7 km/h (1 Bft) W-SW 248 2 min 0,000 mm 0,8 UV-I 311 W/m 8,3 C 12,2 C 4,8 km/h (1 Bft) 94,00 %
28.09.2018 09:16 12,2 C 14,4 C 10,0 C 76 % 1021,0 hPa 0,0 l/m 2,6 km/h (1 Bft) W-SW 248 2 min 0,000 mm 0,8 UV-I 316 W/m 8,1 C 12,2 C 4,8 km/h (1 Bft) 97,87 %
28.09.2018 09:18 12,2 C 14,4 C 10,0 C 75 % 1021,0 hPa 0,0 l/m 0,8 km/h (0 Bft) W-SW 248 2 min 0,000 mm 0,9 UV-I 321 W/m 7,9 C 12,2 C 3,2 km/h (1 Bft) 95,74 %
28.09.2018 09:20 12,3 C 14,4 C 10,0 C 75 % 1021,0 hPa 0,0 l/m 0,3 km/h (0 Bft) W-SW 248 2 min 0,000 mm 0,9 UV-I 326 W/m 8,0 C 12,3 C 1,6 km/h (1 Bft) 93,62 %
28.09.2018 09:22 12,4 C 14,4 C 10,6 C 76 % 1020,9 hPa 0,0 l/m 1,0 km/h (0 Bft) W-SW 246 2 min 0,000 mm 0,9 UV-I 331 W/m 8,3 C 12,4 C 3,2 km/h (1 Bft) 97,22 %
28.09.2018 09:24 12,6 C 14,4 C 10,6 C 75 % 1020,9 hPa 0,0 l/m 0,7 km/h (0 Bft) W-SW 246 2 min 0,000 mm 1,0 UV-I 334 W/m 8,3 C 12,6 C 1,6 km/h (1 Bft) 96,72 %
28.09.2018 09:26 12,6 C 14,4 C 10,6 C 74 % 1020,9 hPa 0,0 l/m 0,7 km/h (0 Bft) W-SW 246 2 min 0,000 mm 1,0 UV-I 339 W/m 8,1 C 12,6 C 1,6 km/h (1 Bft) 97,92 %
28.09.2018 09:28 12,7 C 14,4 C 10,6 C 75 % 1021,0 hPa 0,0 l/m 1,6 km/h (1 Bft) W-SW 246 2 min 0,000 mm 1,0 UV-I 344 W/m 8,4 C 12,7 C 3,2 km/h (1 Bft) 97,96 %
28.09.2018 09:30 13,0 C 14,4 C 10,6 C 74 % 1021,0 hPa 0,0 l/m 0,8 km/h (0 Bft) W-SW 246 2 min 0,000 mm 1,1 UV-I 349 W/m 8,5 C 13,0 C 1,6 km/h (1 Bft) 97,22 %
28.09.2018 09:32 13,2 C 14,4 C 10,6 C 75 % 1021,0 hPa 0,0 l/m 1,3 km/h (1 Bft) W-SW 246 2 min 0,000 mm 1,1 UV-I 352 W/m 8,9 C 13,2 C 1,6 km/h (1 Bft) 97,87 %
28.09.2018 09:34 13,2 C 14,4 C 10,6 C 73 % 1021,0 hPa 0,0 l/m 0,7 km/h (0 Bft) W-SW 246 2 min 0,000 mm 1,1 UV-I 357 W/m 8,5 C 13,2 C 1,6 km/h (1 Bft) 96,23 %
28.09.2018 09:36 13,4 C 14,4 C 11,1 C 74 % 1021,0 hPa 0,0 l/m 0,3 km/h (0 Bft) W-SW 246 2 min 0,000 mm 1,2 UV-I 361 W/m 8,9 C 13,4 C 1,6 km/h (1 Bft) 95,74 %
28.09.2018 09:38 13,4 C 14,4 C 11,1 C 74 % 1021,0 hPa 0,0 l/m 1,7 km/h (1 Bft) W-SW 246 2 min 0,000 mm 1,2 UV-I 366 W/m 8,9 C 13,4 C 3,2 km/h (1 Bft) 95,74 %
28.09.2018 09:40 13,3 C 14,4 C 11,7 C 73 % 1021,0 hPa 0,0 l/m 0,5 km/h (0 Bft) W-SW 246 2 min 0,000 mm 1,2 UV-I 370 W/m 8,6 C 13,3 C 1,6 km/h (1 Bft) 95,74 %
28.09.2018 09:42 13,3 C 14,4 C 11,7 C 74 % 1021,0 hPa 0,0 l/m 1,6 km/h (1 Bft) W-SW 246 2 min 0,000 mm 1,2 UV-I 374 W/m 8,8 C 13,3 C 4,8 km/h (1 Bft) 95,74 %
28.09.2018 09:44 13,4 C 14,4 C 11,7 C 73 % 1020,9 hPa 0,0 l/m 2,2 km/h (1 Bft) W-SW 246 2 min 0,000 mm 1,3 UV-I 379 W/m 8,7 C 13,4 C 4,8 km/h (1 Bft) 95,74 %
28.09.2018 09:46 13,4 C 14,4 C 12,2 C 73 % 1021,0 hPa 0,0 l/m 1,7 km/h (1 Bft) W-SW 246 2 min 0,000 mm 1,3 UV-I 385 W/m 8,7 C 13,4 C 4,8 km/h (1 Bft) 97,87 %
28.09.2018 09:48 13,4 C 14,4 C 12,2 C 73 % 1021,0 hPa 0,0 l/m 1,2 km/h (1 Bft) W-SW 245 2 min 0,000 mm 1,3 UV-I 388 W/m 8,7 C 13,4 C 3,2 km/h (1 Bft) 97,87 %
28.09.2018 09:50 13,4 C 14,4 C 12,8 C 73 % 1021,1 hPa 0,0 l/m 2,5 km/h (1 Bft) SW 235 2 min 0,000 mm 1,3 UV-I 393 W/m 8,7 C 13,4 C 4,8 km/h (1 Bft) 95,12 %
28.09.2018 09:52 13,4 C 14,4 C 12,8 C 72 % 1021,1 hPa 0,0 l/m 2,7 km/h (1 Bft) SW 235 2 min 0,000 mm 1,4 UV-I 398 W/m 8,5 C 13,4 C 4,8 km/h (1 Bft) 93,62 %
28.09.2018 09:54 13,7 C 14,4 C 13,3 C 73 % 1021,2 hPa 0,0 l/m 2,7 km/h (1 Bft) SW 235 2 min 0,000 mm 1,4 UV-I 402 W/m 8,9 C 13,7 C 4,8 km/h (1 Bft) 95,74 %
28.09.2018 09:56 13,8 C 14,4 C 13,9 C 72 % 1021,2 hPa 0,0 l/m 4,2 km/h (1 Bft) SW 236 2 min 0,000 mm 1,4 UV-I 406 W/m 8,8 C 13,8 C 4,8 km/h (1 Bft) 96,00 %
28.09.2018 09:58 13,7 C 14,4 C 14,4 C 72 % 1021,2 hPa 0,0 l/m 3,3 km/h (1 Bft) SW 233 2 min 0,000 mm 1,4 UV-I 411 W/m 8,7 C 13,7 C 6,4 km/h (2 Bft) 95,74 %
28.09.2018 10:00 13,7 C 14,4 C 15,6 C 72 % 1021,2 hPa 0,0 l/m 2,7 km/h (1 Bft) S-SW 213 2 min 0,178 mm 1,5 UV-I 414 W/m 8,7 C 13,7 C 4,8 km/h (1 Bft) 96,00 %
28.09.2018 10:02 13,8 C 14,4 C 16,1 C 72 % 1021,1 hPa 0,0 l/m 2,4 km/h (1 Bft) S-SW 213 2 min 0,000 mm 1,5 UV-I 417 W/m 8,8 C 13,8 C 4,8 km/h (1 Bft) 91,49 %
28.09.2018 10:04 13,9 C 14,4 C 16,7 C 73 % 1021,1 hPa 0,0 l/m 1,0 km/h (0 Bft) S-SW 213 2 min 0,000 mm 1,5 UV-I 422 W/m 9,1 C 13,9 C 3,2 km/h (1 Bft) 95,74 %
28.09.2018 10:06 14,1 C 14,4 C 18,3 C 72 % 1021,2 hPa 0,0 l/m 2,7 km/h (1 Bft) SW 226 2 min 0,000 mm 1,5 UV-I 424 W/m 9,1 C 14,1 C 3,2 km/h (1 Bft) 94,87 %
28.09.2018 10:08 14,2 C 14,4 C 20,0 C 72 % 1021,1 hPa 0,0 l/m 3,5 km/h (1 Bft) W-SW 245 2 min 0,000 mm 1,6 UV-I 428 W/m 9,2 C 14,2 C 4,8 km/h (1 Bft) 96,00 %
28.09.2018 10:10 14,3 C 14,4 C 21,7 C 72 % 1021,2 hPa 0,0 l/m 3,1 km/h (1 Bft) S-SW 200 2 min 0,000 mm 1,6 UV-I 432 W/m 9,3 C 14,3 C 4,8 km/h (1 Bft) 93,62 %
28.09.2018 10:12 14,3 C 14,4 C 22,2 C 72 % 1021,1 hPa 0,0 l/m 1,0 km/h (0 Bft) S-SW 200 2 min 0,000 mm 1,6 UV-I 436 W/m 9,3 C 14,3 C 4,8 km/h (1 Bft) 93,62 %
28.09.2018 10:14 14,3 C 14,4 C 23,3 C 72 % 1021,1 hPa 0,0 l/m 0,8 km/h (0 Bft) S-SW 200 2 min 0,000 mm 1,7 UV-I 438 W/m 9,3 C 14,3 C 1,6 km/h (1 Bft) 93,62 %
28.09.2018 10:16 14,3 C 14,4 C 23,9 C 71 % 1021,2 hPa 0,0 l/m 2,0 km/h (1 Bft) S-SW 201 2 min 0,000 mm 1,7 UV-I 440 W/m 9,1 C 14,3 C 3,2 km/h (1 Bft) 91,49 %
28.09.2018 10:18 14,5 C 14,4 C 25,0 C 71 % 1021,1 hPa 0,0 l/m 1,1 km/h (1 Bft) S-SW 201 2 min 0,000 mm 1,7 UV-I 446 W/m 9,3 C 14,5 C 3,2 km/h (1 Bft) 94,00 %
28.09.2018 10:20 14,8 C 14,4 C 25,6 C 70 % 1021,1 hPa 0,0 l/m 1,0 km/h (0 Bft) S-SW 201 2 min 0,000 mm 1,8 UV-I 451 W/m 9,4 C 14,8 C 3,2 km/h (1 Bft) 93,62 %
28.09.2018 10:22 14,6 C 14,4 C 25,6 C 70 % 1021,1 hPa 0,0 l/m 2,5 km/h (1 Bft) S-SW 201 2 min 0,000 mm 1,8 UV-I 453 W/m 9,2 C 14,6 C 4,8 km/h (1 Bft) 93,62 %
28.09.2018 10:24 14,7 C 14,4 C 26,7 C 71 % 1021,1 hPa 0,0 l/m 1,3 km/h (1 Bft) S-SW 201 2 min 0,000 mm 1,8 UV-I 458 W/m 9,5 C 14,7 C 3,2 km/h (1 Bft) 93,62 %
28.09.2018 10:26 14,8 C 14,4 C 27,2 C 70 % 1021,1 hPa 0,0 l/m 0,9 km/h (0 Bft) S-SW 201 2 min 0,000 mm 1,9 UV-I 463 W/m 9,4 C 14,8 C 1,6 km/h (1 Bft) 93,62 %
28.09.2018 10:28 14,7 C 14,4 C 27,8 C 69 % 1021,0 hPa 0,0 l/m 1,4 km/h (1 Bft) S-SW 201 2 min 0,000 mm 1,9 UV-I 468 W/m 9,1 C 14,7 C 3,2 km/h (1 Bft) 95,74 %
28.09.2018 10:30 14,8 C 14,4 C 28,3 C 70 % 1021,1 hPa 0,0 l/m 2,0 km/h (1 Bft) S-SW 200 2 min 0,000 mm 1,9 UV-I 472 W/m 9,4 C 14,8 C 3,2 km/h (1 Bft) 94,74 %
28.09.2018 10:32 15,0 C 14,4 C 28,3 C 70 % 1021,0 hPa 0,0 l/m 1,8 km/h (1 Bft) O-SO 111 2 min 0,000 mm 2,0 UV-I 477 W/m 9,6 C 15,0 C 4,8 km/h (1 Bft) 95,74 %
28.09.2018 10:34 15,2 C 14,4 C 28,9 C 68 % 1021,0 hPa 0,0 l/m 1,9 km/h (1 Bft) O-SO 112 2 min 0,000 mm 2,0 UV-I 480 W/m 9,3 C 15,2 C 4,8 km/h (1 Bft) 97,87 %
28.09.2018 10:36 15,2 C 14,4 C 29,4 C 68 % 1021,0 hPa 0,0 l/m 1,6 km/h (1 Bft) O-SO 111 2 min 0,000 mm 2,0 UV-I 484 W/m 9,3 C 15,2 C 4,8 km/h (1 Bft) 98,00 %
28.09.2018 10:38 15,6 C 14,4 C 29,4 C 72 % 1020,9 hPa 0,0 l/m 2,2 km/h (1 Bft) O-SO 111 2 min 0,000 mm 2,1 UV-I 486 W/m 10,6 C 15,6 C 3,2 km/h (1 Bft) 93,62 %
28.09.2018 10:40 15,9 C 14,4 C 30,0 C 69 % 1020,9 hPa 0,0 l/m 0,9 km/h (0 Bft) O-SO 111 2 min 0,000 mm 2,1 UV-I 490 W/m 10,2 C 15,9 C 1,6 km/h (1 Bft) 93,75 %
28.09.2018 10:42 16,1 C 14,4 C 30,0 C 67 % 1020,9 hPa 0,0 l/m 2,1 km/h (1 Bft) O-SO 111 2 min 0,000 mm 2,1 UV-I 492 W/m 10,0 C 16,1 C 3,2 km/h (1 Bft) 95,74 %
28.09.2018 10:44 16,2 C 14,4 C 30,0 C 67 % 1020,9 hPa 0,0 l/m 2,4 km/h (1 Bft) N-NO 26 2 min 0,000 mm 2,1 UV-I 495 W/m 10,1 C 16,2 C 4,8 km/h (1 Bft) 95,74 %
28.09.2018 10:46 16,2 C 14,4 C 30,0 C 68 % 1020,9 hPa 0,0 l/m 3,9 km/h (1 Bft) N-NW 336 2 min 0,000 mm 2,2 UV-I 500 W/m 10,3 C 16,2 C 4,8 km/h (1 Bft) 97,87 %
28.09.2018 10:48 16,2 C 14,4 C 29,4 C 67 % 1020,9 hPa 0,0 l/m 3,5 km/h (1 Bft) N-NW 340 2 min 0,000 mm 2,2 UV-I 502 W/m 10,1 C 16,2 C 4,8 km/h (1 Bft) 93,62 %
28.09.2018 10:50 16,2 C 14,4 C 29,4 C 68 % 1020,8 hPa 0,0 l/m 3,3 km/h (1 Bft) W-NW 303 2 min 0,000 mm 2,2 UV-I 505 W/m 10,3 C 16,2 C 6,4 km/h (2 Bft) 96,00 %
28.09.2018 10:52 16,2 C 14,4 C 28,9 C 68 % 1020,8 hPa 0,0 l/m 4,7 km/h (1 Bft) N 355 2 min 0,000 mm 2,2 UV-I 507 W/m 10,3 C 16,2 C 6,4 km/h (2 Bft) 95,74 %
28.09.2018 10:54 16,3 C 14,4 C 28,9 C 69 % 1020,8 hPa 0,0 l/m 3,9 km/h (1 Bft) N 355 2 min 0,000 mm 2,3 UV-I 511 W/m 10,6 C 16,3 C 6,4 km/h (2 Bft) 97,87 %
28.09.2018 10:56 16,3 C 14,4 C 28,9 C 69 % 1020,7 hPa 0,0 l/m 3,7 km/h (1 Bft) N 355 2 min 0,000 mm 2,3 UV-I 514 W/m 10,6 C 16,3 C 8,0 km/h (2 Bft) 97,87 %
28.09.2018 10:58 16,4 C 14,4 C 28,9 C 67 % 1020,7 hPa 0,0 l/m 4,3 km/h (1 Bft) N-NW 332 2 min 0,000 mm 2,3 UV-I 517 W/m 10,3 C 16,4 C 6,4 km/h (2 Bft) 97,37 %
28.09.2018 11:00 16,4 C 14,4 C 28,9 C 69 % 1020,7 hPa 0,0 l/m 4,3 km/h (1 Bft) NW 314 2 min 0,000 mm 2,3 UV-I 520 W/m 10,7 C 16,4 C 6,4 km/h (2 Bft) 98,00 %
28.09.2018 11:02 16,5 C 14,4 C 28,9 C 67 % 1020,7 hPa 0,0 l/m 4,6 km/h (1 Bft) N-NW 333 2 min 0,254 mm 2,4 UV-I 522 W/m 10,4 C 16,5 C 6,4 km/h (2 Bft) 96,00 %
28.09.2018 11:04 16,6 C 14,4 C 28,3 C 68 % 1020,7 hPa 0,0 l/m 5,2 km/h (1 Bft) N 9 2 min 0,000 mm 2,4 UV-I 525 W/m 10,7 C 16,6 C 6,4 km/h (2 Bft) 97,87 %
28.09.2018 11:06 16,7 C 14,4 C 27,8 C 71 % 1020,7 hPa 0,0 l/m 6,3 km/h (2 Bft) N-NW 338 2 min 0,000 mm 2,4 UV-I 526 W/m 11,4 C 16,7 C 11,3 km/h (2 Bft) 95,74 %
28.09.2018 11:08 16,8 C 14,4 C 27,8 C 69 % 1020,7 hPa 0,0 l/m 7,1 km/h (2 Bft) N-NO 19 2 min 0,000 mm 2,4 UV-I 529 W/m 11,1 C 16,4 C 11,3 km/h (2 Bft) 98,00 %
28.09.2018 11:10 17,0 C 14,4 C 27,8 C 69 % 1020,7 hPa 0,0 l/m 6,3 km/h (2 Bft) N-NO 16 2 min 0,000 mm 2,4 UV-I 533 W/m 11,3 C 17,0 C 9,7 km/h (2 Bft) 95,74 %
28.09.2018 11:12 17,1 C 14,4 C 27,8 C 68 % 1020,7 hPa 0,0 l/m 6,4 km/h (2 Bft) N-NO 32 2 min 0,000 mm 2,5 UV-I 534 W/m 11,1 C 17,1 C 9,7 km/h (2 Bft) 95,74 %
28.09.2018 11:14 17,2 C 14,4 C 27,8 C 69 % 1020,7 hPa 0,0 l/m 6,8 km/h (2 Bft) N-NO 26 2 min 0,000 mm 2,5 UV-I 536 W/m 11,5 C 17,0 C 9,7 km/h (2 Bft) 97,87 %
28.09.2018 11:16 17,3 C 14,4 C 27,8 C 67 % 1020,7 hPa 0,0 l/m 6,2 km/h (2 Bft) N 360 2 min 0,000 mm 2,5 UV-I 539 W/m 11,1 C 17,3 C 9,7 km/h (2 Bft) 97,87 %
28.09.2018 11:18 17,2 C 14,4 C 27,8 C 69 % 1020,7 hPa 0,0 l/m 4,9 km/h (1 Bft) N-NO 21 2 min 0,000 mm 2,5 UV-I 540 W/m 11,5 C 17,2 C 8,0 km/h (2 Bft) 100,00 %
28.09.2018 11:20 17,3 C 14,4 C 28,3 C 68 % 1020,7 hPa 0,0 l/m 3,9 km/h (1 Bft) N-NO 31 2 min 0,000 mm 2,6 UV-I 542 W/m 11,3 C 17,3 C 6,4 km/h (2 Bft) 98,11 %
28.09.2018 11:22 17,4 C 14,4 C 28,9 C 67 % 1020,7 hPa 0,0 l/m 3,1 km/h (1 Bft) N-NW 327 2 min 0,000 mm 2,6 UV-I 546 W/m 11,2 C 17,4 C 4,8 km/h (1 Bft) 97,87 %
28.09.2018 11:24 17,5 C 14,4 C 29,4 C 64 % 1020,7 hPa 0,0 l/m 4,0 km/h (1 Bft) W-NW 298 2 min 0,000 mm 2,6 UV-I 547 W/m 10,6 C 17,5 C 6,4 km/h (2 Bft) 98,00 %
28.09.2018 11:26 17,4 C 14,4 C 30,0 C 63 % 1020,7 hPa 0,0 l/m 3,2 km/h (1 Bft) W-NW 298 2 min 0,000 mm 2,6 UV-I 548 W/m 10,3 C 17,4 C 4,8 km/h (1 Bft) 95,74 %
28.09.2018 11:28 17,4 C 15,0 C 30,0 C 65 % 1020,7 hPa 0,0 l/m 2,7 km/h (1 Bft) N-NW 336 2 min 0,000 mm 2,7 UV-I 552 W/m 10,8 C 17,4 C 6,4 km/h (2 Bft) 97,87 %
28.09.2018 11:30 17,6 C 14,4 C 29,4 C 68 % 1020,7 hPa 0,0 l/m 5,3 km/h (1 Bft) N-NO 24 2 min 0,000 mm 2,7 UV-I 555 W/m 11,6 C 17,6 C 8,0 km/h (2 Bft) 93,62 %
28.09.2018 11:32 17,9 C 15,0 C 29,4 C 67 % 1020,6 hPa 0,0 l/m 5,1 km/h (1 Bft) W-NW 297 2 min 0,000 mm 2,7 UV-I 557 W/m 11,7 C 17,9 C 11,3 km/h (2 Bft) 93,62 %
28.09.2018 11:34 17,8 C 14,4 C 28,9 C 62 % 1020,6 hPa 0,0 l/m 4,5 km/h (1 Bft) W 268 2 min 0,000 mm 2,7 UV-I 557 W/m 10,4 C 17,8 C 8,0 km/h (2 Bft) 94,29 %
28.09.2018 11:36 17,6 C 14,4 C 29,4 C 63 % 1020,5 hPa 0,0 l/m 2,6 km/h (1 Bft) N-NW 336 2 min 0,000 mm 2,8 UV-I 561 W/m 10,5 C 17,6 C 6,4 km/h (2 Bft) 90,00 %
28.09.2018 11:38 17,6 C 15,0 C 29,4 C 63 % 1020,5 hPa 0,0 l/m 5,1 km/h (1 Bft) N-NW 335 2 min 0,000 mm 2,8 UV-I 561 W/m 10,5 C 17,6 C 6,4 km/h (2 Bft) 91,49 %
28.09.2018 11:40 17,7 C 15,0 C 29,4 C 62 % 1020,5 hPa 0,0 l/m 3,5 km/h (1 Bft) N 360 2 min 0,000 mm 2,8 UV-I 565 W/m 10,3 C 17,7 C 6,4 km/h (2 Bft) 93,62 %
28.09.2018 11:42 17,6 C 15,0 C 29,4 C 64 % 1020,5 hPa 0,0 l/m 5,2 km/h (1 Bft) NW 310 2 min 0,000 mm 2,8 UV-I 568 W/m 10,7 C 17,6 C 8,0 km/h (2 Bft) 91,49 %
28.09.2018 11:44 17,6 C 15,0 C 30,0 C 63 % 1020,5 hPa 0,0 l/m 3,4 km/h (1 Bft) NW 311 2 min 0,000 mm 2,8 UV-I 568 W/m 10,5 C 17,6 C 4,8 km/h (1 Bft) 91,49 %
28.09.2018 11:46 17,7 C 15,0 C 30,0 C 65 % 1020,5 hPa 0,0 l/m 3,5 km/h (1 Bft) NW 320 2 min 0,000 mm 2,9 UV-I 570 W/m 11,0 C 17,7 C 4,8 km/h (1 Bft) 93,62 %
28.09.2018 11:48 17,7 C 15,0 C 30,0 C 62 % 1020,5 hPa 0,0 l/m 2,5 km/h (1 Bft) N-NW 338 2 min 0,000 mm 2,9 UV-I 571 W/m 10,3 C 17,7 C 4,8 km/h (1 Bft) 93,62 %
28.09.2018 11:50 17,8 C 15,0 C 30,6 C 63 % 1020,4 hPa 0,0 l/m 3,5 km/h (1 Bft) N-NO 15 2 min 0,000 mm 2,9 UV-I 575 W/m 10,7 C 17,8 C 6,4 km/h (2 Bft) 91,49 %
28.09.2018 11:52 17,9 C 15,0 C 30,6 C 65 % 1020,3 hPa 0,0 l/m 3,7 km/h (1 Bft) N 355 2 min 0,000 mm 2,9 UV-I 577 W/m 11,2 C 17,9 C 6,4 km/h (2 Bft) 91,67 %
28.09.2018 11:54 18,1 C 15,0 C 30,6 C 64 % 1020,3 hPa 0,0 l/m 6,3 km/h (2 Bft) N 360 2 min 0,000 mm 2,9 UV-I 552 W/m 11,2 C 18,1 C 8,0 km/h (2 Bft) 95,92 %
28.09.2018 11:56 18,1 C 15,0 C 31,1 C 63 % 1020,2 hPa 0,0 l/m 4,8 km/h (1 Bft) N-NW 328 2 min 0,000 mm 3,0 UV-I 571 W/m 10,9 C 18,1 C 6,4 km/h (2 Bft) 87,50 %
28.09.2018 11:58 18,2 C 15,0 C 30,6 C 65 % 1020,3 hPa 0,0 l/m 4,2 km/h (1 Bft) N 5 2 min 0,000 mm 3,0 UV-I 579 W/m 11,5 C 18,2 C 8,0 km/h (2 Bft) 93,62 %
28.09.2018 12:00 18,3 C 15,0 C 31,1 C 64 % 1020,2 hPa 0,0 l/m 3,8 km/h (1 Bft) N 355 2 min 0,330 mm 3,0 UV-I 540 W/m 11,4 C 18,3 C 11,3 km/h (2 Bft) 93,62 %
28.09.2018 12:02 18,3 C 15,0 C 31,7 C 63 % 1020,2 hPa 0,0 l/m 1,0 km/h (0 Bft) N 355 2 min 0,000 mm 3,0 UV-I 575 W/m 11,1 C 18,3 C 3,2 km/h (1 Bft) 97,87 %
28.09.2018 12:04 18,2 C 15,0 C 30,6 C 62 % 1020,1 hPa 0,0 l/m 3,4 km/h (1 Bft) N-NW 333 2 min 0,000 mm 3,0 UV-I 575 W/m 10,8 C 18,2 C 6,4 km/h (2 Bft) 97,87 %
28.09.2018 12:06 18,3 C 15,0 C 30,6 C 62 % 1020,1 hPa 0,0 l/m 3,3 km/h (1 Bft) NO 35 2 min 0,000 mm 3,0 UV-I 582 W/m 10,9 C 18,3 C 6,4 km/h (2 Bft) 97,56 %
28.09.2018 12:08 18,4 C 15,0 C 30,6 C 63 % 1020,1 hPa 0,0 l/m 5,9 km/h (2 Bft) W-NW 299 2 min 0,000 mm 3,0 UV-I 584 W/m 11,2 C 18,4 C 8,0 km/h (2 Bft) 95,74 %
28.09.2018 12:10 18,4 C 15,0 C 30,6 C 62 % 1020,1 hPa 0,0 l/m 3,1 km/h (1 Bft) O 80 2 min 0,000 mm 3,1 UV-I 585 W/m 11,0 C 18,4 C 4,8 km/h (1 Bft) 97,87 %
28.09.2018 12:12 18,7 C 15,0 C 31,1 C 65 % 1020,0 hPa 0,0 l/m 4,9 km/h (1 Bft) N 355 2 min 0,000 mm 2,8 UV-I 590 W/m 12,0 C 18,7 C 8,0 km/h (2 Bft) 100,00 %
28.09.2018 12:14 18,9 C 15,0 C 30,6 C 65 % 1020,0 hPa 0,0 l/m 6,5 km/h (2 Bft) N-NO 20 2 min 0,000 mm 3,1 UV-I 590 W/m 12,2 C 18,9 C 11,3 km/h (2 Bft) 100,00 %
28.09.2018 12:16 18,9 C 15,0 C 30,0 C 64 % 1019,9 hPa 0,0 l/m 6,7 km/h (2 Bft) NO 40 2 min 0,000 mm 3,1 UV-I 591 W/m 11,9 C 18,8 C 9,7 km/h (2 Bft) 98,00 %
28.09.2018 12:18 18,9 C 15,0 C 30,6 C 63 % 1019,9 hPa 0,0 l/m 5,5 km/h (1 Bft) NO 53 2 min 0,000 mm 3,1 UV-I 589 W/m 11,7 C 18,9 C 8,0 km/h (2 Bft) 100,00 %
28.09.2018 12:20 18,9 C 15,0 C 30,6 C 61 % 1019,9 hPa 0,0 l/m 7,8 km/h (2 Bft) N-NW 340 2 min 0,000 mm 3,1 UV-I 591 W/m 11,2 C 18,3 C 11,3 km/h (2 Bft) 100,00 %
28.09.2018 12:22 18,9 C 15,0 C 30,6 C 61 % 1019,9 hPa 0,0 l/m 3,5 km/h (1 Bft) N-NO 15 2 min 0,000 mm 3,1 UV-I 592 W/m 11,2 C 18,9 C 6,4 km/h (2 Bft) 97,87 %
28.09.2018 12:24 18,9 C 15,0 C 30,6 C 61 % 1019,9 hPa 0,0 l/m 4,5 km/h (1 Bft) N-NW 332 2 min 0,000 mm 3,1 UV-I 594 W/m 11,2 C 18,9 C 9,7 km/h (2 Bft) 100,00 %
28.09.2018 12:26 18,9 C 15,0 C 30,6 C 63 % 1019,9 hPa 0,0 l/m 4,9 km/h (1 Bft) N-NW 348 2 min 0,000 mm 3,1 UV-I 595 W/m 11,7 C 18,9 C 8,0 km/h (2 Bft) 100,00 %
28.09.2018 12:28 19,0 C 15,0 C 31,1 C 62 % 1019,9 hPa 0,0 l/m 4,0 km/h (1 Bft) W-NW 302 2 min 0,000 mm 3,1 UV-I 595 W/m 11,6 C 19,0 C 6,4 km/h (2 Bft) 100,00 %
28.09.2018 12:30 19,1 C 15,0 C 31,1 C 61 % 1019,8 hPa 0,0 l/m 4,5 km/h (1 Bft) N 360 2 min 0,000 mm 3,1 UV-I 596 W/m 11,4 C 19,1 C 6,4 km/h (2 Bft) 100,00 %
28.09.2018 12:32 19,1 C 15,0 C 31,1 C 61 % 1019,8 hPa 0,0 l/m 3,6 km/h (1 Bft) NW 312 2 min 0,000 mm 3,1 UV-I 595 W/m 11,4 C 19,1 C 6,4 km/h (2 Bft) 100,00 %
28.09.2018 12:34 19,1 C 15,0 C 31,1 C 60 % 1019,8 hPa 0,0 l/m 4,3 km/h (1 Bft) W-SW 241 2 min 0,000 mm 3,1 UV-I 596 W/m 11,1 C 19,1 C 6,4 km/h (2 Bft) 100,00 %
28.09.2018 12:36 19,1 C 15,0 C 31,7 C 62 % 1019,7 hPa 0,0 l/m 6,8 km/h (2 Bft) N-NW 342 2 min 0,000 mm 3,2 UV-I 597 W/m 11,6 C 18,9 C 12,9 km/h (3 Bft) 100,00 %
28.09.2018 12:38 19,1 C 15,0 C 31,1 C 62 % 1019,7 hPa 0,0 l/m 4,5 km/h (1 Bft) N-NW 333 2 min 0,000 mm 3,2 UV-I 595 W/m 11,6 C 19,1 C 8,0 km/h (2 Bft) 95,74 %
28.09.2018 12:40 19,1 C 15,0 C 31,7 C 62 % 1019,7 hPa 0,0 l/m 3,8 km/h (1 Bft) NW 323 2 min 0,000 mm 3,2 UV-I 595 W/m 11,6 C 19,1 C 6,4 km/h (2 Bft) 100,00 %
28.09.2018 12:42 19,2 C 15,0 C 31,7 C 61 % 1019,6 hPa 0,0 l/m 3,5 km/h (1 Bft) N 360 2 min 0,000 mm 3,1 UV-I 593 W/m 11,5 C 19,2 C 6,4 km/h (2 Bft) 95,74 %
28.09.2018 12:44 19,4 C 15,0 C 31,7 C 61 % 1019,6 hPa 0,0 l/m 3,2 km/h (1 Bft) N 349 2 min 0,000 mm 3,1 UV-I 592 W/m 11,7 C 19,4 C 6,4 km/h (2 Bft) 95,74 %
28.09.2018 12:46 19,7 C 15,0 C 32,2 C 64 % 1019,6 hPa 0,0 l/m 1,4 km/h (1 Bft) N 351 2 min 0,000 mm 3,2 UV-I 591 W/m 12,7 C 19,7 C 4,8 km/h (1 Bft) 95,74 %
28.09.2018 12:48 19,8 C 15,0 C 32,8 C 61 % 1019,5 hPa 0,0 l/m 3,2 km/h (1 Bft) N-NO 20 2 min 0,000 mm 3,2 UV-I 595 W/m 12,1 C 19,8 C 6,4 km/h (2 Bft) 100,00 %
28.09.2018 12:50 19,9 C 15,0 C 32,8 C 62 % 1019,5 hPa 0,0 l/m 4,0 km/h (1 Bft) W 263 2 min 0,000 mm 3,2 UV-I 582 W/m 12,4 C 19,9 C 11,3 km/h (2 Bft) 98,00 %
28.09.2018 12:52 20,0 C 15,0 C 32,2 C 61 % 1019,5 hPa 0,0 l/m 4,8 km/h (1 Bft) W-NW 282 2 min 0,000 mm 3,2 UV-I 590 W/m 12,2 C 20,0 C 8,0 km/h (2 Bft) 97,87 %
28.09.2018 12:54 20,1 C 15,0 C 32,2 C 61 % 1019,5 hPa 0,0 l/m 3,9 km/h (1 Bft) N-NW 346 2 min 0,000 mm 3,2 UV-I 594 W/m 12,3 C 20,1 C 6,4 km/h (2 Bft) 97,87 %
28.09.2018 12:56 20,0 C 15,0 C 32,2 C 61 % 1019,5 hPa 0,0 l/m 5,4 km/h (1 Bft) N-NO 13 2 min 0,000 mm 3,2 UV-I 596 W/m 12,2 C 20,0 C 12,9 km/h (3 Bft) 100,00 %
28.09.2018 12:58 20,1 C 15,0 C 32,2 C 61 % 1019,5 hPa 0,0 l/m 3,5 km/h (1 Bft) N-NW 336 2 min 0,000 mm 3,2 UV-I 597 W/m 12,3 C 20,1 C 8,0 km/h (2 Bft) 100,00 %
28.09.2018 13:00 20,2 C 15,0 C 31,7 C 60 % 1019,5 hPa 0,0 l/m 5,9 km/h (2 Bft) W-NW 301 2 min 0,356 mm 3,2 UV-I 596 W/m 12,2 C 20,2 C 11,3 km/h (2 Bft) 100,00 %
28.09.2018 13:02 20,2 C 15,0 C 32,2 C 61 % 1019,5 hPa 0,0 l/m 5,0 km/h (1 Bft) N-NW 329 2 min 0,000 mm 3,2 UV-I 596 W/m 12,4 C 20,2 C 9,7 km/h (2 Bft) 97,87 %
28.09.2018 13:04 20,3 C 15,0 C 31,7 C 61 % 1019,4 hPa 0,0 l/m 3,9 km/h (1 Bft) N-NO 31 2 min 0,000 mm 3,2 UV-I 596 W/m 12,5 C 20,3 C 14,5 km/h (3 Bft) 97,87 %
28.09.2018 13:06 20,4 C 15,0 C 31,1 C 61 % 1019,4 hPa 0,0 l/m 7,6 km/h (2 Bft) N-NW 333 2 min 0,000 mm 3,2 UV-I 594 W/m 12,6 C 19,9 C 16,1 km/h (3 Bft) 95,74 %
28.09.2018 13:08 20,4 C 15,0 C 31,7 C 61 % 1019,4 hPa 0,0 l/m 5,3 km/h (1 Bft) NW 304 2 min 0,000 mm 3,2 UV-I 593 W/m 12,6 C 20,4 C 12,9 km/h (3 Bft) 97,87 %
28.09.2018 13:10 20,4 C 15,0 C 31,1 C 59 % 1019,4 hPa 0,0 l/m 4,6 km/h (1 Bft) NW 326 2 min 0,000 mm 3,2 UV-I 592 W/m 12,1 C 20,4 C 8,0 km/h (2 Bft) 97,92 %
28.09.2018 13:12 20,4 C 15,0 C 31,7 C 59 % 1019,4 hPa 0,0 l/m 4,5 km/h (1 Bft) N-NO 26 2 min 0,000 mm 3,2 UV-I 593 W/m 12,1 C 20,4 C 8,0 km/h (2 Bft) 97,87 %
28.09.2018 13:14 20,5 C 15,0 C 31,7 C 61 % 1019,3 hPa 0,0 l/m 5,2 km/h (1 Bft) N 355 2 min 0,000 mm 3,2 UV-I 593 W/m 12,7 C 20,5 C 11,3 km/h (2 Bft) 96,00 %
28.09.2018 13:16 20,5 C 15,0 C 31,1 C 59 % 1019,3 hPa 0,0 l/m 5,2 km/h (1 Bft) N-NW 342 2 min 0,000 mm 3,2 UV-I 592 W/m 12,2 C 20,5 C 12,9 km/h (3 Bft) 91,49 %
28.09.2018 13:18 20,6 C 15,0 C 31,1 C 60 % 1019,2 hPa 0,0 l/m 3,0 km/h (1 Bft) W-SW 238 2 min 0,000 mm 3,1 UV-I 591 W/m 12,6 C 20,6 C 6,4 km/h (2 Bft) 95,74 %
28.09.2018 13:20 20,8 C 15,0 C 32,2 C 60 % 1019,2 hPa 0,0 l/m 4,2 km/h (1 Bft) NW 326 2 min 0,000 mm 3,1 UV-I 591 W/m 12,7 C 20,8 C 9,7 km/h (2 Bft) 93,62 %
28.09.2018 13:22 20,9 C 15,0 C 31,1 C 58 % 1019,2 hPa 0,0 l/m 8,6 km/h (2 Bft) W 259 2 min 0,000 mm 3,2 UV-I 592 W/m 12,3 C 20,1 C 14,5 km/h (3 Bft) 96,00 %
28.09.2018 13:24 20,9 C 15,0 C 31,7 C 59 % 1019,2 hPa 0,0 l/m 4,7 km/h (1 Bft) W-NW 303 2 min 0,000 mm 3,2 UV-I 592 W/m 12,6 C 20,9 C 8,0 km/h (2 Bft) 95,74 %
28.09.2018 13:26 21,1 C 15,0 C 32,2 C 60 % 1019,2 hPa 0,0 l/m 4,5 km/h (1 Bft) W-SW 241 2 min 0,000 mm 3,2 UV-I 593 W/m 13,0 C 21,1 C 9,7 km/h (2 Bft) 93,62 %
28.09.2018 13:28 21,1 C 15,0 C 32,8 C 58 % 1019,2 hPa 0,0 l/m 5,0 km/h (1 Bft) W 264 2 min 0,000 mm 3,2 UV-I 593 W/m 12,5 C 21,1 C 8,0 km/h (2 Bft) 93,62 %
28.09.2018 13:30 21,1 C 15,0 C 32,2 C 57 % 1019,1 hPa 0,0 l/m 5,3 km/h (1 Bft) SW 236 2 min 0,000 mm 3,1 UV-I 589 W/m 12,2 C 21,1 C 8,0 km/h (2 Bft) 97,14 %
28.09.2018 13:32 21,0 C 15,0 C 32,2 C 57 % 1019,1 hPa 0,0 l/m 8,1 km/h (2 Bft) N-NW 327 2 min 0,000 mm 3,1 UV-I 588 W/m 12,1 C 20,4 C 16,1 km/h (3 Bft) 96,08 %
28.09.2018 13:34 21,1 C 15,0 C 32,2 C 57 % 1019,1 hPa 0,0 l/m 4,4 km/h (1 Bft) N-NW 329 2 min 0,000 mm 3,1 UV-I 589 W/m 12,2 C 21,1 C 9,7 km/h (2 Bft) 98,00 %
28.09.2018 13:36 21,0 C 15,0 C 32,2 C 55 % 1019,1 hPa 0,0 l/m 5,1 km/h (1 Bft) NW 310 2 min 0,000 mm 3,1 UV-I 590 W/m 11,6 C 21,0 C 8,0 km/h (2 Bft) 96,00 %
28.09.2018 13:38 21,1 C 15,0 C 32,2 C 56 % 1019,1 hPa 0,0 l/m 3,4 km/h (1 Bft) W 263 2 min 0,000 mm 3,1 UV-I 590 W/m 12,0 C 21,1 C 6,4 km/h (2 Bft) 97,87 %
28.09.2018 13:40 21,2 C 15,0 C 32,2 C 58 % 1019,1 hPa 0,0 l/m 2,9 km/h (1 Bft) O-SO 119 2 min 0,000 mm 3,1 UV-I 591 W/m 12,6 C 21,2 C 4,8 km/h (1 Bft) 95,74 %
28.09.2018 13:42 21,6 C 15,0 C 33,3 C 57 % 1019,1 hPa 0,0 l/m 2,0 km/h (1 Bft) W-NW 292 2 min 0,000 mm 3,1 UV-I 590 W/m 12,7 C 21,6 C 6,4 km/h (2 Bft) 97,87 %
28.09.2018 13:44 21,6 C 15,0 C 33,3 C 54 % 1019,0 hPa 0,0 l/m 2,5 km/h (1 Bft) N 5 2 min 0,000 mm 3,1 UV-I 588 W/m 11,9 C 21,6 C 9,7 km/h (2 Bft) 97,37 %
28.09.2018 13:46 21,5 C 15,0 C 33,9 C 53 % 1018,9 hPa 0,0 l/m 2,5 km/h (1 Bft) N-NO 13 2 min 0,000 mm 3,1 UV-I 585 W/m 11,5 C 21,5 C 8,0 km/h (2 Bft) 98,00 %
28.09.2018 13:48 21,6 C 15,0 C 33,3 C 53 % 1018,9 hPa 0,0 l/m 7,5 km/h (2 Bft) W-NW 287 2 min 0,000 mm 3,1 UV-I 593 W/m 11,6 C 21,2 C 12,9 km/h (3 Bft) 95,83 %
28.09.2018 13:50 21,5 C 15,0 C 33,3 C 53 % 1018,9 hPa 0,0 l/m 5,6 km/h (1 Bft) W 265 2 min 0,000 mm 3,1 UV-I 592 W/m 11,5 C 21,5 C 9,7 km/h (2 Bft) 97,87 %
28.09.2018 13:52 21,6 C 15,0 C 32,8 C 49 % 1018,9 hPa 0,0 l/m 7,7 km/h (2 Bft) W-NW 285 2 min 0,000 mm 3,0 UV-I 591 W/m 10,4 C 21,1 C 12,9 km/h (3 Bft) 95,74 %
28.09.2018 13:54 21,7 C 15,0 C 32,8 C 53 % 1018,9 hPa 0,0 l/m 5,4 km/h (1 Bft) NW 319 2 min 0,000 mm 3,0 UV-I 590 W/m 11,7 C 21,7 C 9,7 km/h (2 Bft) 100,00 %
28.09.2018 13:56 21,9 C 15,0 C 32,8 C 51 % 1018,8 hPa 0,0 l/m 3,4 km/h (1 Bft) W 264 2 min 0,000 mm 3,0 UV-I 589 W/m 11,3 C 21,9 C 6,4 km/h (2 Bft) 100,00 %
28.09.2018 13:58 22,1 C 15,0 C 32,2 C 51 % 1018,8 hPa 0,0 l/m 10,4 km/h (2 Bft) W-SW 255 2 min 0,000 mm 3,0 UV-I 590 W/m 11,5 C 20,9 C 17,7 km/h (3 Bft) 97,87 %
28.09.2018 14:00 22,0 C 15,0 C 32,2 C 51 % 1018,7 hPa 0,0 l/m 5,6 km/h (1 Bft) N-NW 340 2 min 0,381 mm 2,9 UV-I 588 W/m 11,4 C 22,0 C 9,7 km/h (2 Bft) 100,00 %
28.09.2018 14:02 21,8 C 15,0 C 32,2 C 52 % 1018,8 hPa 0,0 l/m 4,6 km/h (1 Bft) N 351 2 min 0,000 mm 2,9 UV-I 590 W/m 11,5 C 21,8 C 9,7 km/h (2 Bft) 100,00 %
28.09.2018 14:04 21,7 C 15,0 C 31,7 C 51 % 1018,8 hPa 0,0 l/m 5,3 km/h (1 Bft) W-NW 301 2 min 0,000 mm 2,9 UV-I 592 W/m 11,1 C 21,7 C 8,0 km/h (2 Bft) 97,87 %
28.09.2018 14:06 21,6 C 15,0 C 31,1 C 50 % 1018,7 hPa 0,0 l/m 8,1 km/h (2 Bft) NW 325 2 min 0,000 mm 2,8 UV-I 565 W/m 10,7 C 21,0 C 19,3 km/h (3 Bft) 100,00 %
28.09.2018 14:08 21,6 C 15,0 C 30,6 C 51 % 1018,7 hPa 0,0 l/m 4,1 km/h (1 Bft) NW 316 2 min 0,000 mm 2,8 UV-I 547 W/m 11,0 C 21,6 C 9,7 km/h (2 Bft) 100,00 %
28.09.2018 14:10 21,7 C 15,0 C 31,1 C 50 % 1018,7 hPa 0,0 l/m 3,8 km/h (1 Bft) W 260 2 min 0,000 mm 2,8 UV-I 632 W/m 10,8 C 21,7 C 11,3 km/h (2 Bft) 97,87 %
28.09.2018 14:12 21,6 C 15,0 C 30,0 C 49 % 1018,8 hPa 0,0 l/m 7,3 km/h (2 Bft) NW 315 2 min 0,000 mm 2,8 UV-I 618 W/m 10,4 C 21,3 C 17,7 km/h (3 Bft) 94,74 %
28.09.2018 14:14 21,4 C 15,0 C 29,4 C 50 % 1018,7 hPa 0,0 l/m 5,0 km/h (1 Bft) N-NO 14 2 min 0,000 mm 2,8 UV-I 598 W/m 10,5 C 21,4 C 11,3 km/h (2 Bft) 100,00 %
28.09.2018 14:16 21,4 C 15,0 C 30,0 C 50 % 1018,7 hPa 0,0 l/m 5,1 km/h (1 Bft) N-NW 328 2 min 0,000 mm 2,8 UV-I 572 W/m 10,5 C 21,4 C 8,0 km/h (2 Bft) 100,00 %
28.09.2018 14:18 21,5 C 15,0 C 30,6 C 51 % 1018,7 hPa 0,0 l/m 6,0 km/h (2 Bft) W-SW 245 2 min 0,000 mm 2,7 UV-I 567 W/m 10,9 C 21,5 C 12,9 km/h (3 Bft) 100,00 %
28.09.2018 14:20 21,6 C 15,0 C 30,6 C 52 % 1018,7 hPa 0,0 l/m 5,3 km/h (1 Bft) N-NW 329 2 min 0,000 mm 2,7 UV-I 550 W/m 11,3 C 21,6 C 11,3 km/h (2 Bft) 100,00 %
28.09.2018 14:22 21,7 C 15,0 C 30,0 C 52 % 1018,7 hPa 0,0 l/m 4,1 km/h (1 Bft) N-NO 17 2 min 0,000 mm 2,7 UV-I 572 W/m 11,4 C 21,7 C 8,0 km/h (2 Bft) 100,00 %
28.09.2018 14:24 21,5 C 15,0 C 30,0 C 50 % 1018,6 hPa 0,0 l/m 7,9 km/h (2 Bft) W-SW 252 2 min 0,000 mm 2,7 UV-I 584 W/m 10,6 C 21,0 C 19,3 km/h (3 Bft) 100,00 %
28.09.2018 14:26 21,4 C 15,0 C 30,0 C 51 % 1018,7 hPa 0,0 l/m 8,4 km/h (2 Bft) W-SW 240 2 min 0,000 mm 2,7 UV-I 598 W/m 10,8 C 20,7 C 14,5 km/h (3 Bft) 100,00 %
28.09.2018 14:28 21,6 C 15,0 C 30,6 C 51 % 1018,6 hPa 0,0 l/m 8,6 km/h (2 Bft) W 269 2 min 0,000 mm 2,7 UV-I 590 W/m 11,0 C 20,8 C 16,1 km/h (3 Bft) 100,00 %
28.09.2018 14:30 21,6 C 15,0 C 30,6 C 50 % 1018,6 hPa 0,0 l/m 10,5 km/h (2 Bft) W-SW 251 2 min 0,000 mm 2,6 UV-I 566 W/m 10,7 C 20,3 C 16,1 km/h (3 Bft) 100,00 %
28.09.2018 14:32 21,6 C 15,0 C 30,0 C 50 % 1018,6 hPa 0,0 l/m 6,6 km/h (2 Bft) W 277 2 min 0,000 mm 2,5 UV-I 539 W/m 10,7 C 21,5 C 14,5 km/h (3 Bft) 98,11 %
28.09.2018 14:34 21,4 C 15,0 C 29,4 C 50 % 1018,6 hPa 0,0 l/m 5,9 km/h (2 Bft) NW 305 2 min 0,000 mm 2,5 UV-I 541 W/m 10,5 C 21,4 C 14,5 km/h (3 Bft) 97,87 %
28.09.2018 14:36 21,5 C 15,0 C 28,9 C 53 % 1018,5 hPa 0,0 l/m 2,1 km/h (1 Bft) SW 227 2 min 0,000 mm 2,2 UV-I 532 W/m 11,5 C 21,5 C 4,8 km/h (1 Bft) 97,87 %
28.09.2018 14:38 21,7 C 15,0 C 28,3 C 52 % 1018,5 hPa 0,0 l/m 6,6 km/h (2 Bft) W 281 2 min 0,000 mm 2,4 UV-I 525 W/m 11,4 C 21,6 C 11,3 km/h (2 Bft) 96,00 %
28.09.2018 14:40 21,9 C 15,0 C 27,2 C 53 % 1018,5 hPa 0,0 l/m 5,8 km/h (2 Bft) SW 227 2 min 0,000 mm 2,5 UV-I 522 W/m 11,9 C 21,9 C 16,1 km/h (3 Bft) 93,62 %
28.09.2018 14:42 21,9 C 15,0 C 26,7 C 52 % 1018,5 hPa 0,0 l/m 4,1 km/h (1 Bft) N-NO 24 2 min 0,000 mm 2,5 UV-I 520 W/m 11,6 C 21,9 C 11,3 km/h (2 Bft) 100,00 %
28.09.2018 14:44 22,0 C 15,0 C 26,1 C 51 % 1018,4 hPa 0,0 l/m 5,6 km/h (1 Bft) N-NO 24 2 min 0,000 mm 2,4 UV-I 512 W/m 11,4 C 22,0 C 14,5 km/h (3 Bft) 95,74 %
28.09.2018 14:46 21,9 C 15,0 C 26,1 C 52 % 1018,4 hPa 0,0 l/m 5,1 km/h (1 Bft) W 274 2 min 0,000 mm 2,3 UV-I 507 W/m 11,6 C 21,9 C 12,9 km/h (3 Bft) 96,00 %
28.09.2018 14:48 21,7 C 15,0 C 25,6 C 51 % 1018,4 hPa 0,0 l/m 4,0 km/h (1 Bft) NW 312 2 min 0,000 mm 2,1 UV-I 505 W/m 11,1 C 21,7 C 8,0 km/h (2 Bft) 97,56 %
28.09.2018 14:50 21,6 C 15,0 C 25,0 C 51 % 1018,4 hPa 0,0 l/m 8,2 km/h (2 Bft) W-NW 284 2 min 0,000 mm 2,3 UV-I 499 W/m 11,0 C 21,0 C 14,5 km/h (3 Bft) 97,87 %
28.09.2018 14:52 21,5 C 15,0 C 24,4 C 51 % 1018,4 hPa 0,0 l/m 8,6 km/h (2 Bft) W-SW 256 2 min 0,000 mm 2,3 UV-I 495 W/m 10,9 C 20,7 C 16,1 km/h (3 Bft) 93,62 %
28.09.2018 14:54 21,5 C 15,0 C 24,4 C 51 % 1018,4 hPa 0,0 l/m 8,4 km/h (2 Bft) W-NW 282 2 min 0,000 mm 2,2 UV-I 494 W/m 10,9 C 20,8 C 16,1 km/h (3 Bft) 97,87 %
28.09.2018 14:56 21,6 C 15,0 C 24,4 C 51 % 1018,4 hPa 0,0 l/m 10,9 km/h (2 Bft) NW 309 2 min 0,000 mm 2,2 UV-I 490 W/m 11,0 C 20,2 C 17,7 km/h (3 Bft) 98,00 %
28.09.2018 14:58 21,6 C 15,0 C 23,9 C 53 % 1018,3 hPa 0,0 l/m 7,4 km/h (2 Bft) W-NW 292 2 min 0,000 mm 2,2 UV-I 487 W/m 11,6 C 21,2 C 12,9 km/h (3 Bft) 97,87 %
28.09.2018 15:00 21,6 C 15,0 C 24,4 C 51 % 1018,2 hPa 0,0 l/m 12,0 km/h (2 Bft) W 271 2 min 0,000 mm 2,2 UV-I 483 W/m 11,0 C 19,9 C 19,3 km/h (3 Bft) 98,00 %
28.09.2018 15:02 21,6 C 15,0 C 24,4 C 51 % 1018,2 hPa 0,0 l/m 6,9 km/h (2 Bft) W 259 2 min 0,381 mm 2,1 UV-I 479 W/m 11,0 C 21,4 C 14,5 km/h (3 Bft) 97,87 %
28.09.2018 15:04 21,6 C 15,0 C 24,4 C 51 % 1018,1 hPa 0,0 l/m 7,5 km/h (2 Bft) W 271 2 min 0,000 mm 2,1 UV-I 473 W/m 11,0 C 21,2 C 11,3 km/h (2 Bft) 97,92 %
28.09.2018 15:06 21,6 C 15,0 C 24,4 C 53 % 1018,0 hPa 0,0 l/m 5,7 km/h (1 Bft) W 281 2 min 0,000 mm 2,1 UV-I 472 W/m 11,6 C 21,6 C 11,3 km/h (2 Bft) 100,00 %
28.09.2018 15:08 21,6 C 15,0 C 24,4 C 52 % 1018,0 hPa 0,0 l/m 5,7 km/h (1 Bft) W-SW 242 2 min 0,000 mm 2,1 UV-I 470 W/m 11,3 C 21,6 C 12,9 km/h (3 Bft) 94,44 %
28.09.2018 15:10 21,7 C 15,0 C 25,0 C 52 % 1017,9 hPa 0,0 l/m 6,0 km/h (2 Bft) W-NW 286 2 min 0,000 mm 2,0 UV-I 468 W/m 11,4 C 21,7 C 11,3 km/h (2 Bft) 100,00 %
28.09.2018 15:12 21,7 C 15,0 C 25,0 C 52 % 1017,9 hPa 0,0 l/m 5,8 km/h (2 Bft) N-NW 333 2 min 0,000 mm 2,0 UV-I 463 W/m 11,4 C 21,7 C 12,9 km/h (3 Bft) 100,00 %
28.09.2018 15:14 21,7 C 15,0 C 24,4 C 53 % 1017,9 hPa 0,0 l/m 4,6 km/h (1 Bft) NW 307 2 min 0,000 mm 2,0 UV-I 460 W/m 11,7 C 21,7 C 12,9 km/h (3 Bft) 97,87 %
28.09.2018 15:16 21,8 C 15,0 C 25,0 C 53 % 1017,9 hPa 0,0 l/m 5,5 km/h (1 Bft) W-NW 284 2 min 0,000 mm 1,9 UV-I 455 W/m 11,8 C 21,8 C 11,3 km/h (2 Bft) 97,87 %
28.09.2018 15:18 21,8 C 15,0 C 25,6 C 52 % 1017,9 hPa 0,0 l/m 6,6 km/h (2 Bft) W-NW 284 2 min 0,000 mm 1,9 UV-I 451 W/m 11,5 C 21,7 C 12,9 km/h (3 Bft) 95,74 %
28.09.2018 15:20 21,8 C 15,0 C 25,0 C 50 % 1017,8 hPa 0,0 l/m 9,7 km/h (2 Bft) S-SW 213 2 min 0,000 mm 1,9 UV-I 445 W/m 10,9 C 20,7 C 17,7 km/h (3 Bft) 97,87 %
28.09.2018 15:22 21,8 C 15,0 C 23,9 C 52 % 1017,8 hPa 0,0 l/m 4,2 km/h (1 Bft) N-NO 16 2 min 0,000 mm 1,8 UV-I 438 W/m 11,5 C 21,8 C 6,4 km/h (2 Bft) 95,74 %
28.09.2018 15:24 21,8 C 15,0 C 23,9 C 51 % 1017,8 hPa 0,0 l/m 4,0 km/h (1 Bft) W 279 2 min 0,000 mm 1,8 UV-I 435 W/m 11,2 C 21,8 C 8,0 km/h (2 Bft) 98,00 %
28.09.2018 15:26 21,9 C 15,0 C 23,3 C 51 % 1017,8 hPa 0,0 l/m 2,3 km/h (1 Bft) N-NW 327 2 min 0,000 mm 1,8 UV-I 418 W/m 11,3 C 21,9 C 8,0 km/h (2 Bft) 97,87 %
28.09.2018 15:28 21,9 C 15,0 C 22,8 C 52 % 1017,8 hPa 0,0 l/m 3,5 km/h (1 Bft) NW 313 2 min 0,000 mm 1,8 UV-I 429 W/m 11,6 C 21,9 C 6,4 km/h (2 Bft) 98,11 %
28.09.2018 15:30 21,9 C 15,0 C 22,2 C 52 % 1017,7 hPa 0,0 l/m 5,1 km/h (1 Bft) W-NW 296 2 min 0,000 mm 1,7 UV-I 424 W/m 11,6 C 21,9 C 9,7 km/h (2 Bft) 97,87 %
28.09.2018 15:32 21,9 C 15,0 C 21,7 C 52 % 1017,7 hPa 0,0 l/m 5,2 km/h (1 Bft) N 9 2 min 0,000 mm 1,7 UV-I 421 W/m 11,6 C 21,9 C 11,3 km/h (2 Bft) 95,74 %
28.09.2018 15:34 21,8 C 15,0 C 21,1 C 53 % 1017,6 hPa 0,0 l/m 5,2 km/h (1 Bft) NW 310 2 min 0,000 mm 1,7 UV-I 421 W/m 11,8 C 21,8 C 11,3 km/h (2 Bft) 95,74 %
28.09.2018 15:36 21,7 C 15,0 C 21,1 C 51 % 1017,6 hPa 0,0 l/m 5,5 km/h (1 Bft) W-SW 258 2 min 0,000 mm 1,7 UV-I 416 W/m 11,1 C 21,7 C 14,5 km/h (3 Bft) 97,87 %
28.09.2018 15:38 21,7 C 15,0 C 21,1 C 51 % 1017,6 hPa 0,0 l/m 6,5 km/h (2 Bft) NW 311 2 min 0,000 mm 1,6 UV-I 407 W/m 11,1 C 21,7 C 12,9 km/h (3 Bft) 97,22 %
28.09.2018 15:40 21,6 C 15,0 C 20,6 C 51 % 1017,6 hPa 0,0 l/m 3,0 km/h (1 Bft) NW 317 2 min 0,000 mm 1,6 UV-I 405 W/m 11,0 C 21,6 C 6,4 km/h (2 Bft) 95,74 %
28.09.2018 15:42 21,7 C 15,0 C 20,6 C 53 % 1017,6 hPa 0,0 l/m 5,1 km/h (1 Bft) W 281 2 min 0,000 mm 1,6 UV-I 402 W/m 11,7 C 21,7 C 8,0 km/h (2 Bft) 97,87 %
28.09.2018 15:44 21,6 C 15,0 C 20,6 C 53 % 1017,6 hPa 0,0 l/m 8,6 km/h (2 Bft) NW 305 2 min 0,000 mm 1,5 UV-I 400 W/m 11,6 C 20,8 C 16,1 km/h (3 Bft) 95,74 %
28.09.2018 15:46 21,6 C 15,0 C 20,6 C 53 % 1017,7 hPa 0,0 l/m 7,1 km/h (2 Bft) W 261 2 min 0,000 mm 1,5 UV-I 398 W/m 11,6 C 21,3 C 14,5 km/h (3 Bft) 98,00 %
28.09.2018 15:48 21,6 C 15,0 C 20,6 C 52 % 1017,6 hPa 0,0 l/m 4,2 km/h (1 Bft) W 281 2 min 0,000 mm 1,5 UV-I 395 W/m 11,3 C 21,6 C 6,4 km/h (2 Bft) 97,87 %
28.09.2018 15:50 21,6 C 15,0 C 20,6 C 52 % 1017,6 hPa 0,0 l/m 5,3 km/h (1 Bft) N 11 2 min 0,000 mm 1,4 UV-I 389 W/m 11,3 C 21,6 C 9,7 km/h (2 Bft) 95,74 %
28.09.2018 15:52 21,7 C 15,0 C 20,6 C 51 % 1017,6 hPa 0,0 l/m 3,1 km/h (1 Bft) N 11 2 min 0,000 mm 1,4 UV-I 381 W/m 11,1 C 21,7 C 6,4 km/h (2 Bft) 100,00 %
28.09.2018 15:54 21,7 C 15,0 C 20,6 C 53 % 1017,6 hPa 0,0 l/m 1,8 km/h (1 Bft) NO 48 2 min 0,000 mm 1,4 UV-I 375 W/m 11,7 C 21,7 C 4,8 km/h (1 Bft) 100,00 %
28.09.2018 15:56 21,7 C 15,0 C 20,6 C 52 % 1017,6 hPa 0,0 l/m 6,2 km/h (2 Bft) W-SW 257 2 min 0,000 mm 1,3 UV-I 372 W/m 11,4 C 21,7 C 12,9 km/h (3 Bft) 100,00 %
28.09.2018 15:58 21,7 C 15,0 C 20,0 C 52 % 1017,6 hPa 0,0 l/m 3,4 km/h (1 Bft) W 275 2 min 0,000 mm 1,3 UV-I 369 W/m 11,4 C 21,7 C 12,9 km/h (3 Bft) 100,00 %
28.09.2018 16:00 21,6 C 15,0 C 20,0 C 52 % 1017,5 hPa 0,0 l/m 5,9 km/h (2 Bft) SW 229 2 min 0,279 mm 1,3 UV-I 367 W/m 11,3 C 21,6 C 11,3 km/h (2 Bft) 97,87 %
28.09.2018 16:02 21,7 C 15,0 C 20,0 C 51 % 1017,5 hPa 0,0 l/m 7,3 km/h (2 Bft) W-SW 258 2 min 0,000 mm 1,3 UV-I 363 W/m 11,1 C 21,4 C 14,5 km/h (3 Bft) 97,14 %
28.09.2018 16:04 21,6 C 15,0 C 20,0 C 50 % 1017,5 hPa 0,0 l/m 9,5 km/h (2 Bft) W-SW 251 2 min 0,000 mm 1,3 UV-I 355 W/m 10,7 C 20,6 C 19,3 km/h (3 Bft) 95,74 %
28.09.2018 16:06 21,7 C 15,0 C 20,0 C 51 % 1017,5 hPa 0,0 l/m 4,0 km/h (1 Bft) N-NW 345 2 min 0,000 mm 1,2 UV-I 347 W/m 11,1 C 21,7 C 6,4 km/h (2 Bft) 95,74 %
28.09.2018 16:08 21,6 C 15,0 C 20,0 C 51 % 1017,5 hPa 0,0 l/m 4,4 km/h (1 Bft) NW 317 2 min 0,000 mm 1,2 UV-I 344 W/m 11,0 C 21,6 C 9,7 km/h (2 Bft) 97,87 %
28.09.2018 16:10 21,6 C 15,0 C 20,0 C 52 % 1017,5 hPa 0,0 l/m 6,7 km/h (2 Bft) W 259 2 min 0,000 mm 1,2 UV-I 335 W/m 11,3 C 21,5 C 11,3 km/h (2 Bft) 97,87 %
28.09.2018 16:12 21,4 C 15,0 C 20,0 C 52 % 1017,5 hPa 0,0 l/m 5,6 km/h (1 Bft) W 277 2 min 0,000 mm 1,1 UV-I 332 W/m 11,1 C 21,4 C 14,5 km/h (3 Bft) 93,62 %
28.09.2018 16:14 21,4 C 15,0 C 20,0 C 52 % 1017,5 hPa 0,0 l/m 4,0 km/h (1 Bft) N-NO 24 2 min 0,000 mm 1,1 UV-I 328 W/m 11,1 C 21,4 C 8,0 km/h (2 Bft) 96,00 %
28.09.2018 16:16 21,4 C 15,0 C 20,0 C 54 % 1017,4 hPa 0,0 l/m 4,7 km/h (1 Bft) N-NO 15 2 min 0,000 mm 1,1 UV-I 321 W/m 11,7 C 21,4 C 12,9 km/h (3 Bft) 93,62 %
28.09.2018 16:18 21,3 C 15,0 C 19,4 C 53 % 1017,4 hPa 0,0 l/m 4,6 km/h (1 Bft) NW 311 2 min 0,000 mm 1,0 UV-I 312 W/m 11,3 C 21,3 C 8,0 km/h (2 Bft) 95,83 %
28.09.2018 16:20 21,3 C 15,0 C 19,4 C 52 % 1017,3 hPa 0,0 l/m 6,6 km/h (2 Bft) NW 311 2 min 0,000 mm 1,0 UV-I 307 W/m 11,0 C 21,2 C 14,5 km/h (3 Bft) 98,00 %
28.09.2018 16:22 21,2 C 15,0 C 19,4 C 53 % 1017,3 hPa 0,0 l/m 5,9 km/h (2 Bft) NO 53 2 min 0,000 mm 1,0 UV-I 305 W/m 11,2 C 21,2 C 11,3 km/h (2 Bft) 95,74 %
28.09.2018 16:24 21,2 C 15,0 C 19,4 C 53 % 1017,3 hPa 0,0 l/m 4,4 km/h (1 Bft) N 10 2 min 0,000 mm 1,0 UV-I 302 W/m 11,2 C 21,2 C 6,4 km/h (2 Bft) 93,62 %
28.09.2018 16:26 21,2 C 15,0 C 19,4 C 54 % 1017,3 hPa 0,0 l/m 2,6 km/h (1 Bft) W-SW 249 2 min 0,000 mm 0,9 UV-I 296 W/m 11,5 C 21,2 C 6,4 km/h (2 Bft) 93,62 %
28.09.2018 16:28 21,2 C 15,0 C 19,4 C 54 % 1017,3 hPa 0,0 l/m 3,3 km/h (1 Bft) N-NW 332 2 min 0,000 mm 0,9 UV-I 294 W/m 11,5 C 21,2 C 4,8 km/h (1 Bft) 94,00 %
28.09.2018 16:30 21,2 C 15,0 C 19,4 C 53 % 1017,3 hPa 0,0 l/m 5,7 km/h (1 Bft) N 5 2 min 0,000 mm 0,9 UV-I 289 W/m 11,2 C 21,2 C 12,9 km/h (3 Bft) 95,74 %
28.09.2018 16:32 21,2 C 15,0 C 19,4 C 53 % 1017,2 hPa 0,0 l/m 3,8 km/h (1 Bft) W-SW 248 2 min 0,000 mm 0,9 UV-I 283 W/m 11,2 C 21,2 C 8,0 km/h (2 Bft) 91,43 %
28.09.2018 16:34 21,2 C 15,0 C 19,4 C 55 % 1017,3 hPa 0,0 l/m 6,4 km/h (2 Bft) N-NO 16 2 min 0,000 mm 0,8 UV-I 279 W/m 11,8 C 21,2 C 12,9 km/h (3 Bft) 95,74 %
28.09.2018 16:36 21,1 C 15,0 C 19,4 C 53 % 1017,3 hPa 0,0 l/m 9,0 km/h (2 Bft) NW 324 2 min 0,000 mm 0,8 UV-I 277 W/m 11,1 C 20,2 C 14,5 km/h (3 Bft) 96,23 %
28.09.2018 16:38 21,0 C 15,0 C 19,4 C 55 % 1017,3 hPa 0,0 l/m 9,6 km/h (2 Bft) N-NW 348 2 min 0,000 mm 0,8 UV-I 273 W/m 11,6 C 19,9 C 17,7 km/h (3 Bft) 95,74 %
28.09.2018 16:40 21,0 C 15,0 C 19,4 C 55 % 1017,3 hPa 0,0 l/m 9,1 km/h (2 Bft) N 355 2 min 0,000 mm 0,8 UV-I 267 W/m 11,6 C 20,0 C 16,1 km/h (3 Bft) 95,74 %
28.09.2018 16:42 20,9 C 15,0 C 19,4 C 54 % 1017,3 hPa 0,0 l/m 6,5 km/h (2 Bft) N-NW 329 2 min 0,000 mm 0,7 UV-I 262 W/m 11,2 C 20,9 C 12,9 km/h (3 Bft) 97,87 %
28.09.2018 16:44 20,9 C 15,0 C 18,9 C 54 % 1017,3 hPa 0,0 l/m 7,1 km/h (2 Bft) N-NO 15 2 min 0,000 mm 0,7 UV-I 258 W/m 11,2 C 20,6 C 14,5 km/h (3 Bft) 97,87 %
28.09.2018 16:46 20,9 C 15,0 C 19,4 C 54 % 1017,3 hPa 0,0 l/m 7,1 km/h (2 Bft) NW 304 2 min 0,000 mm 0,7 UV-I 252 W/m 11,2 C 20,6 C 14,5 km/h (3 Bft) 97,87 %
28.09.2018 16:48 20,8 C 15,0 C 18,9 C 54 % 1017,2 hPa 0,0 l/m 7,4 km/h (2 Bft) N-NW 331 2 min 0,000 mm 0,7 UV-I 246 W/m 11,1 C 20,4 C 12,9 km/h (3 Bft) 98,00 %
28.09.2018 16:50 20,8 C 15,0 C 18,9 C 54 % 1017,2 hPa 0,0 l/m 6,9 km/h (2 Bft) N 9 2 min 0,000 mm 0,7 UV-I 242 W/m 11,1 C 20,6 C 14,5 km/h (3 Bft) 95,74 %
28.09.2018 16:52 20,8 C 15,0 C 18,9 C 55 % 1017,3 hPa 0,0 l/m 4,3 km/h (1 Bft) NW 304 2 min 0,000 mm 0,6 UV-I 238 W/m 11,4 C 20,8 C 6,4 km/h (2 Bft) 97,87 %
28.09.2018 16:54 20,8 C 15,0 C 18,9 C 53 % 1017,2 hPa 0,0 l/m 4,1 km/h (1 Bft) N-NW 342 2 min 0,000 mm 0,6 UV-I 234 W/m 10,9 C 20,8 C 8,0 km/h (2 Bft) 97,87 %
28.09.2018 16:56 20,7 C 15,0 C 18,9 C 55 % 1017,3 hPa 0,0 l/m 3,8 km/h (1 Bft) W-NW 286 2 min 0,000 mm 0,6 UV-I 230 W/m 11,3 C 20,7 C 6,4 km/h (2 Bft) 95,74 %
28.09.2018 16:58 20,7 C 15,0 C 18,9 C 54 % 1017,3 hPa 0,0 l/m 4,3 km/h (1 Bft) W 275 2 min 0,000 mm 0,6 UV-I 225 W/m 11,1 C 20,7 C 11,3 km/h (2 Bft) 97,22 %
28.09.2018 17:00 20,7 C 15,0 C 18,9 C 56 % 1017,2 hPa 0,0 l/m 4,7 km/h (1 Bft) N-NW 344 2 min 0,203 mm 0,5 UV-I 218 W/m 11,6 C 20,7 C 11,3 km/h (2 Bft) 100,00 %
28.09.2018 17:02 20,8 C 15,0 C 18,9 C 54 % 1017,2 hPa 0,0 l/m 4,5 km/h (1 Bft) NW 309 2 min 0,000 mm 0,5 UV-I 212 W/m 11,1 C 20,8 C 11,3 km/h (2 Bft) 95,74 %
28.09.2018 17:04 20,7 C 15,0 C 18,9 C 56 % 1017,2 hPa 0,0 l/m 4,4 km/h (1 Bft) NW 325 2 min 0,000 mm 0,5 UV-I 207 W/m 11,6 C 20,7 C 9,7 km/h (2 Bft) 97,87 %
28.09.2018 17:06 20,7 C 15,0 C 18,3 C 55 % 1017,2 hPa 0,0 l/m 3,6 km/h (1 Bft) N-NO 13 2 min 0,000 mm 0,5 UV-I 201 W/m 11,3 C 20,7 C 8,0 km/h (2 Bft) 95,74 %
28.09.2018 17:08 20,6 C 15,0 C 18,3 C 55 % 1017,3 hPa 0,0 l/m 3,9 km/h (1 Bft) NO 56 2 min 0,000 mm 0,5 UV-I 197 W/m 11,2 C 20,6 C 8,0 km/h (2 Bft) 95,74 %
28.09.2018 17:10 20,5 C 15,0 C 18,3 C 56 % 1017,3 hPa 0,0 l/m 4,7 km/h (1 Bft) N 11 2 min 0,000 mm 0,5 UV-I 192 W/m 11,4 C 20,5 C 8,0 km/h (2 Bft) 95,74 %
28.09.2018 17:12 20,4 C 15,0 C 18,9 C 57 % 1017,3 hPa 0,0 l/m 6,1 km/h (2 Bft) N-NO 15 2 min 0,000 mm 0,0 UV-I 190 W/m 11,6 C 20,4 C 9,7 km/h (2 Bft) 95,74 %
28.09.2018 17:14 20,4 C 15,0 C 18,3 C 56 % 1017,3 hPa 0,0 l/m 5,8 km/h (2 Bft) N-NO 12 2 min 0,000 mm 0,0 UV-I 187 W/m 11,3 C 20,4 C 12,9 km/h (3 Bft) 95,74 %
28.09.2018 17:16 20,3 C 15,0 C 18,3 C 57 % 1017,3 hPa 0,0 l/m 5,0 km/h (1 Bft) N-NW 342 2 min 0,000 mm 0,0 UV-I 183 W/m 11,5 C 20,3 C 9,7 km/h (2 Bft) 94,00 %
28.09.2018 17:18 20,2 C 15,0 C 18,3 C 57 % 1017,3 hPa 0,0 l/m 3,8 km/h (1 Bft) N-NO 19 2 min 0,000 mm 0,0 UV-I 176 W/m 11,4 C 20,2 C 6,4 km/h (2 Bft) 91,49 %
28.09.2018 17:20 20,2 C 15,0 C 18,3 C 57 % 1017,3 hPa 0,0 l/m 6,0 km/h (2 Bft) N-NW 327 2 min 0,000 mm 0,0 UV-I 170 W/m 11,4 C 20,2 C 8,0 km/h (2 Bft) 91,49 %
28.09.2018 17:22 20,2 C 15,0 C 18,3 C 57 % 1017,3 hPa 0,0 l/m 4,5 km/h (1 Bft) N 5 2 min 0,000 mm 0,0 UV-I 164 W/m 11,4 C 20,2 C 11,3 km/h (2 Bft) 91,49 %
28.09.2018 17:24 20,1 C 15,0 C 18,3 C 58 % 1017,2 hPa 0,0 l/m 5,3 km/h (1 Bft) NW 324 2 min 0,000 mm 0,0 UV-I 159 W/m 11,6 C 20,1 C 8,0 km/h (2 Bft) 95,74 %
28.09.2018 17:26 20,1 C 15,0 C 18,3 C 58 % 1017,3 hPa 0,0 l/m 3,5 km/h (1 Bft) N-NO 30 2 min 0,000 mm 0,0 UV-I 149 W/m 11,6 C 20,1 C 4,8 km/h (1 Bft) 97,87 %
28.09.2018 17:28 20,0 C 15,0 C 18,3 C 59 % 1017,2 hPa 0,0 l/m 4,6 km/h (1 Bft) N 9 2 min 0,000 mm 0,0 UV-I 143 W/m 11,7 C 20,0 C 11,3 km/h (2 Bft) 97,87 %
28.09.2018 17:30 19,9 C 15,0 C 17,8 C 59 % 1017,3 hPa 0,0 l/m 4,0 km/h (1 Bft) NO 40 2 min 0,000 mm 0,0 UV-I 139 W/m 11,6 C 19,9 C 8,0 km/h (2 Bft) 97,87 %
28.09.2018 17:32 19,8 C 15,0 C 17,8 C 59 % 1017,3 hPa 0,0 l/m 3,8 km/h (1 Bft) N 355 2 min 0,000 mm 0,0 UV-I 132 W/m 11,6 C 19,8 C 8,0 km/h (2 Bft) 97,87 %
28.09.2018 17:34 19,8 C 15,0 C 17,8 C 59 % 1017,3 hPa 0,0 l/m 7,3 km/h (2 Bft) N 5 0 min 0,000 mm 0,0 UV-I 107 W/m 11,6 C 19,4 C 12,9 km/h (3 Bft) 91,49 %
28.09.2018 17:36 19,7 C 15,0 C 17,8 C 59 % 1017,3 hPa 0,0 l/m 4,4 km/h (1 Bft) N 360 0 min 0,000 mm 0,0 UV-I 99 W/m 11,5 C 19,7 C 9,7 km/h (2 Bft) 93,75 %
28.09.2018 17:38 19,7 C 15,0 C 17,8 C 59 % 1017,3 hPa 0,0 l/m 3,3 km/h (1 Bft) W-NW 301 0 min 0,000 mm 0,0 UV-I 61 W/m 11,5 C 19,7 C 4,8 km/h (1 Bft) 98,00 %
28.09.2018 17:40 19,7 C 15,0 C 17,8 C 59 % 1017,3 hPa 0,0 l/m 4,9 km/h (1 Bft) N-NO 22 0 min 0,000 mm 0,0 UV-I 80 W/m 11,5 C 19,7 C 11,3 km/h (2 Bft) 93,62 %
28.09.2018 17:42 19,5 C 15,0 C 17,8 C 61 % 1017,3 hPa 0,0 l/m 1,6 km/h (1 Bft) N-NO 20 2 min 0,000 mm 0,0 UV-I 103 W/m 11,8 C 19,5 C 3,2 km/h (1 Bft) 95,74 %
28.09.2018 17:44 19,4 C 15,0 C 17,2 C 61 % 1017,2 hPa 0,0 l/m 2,4 km/h (1 Bft) N 11 2 min 0,000 mm 0,0 UV-I 101 W/m 11,7 C 19,4 C 4,8 km/h (1 Bft) 97,87 %
28.09.2018 17:46 19,3 C 15,0 C 17,2 C 62 % 1017,2 hPa 0,0 l/m 2,1 km/h (1 Bft) N 11 2 min 0,000 mm 0,0 UV-I 105 W/m 11,8 C 19,3 C 3,2 km/h (1 Bft) 94,74 %
28.09.2018 17:48 19,2 C 15,0 C 17,2 C 63 % 1017,2 hPa 0,0 l/m 2,8 km/h (1 Bft) W-NW 291 2 min 0,000 mm 0,0 UV-I 105 W/m 12,0 C 19,2 C 4,8 km/h (1 Bft) 98,11 %
28.09.2018 17:50 19,2 C 15,0 C 17,2 C 62 % 1017,2 hPa 0,0 l/m 4,4 km/h (1 Bft) N 5 2 min 0,000 mm 0,0 UV-I 103 W/m 11,7 C 19,2 C 9,7 km/h (2 Bft) 95,74 %
28.09.2018 17:52 19,2 C 15,0 C 17,2 C 63 % 1017,2 hPa 0,0 l/m 3,8 km/h (1 Bft) N-NO 17 2 min 0,000 mm 0,0 UV-I 98 W/m 12,0 C 19,2 C 6,4 km/h (2 Bft) 97,37 %
28.09.2018 17:54 19,2 C 15,0 C 17,2 C 63 % 1017,2 hPa 0,0 l/m 6,9 km/h (2 Bft) N 360 2 min 0,000 mm 0,0 UV-I 93 W/m 12,0 C 19,0 C 11,3 km/h (2 Bft) 95,74 %
28.09.2018 17:56 19,2 C 15,0 C 17,2 C 62 % 1017,2 hPa 0,0 l/m 5,1 km/h (1 Bft) N 360 2 min 0,000 mm 0,0 UV-I 89 W/m 11,7 C 19,2 C 11,3 km/h (2 Bft) 96,00 %
28.09.2018 17:58 19,1 C 15,0 C 17,2 C 62 % 1017,2 hPa 0,0 l/m 5,4 km/h (1 Bft) N-NW 346 2 min 0,000 mm 0,0 UV-I 84 W/m 11,6 C 19,1 C 8,0 km/h (2 Bft) 98,00 %
28.09.2018 18:00 19,2 C 15,0 C 17,2 C 62 % 1017,2 hPa 0,0 l/m 5,5 km/h (1 Bft) N 355 2 min 0,000 mm 0,0 UV-I 79 W/m 11,7 C 19,2 C 11,3 km/h (2 Bft) 95,74 %
28.09.2018 18:02 19,1 C 15,0 C 16,7 C 62 % 1017,2 hPa 0,0 l/m 4,5 km/h (1 Bft) N-NO 19 2 min 0,102 mm 0,0 UV-I 77 W/m 11,6 C 19,1 C 8,0 km/h (2 Bft) 96,00 %
28.09.2018 18:04 19,1 C 15,0 C 16,7 C 62 % 1017,3 hPa 0,0 l/m 3,4 km/h (1 Bft) N-NO 13 2 min 0,000 mm 0,0 UV-I 72 W/m 11,6 C 19,1 C 6,4 km/h (2 Bft) 100,00 %
28.09.2018 18:06 19,1 C 15,0 C 16,7 C 62 % 1017,3 hPa 0,0 l/m 2,9 km/h (1 Bft) NW 324 2 min 0,000 mm 0,0 UV-I 69 W/m 11,6 C 19,1 C 4,8 km/h (1 Bft) 97,87 %
28.09.2018 18:08 19,0 C 15,0 C 16,1 C 62 % 1017,3 hPa 0,0 l/m 2,8 km/h (1 Bft) N-NW 337 2 min 0,000 mm 0,0 UV-I 66 W/m 11,6 C 19,0 C 8,0 km/h (2 Bft) 97,87 %
28.09.2018 18:10 18,9 C 15,0 C 16,1 C 62 % 1017,3 hPa 0,0 l/m 2,3 km/h (1 Bft) N-NO 17 2 min 0,000 mm 0,0 UV-I 61 W/m 11,5 C 18,9 C 4,8 km/h (1 Bft) 100,00 %
28.09.2018 18:12 18,9 C 15,0 C 15,6 C 62 % 1017,3 hPa 0,0 l/m 3,5 km/h (1 Bft) NW 317 2 min 0,000 mm 0,0 UV-I 58 W/m 11,5 C 18,9 C 12,9 km/h (3 Bft) 97,87 %
28.09.2018 18:14 18,9 C 15,0 C 16,1 C 62 % 1017,2 hPa 0,0 l/m 6,1 km/h (2 Bft) N 11 2 min 0,000 mm 0,0 UV-I 55 W/m 11,5 C 18,9 C 8,0 km/h (2 Bft) 95,74 %
28.09.2018 18:16 18,9 C 15,0 C 16,1 C 62 % 1017,3 hPa 0,0 l/m 5,4 km/h (1 Bft) N-NW 343 2 min 0,000 mm 0,0 UV-I 51 W/m 11,5 C 18,9 C 8,0 km/h (2 Bft) 100,00 %
28.09.2018 18:18 18,8 C 15,0 C 16,1 C 62 % 1017,3 hPa 0,0 l/m 2,7 km/h (1 Bft) N-NW 344 2 min 0,000 mm 0,0 UV-I 47 W/m 11,4 C 18,8 C 6,4 km/h (2 Bft) 97,22 %
28.09.2018 18:20 18,8 C 15,0 C 15,6 C 62 % 1017,3 hPa 0,0 l/m 1,9 km/h (1 Bft) N-NW 331 2 min 0,000 mm 0,0 UV-I 43 W/m 11,4 C 18,8 C 4,8 km/h (1 Bft) 100,00 %
28.09.2018 18:22 18,8 C 15,0 C 15,6 C 62 % 1017,3 hPa 0,0 l/m 1,0 km/h (0 Bft) N-NW 331 2 min 0,000 mm 0,0 UV-I 39 W/m 11,4 C 18,8 C 3,2 km/h (1 Bft) 100,00 %
28.09.2018 18:24 18,9 C 15,0 C 15,0 C 62 % 1017,3 hPa 0,0 l/m 1,7 km/h (1 Bft) N-NW 330 2 min 0,000 mm 0,0 UV-I 35 W/m 11,5 C 18,9 C 3,2 km/h (1 Bft) 100,00 %
28.09.2018 18:26 18,8 C 15,0 C 15,0 C 62 % 1017,3 hPa 0,0 l/m 2,2 km/h (1 Bft) N 11 2 min 0,000 mm 0,0 UV-I 32 W/m 11,4 C 18,8 C 8,0 km/h (2 Bft) 100,00 %
28.09.2018 18:28 18,8 C 15,0 C 15,0 C 61 % 1017,4 hPa 0,0 l/m 2,7 km/h (1 Bft) N-NO 15 2 min 0,000 mm 0,0 UV-I 28 W/m 11,1 C 18,8 C 6,4 km/h (2 Bft) 100,00 %
28.09.2018 18:30 18,8 C 15,0 C 15,0 C 62 % 1017,4 hPa 0,0 l/m 6,3 km/h (2 Bft) N 360 2 min 0,000 mm 0,0 UV-I 26 W/m 11,4 C 18,8 C 9,7 km/h (2 Bft) 100,00 %
28.09.2018 18:32 18,7 C 15,0 C 15,0 C 62 % 1017,4 hPa 0,0 l/m 2,4 km/h (1 Bft) N-NO 23 2 min 0,000 mm 0,0 UV-I 23 W/m 11,3 C 18,7 C 6,4 km/h (2 Bft) 100,00 %
28.09.2018 18:34 18,7 C 15,0 C 14,4 C 62 % 1017,4 hPa 0,0 l/m 0,8 km/h (0 Bft) N-NO 23 2 min 0,000 mm 0,0 UV-I 21 W/m 11,3 C 18,7 C 3,2 km/h (1 Bft) 100,00 %
28.09.2018 18:36 18,7 C 15,0 C 14,4 C 62 % 1017,4 hPa 0,0 l/m 2,3 km/h (1 Bft) NW 315 2 min 0,000 mm 0,0 UV-I 19 W/m 11,3 C 18,7 C 4,8 km/h (1 Bft) 97,87 %
28.09.2018 18:38 18,6 C 15,0 C 14,4 C 62 % 1017,5 hPa 0,0 l/m 4,1 km/h (1 Bft) N-NO 13 2 min 0,000 mm 0,0 UV-I 15 W/m 11,2 C 18,6 C 6,4 km/h (2 Bft) 100,00 %
28.09.2018 18:40 18,4 C 15,0 C 14,4 C 63 % 1017,5 hPa 0,0 l/m 2,7 km/h (1 Bft) N-NW 342 0 min 0,000 mm 0,0 UV-I 13 W/m 11,2 C 18,4 C 6,4 km/h (2 Bft) 97,87 %
28.09.2018 18:42 18,3 C 15,0 C 13,9 C 64 % 1017,5 hPa 0,0 l/m 1,5 km/h (1 Bft) N-NW 347 0 min 0,000 mm 0,0 UV-I 12 W/m 11,4 C 18,3 C 3,2 km/h (1 Bft) 100,00 %
28.09.2018 18:44 18,2 C 15,0 C 13,9 C 64 % 1017,5 hPa 0,0 l/m 1,0 km/h (0 Bft) N-NW 347 0 min 0,000 mm 0,0 UV-I 11 W/m 11,3 C 18,2 C 1,6 km/h (1 Bft) 100,00 %
28.09.2018 18:46 18,1 C 15,0 C 13,9 C 65 % 1017,5 hPa 0,0 l/m 1,4 km/h (1 Bft) N-NW 347 0 min 0,000 mm 0,0 UV-I 10 W/m 11,4 C 18,1 C 3,2 km/h (1 Bft) 97,87 %
28.09.2018 18:48 17,8 C 15,0 C 13,3 C 66 % 1017,5 hPa 0,0 l/m 1,8 km/h (1 Bft) N-NW 347 0 min 0,000 mm 0,0 UV-I 9 W/m 11,4 C 17,8 C 3,2 km/h (1 Bft) 97,87 %
28.09.2018 18:50 17,7 C 15,0 C 13,3 C 66 % 1017,6 hPa 0,0 l/m 1,7 km/h (1 Bft) N-NW 347 0 min 0,000 mm 0,0 UV-I 7 W/m 11,3 C 17,7 C 3,2 km/h (1 Bft) 100,00 %
28.09.2018 18:52 17,7 C 15,0 C 13,3 C 66 % 1017,6 hPa 0,0 l/m 0,5 km/h (0 Bft) NW 315 0 min 0,000 mm 0,0 UV-I 7 W/m 11,3 C 17,7 C 3,2 km/h (1 Bft) 100,00 %
28.09.2018 18:54 17,6 C 15,0 C 12,8 C 67 % 1017,7 hPa 0,0 l/m 0,5 km/h (0 Bft) NW 315 0 min 0,000 mm 0,0 UV-I 6 W/m 11,4 C 17,6 C 3,2 km/h (1 Bft) 97,87 %
28.09.2018 18:56 17,5 C 15,0 C 12,8 C 67 % 1017,7 hPa 0,0 l/m 0,9 km/h (0 Bft) NW 315 0 min 0,000 mm 0,0 UV-I 5 W/m 11,3 C 17,5 C 3,2 km/h (1 Bft) 93,62 %
28.09.2018 18:58 17,4 C 15,0 C 12,2 C 67 % 1017,7 hPa 0,0 l/m 0,1 km/h (0 Bft) NW 315 0 min 0,000 mm 0,0 UV-I 5 W/m 11,2 C 17,4 C 1,6 km/h (1 Bft) 97,87 %
28.09.2018 19:00 17,4 C 15,0 C 11,7 C 67 % 1017,7 hPa 0,0 l/m 0,1 km/h (0 Bft) NW 315 0 min 0,025 mm 0,0 UV-I 5 W/m 11,2 C 17,4 C 1,6 km/h (1 Bft) 97,87 %
28.09.2018 19:02 17,3 C 15,0 C 11,7 C 67 % 1017,8 hPa 0,0 l/m 0,0 km/h (0 Bft) NW 315 0 min 0,000 mm 0,0 UV-I 2 W/m 11,1 C 17,3 C 1,6 km/h (1 Bft) 100,00 %
28.09.2018 19:04 17,3 C 15,0 C 11,1 C 67 % 1017,8 hPa 0,0 l/m 0,0 km/h (0 Bft) NW 315 0 min 0,000 mm 0,0 UV-I 0 W/m 11,1 C 17,3 C 0,0 km/h (0 Bft) 98,00 %
28.09.2018 19:06 17,2 C 15,0 C 11,1 C 68 % 1017,9 hPa 0,0 l/m 0,0 km/h (0 Bft) NW 315 0 min 0,000 mm 0,0 UV-I 0 W/m 11,2 C 17,2 C 1,6 km/h (1 Bft) 100,00 %
28.09.2018 19:09 17,2 C 15,0 C 11,1 C 68 % 1017,9 hPa 0,0 l/m 0,4 km/h (0 Bft) NW 315 0 min 0,000 mm 0,0 UV-I 0 W/m 11,2 C 17,2 C 1,6 km/h (1 Bft) 97,18 %
28.09.2018 19:10 17,1 C 15,0 C 11,1 C 68 % 1017,9 hPa 0,0 l/m 0,1 km/h (0 Bft) NW 315 0 min 0,000 mm 0,0 UV-I 0 W/m 11,1 C 17,1 C 1,6 km/h (1 Bft) 95,65 %
28.09.2018 19:12 16,8 C 15,0 C 10,6 C 69 % 1017,9 hPa 0,0 l/m 0,0 km/h (0 Bft) NW 315 0 min 0,000 mm 0,0 UV-I 0 W/m 11,1 C 16,8 C 1,6 km/h (1 Bft) 94,00 %
28.09.2018 19:14 16,8 C 15,0 C 10,6 C 69 % 1017,9 hPa 0,0 l/m 0,1 km/h (0 Bft) NW 315 0 min 0,000 mm 0,0 UV-I 0 W/m 11,1 C 16,8 C 1,6 km/h (1 Bft) 94,74 %
28.09.2018 19:16 16,7 C 15,0 C 10,6 C 69 % 1017,9 hPa 0,0 l/m 0,4 km/h (0 Bft) NW 315 0 min 0,000 mm 0,0 UV-I 0 W/m 11,0 C 16,7 C 1,6 km/h (1 Bft) 95,74 %
28.09.2018 19:18 16,8 C 15,0 C 10,6 C 69 % 1017,9 hPa 0,0 l/m 1,1 km/h (1 Bft) NW 315 0 min 0,000 mm 0,0 UV-I 0 W/m 11,1 C 16,8 C 3,2 km/h (1 Bft) 95,74 %
28.09.2018 19:20 16,8 C 15,0 C 10,6 C 69 % 1018,0 hPa 0,0 l/m 0,8 km/h (0 Bft) NW 315 0 min 0,000 mm 0,0 UV-I 0 W/m 11,1 C 16,8 C 1,6 km/h (1 Bft) 93,62 %
28.09.2018 19:22 16,7 C 15,0 C 10,6 C 69 % 1018,0 hPa 0,0 l/m 0,8 km/h (0 Bft) NW 315 0 min 0,000 mm 0,0 UV-I 0 W/m 11,0 C 16,7 C 1,6 km/h (1 Bft) 94,00 %
28.09.2018 19:24 16,6 C 15,0 C 10,6 C 70 % 1018,0 hPa 0,0 l/m 0,2 km/h (0 Bft) NW 315 0 min 0,000 mm 0,0 UV-I 0 W/m 11,1 C 16,6 C 1,6 km/h (1 Bft) 93,62 %
28.09.2018 19:26 16,4 C 15,0 C 10,0 C 70 % 1018,0 hPa 0,0 l/m 0,0 km/h (0 Bft) NW 315 0 min 0,000 mm 0,0 UV-I 0 W/m 10,9 C 16,4 C 0,0 km/h (0 Bft) 96,00 %
28.09.2018 19:29 16,1 C 15,0 C 10,6 C 71 % 1018,0 hPa 0,0 l/m 0,4 km/h (0 Bft) NW 315 0 min 0,000 mm 0,0 UV-I 0 W/m 10,8 C 16,1 C 1,6 km/h (1 Bft) 95,77 %
28.09.2018 19:30 16,1 C 15,0 C 10,6 C 71 % 1018,0 hPa 0,0 l/m 0,9 km/h (0 Bft) NW 315 0 min 0,000 mm 0,0 UV-I 0 W/m 10,8 C 16,1 C 1,6 km/h (1 Bft) 95,83 %
28.09.2018 19:32 16,1 C 15,0 C 10,6 C 71 % 1018,1 hPa 0,0 l/m 0,0 km/h (0 Bft) NW 315 0 min 0,000 mm 0,0 UV-I 0 W/m 10,8 C 16,1 C 0,0 km/h (0 Bft) 97,87 %
28.09.2018 19:34 15,9 C 15,0 C 10,6 C 72 % 1018,2 hPa 0,0 l/m 0,0 km/h (0 Bft) NW 315 0 min 0,000 mm 0,0 UV-I 0 W/m 10,9 C 15,9 C 0,0 km/h (0 Bft) 93,62 %
28.09.2018 19:36 15,8 C 15,0 C 10,6 C 72 % 1018,1 hPa 0,0 l/m 1,0 km/h (0 Bft) NW 315 0 min 0,000 mm 0,0 UV-I 0 W/m 10,8 C 15,8 C 1,6 km/h (1 Bft) 96,00 %
28.09.2018 19:38 15,8 C 15,0 C 10,6 C 73 % 1018,2 hPa 0,0 l/m 1,6 km/h (1 Bft) NW 315 0 min 0,000 mm 0,0 UV-I 0 W/m 11,0 C 15,8 C 3,2 km/h (1 Bft) 97,87 %
28.09.2018 19:40 15,8 C 15,0 C 10,6 C 73 % 1018,2 hPa 0,0 l/m 0,7 km/h (0 Bft) NW 315 0 min 0,000 mm 0,0 UV-I 0 W/m 11,0 C 15,8 C 1,6 km/h (1 Bft) 97,37 %
28.09.2018 19:42 15,8 C 15,0 C 10,6 C 73 % 1018,2 hPa 0,0 l/m 0,1 km/h (0 Bft) NW 315 0 min 0,000 mm 0,0 UV-I 0 W/m 11,0 C 15,8 C 1,6 km/h (1 Bft) 97,87 %
28.09.2018 19:44 15,8 C 15,0 C 10,6 C 73 % 1018,2 hPa 0,0 l/m 1,4 km/h (1 Bft) N-NO 13 0 min 0,000 mm 0,0 UV-I 0 W/m 11,0 C 15,8 C 4,8 km/h (1 Bft) 95,74 %
28.09.2018 19:46 15,7 C 15,0 C 10,6 C 73 % 1018,2 hPa 0,0 l/m 4,6 km/h (1 Bft) N-NO 28 0 min 0,000 mm 0,0 UV-I 0 W/m 10,9 C 15,7 C 6,4 km/h (2 Bft) 97,87 %
28.09.2018 19:48 15,5 C 15,0 C 10,6 C 74 % 1018,3 hPa 0,0 l/m 3,6 km/h (1 Bft) N-NO 29 0 min 0,000 mm 0,0 UV-I 0 W/m 10,9 C 15,5 C 4,8 km/h (1 Bft) 100,00 %
28.09.2018 19:50 15,4 C 15,0 C 10,6 C 74 % 1018,3 hPa 0,0 l/m 3,6 km/h (1 Bft) N-NO 29 0 min 0,000 mm 0,0 UV-I 0 W/m 10,8 C 15,4 C 4,8 km/h (1 Bft) 95,74 %
28.09.2018 19:52 15,6 C 15,0 C 10,6 C 74 % 1018,4 hPa 0,0 l/m 3,7 km/h (1 Bft) N 5 0 min 0,000 mm 0,0 UV-I 0 W/m 11,0 C 15,6 C 6,4 km/h (2 Bft) 100,00 %
28.09.2018 19:54 15,7 C 15,0 C 10,6 C 73 % 1018,4 hPa 0,0 l/m 4,3 km/h (1 Bft) N 5 0 min 0,000 mm 0,0 UV-I 0 W/m 10,9 C 15,7 C 4,8 km/h (1 Bft) 100,00 %
28.09.2018 19:56 15,8 C 15,0 C 10,6 C 73 % 1018,4 hPa 0,0 l/m 1,9 km/h (1 Bft) N 9 0 min 0,000 mm 0,0 UV-I 0 W/m 11,0 C 15,8 C 4,8 km/h (1 Bft) 98,00 %
28.09.2018 19:59 15,9 C 15,0 C 10,6 C 73 % 1018,5 hPa 0,0 l/m 2,1 km/h (1 Bft) N 5 0 min 0,000 mm 0,0 UV-I 0 W/m 11,1 C 15,9 C 4,8 km/h (1 Bft) 100,00 %
28.09.2018 20:00 15,9 C 15,0 C 10,6 C 73 % 1018,5 hPa 0,0 l/m 1,2 km/h (1 Bft) N 5 0 min 0,000 mm 0,0 UV-I 0 W/m 11,1 C 15,9 C 1,6 km/h (1 Bft) 100,00 %
28.09.2018 20:02 15,8 C 15,0 C 10,0 C 73 % 1018,5 hPa 0,0 l/m 0,6 km/h (0 Bft) N 5 0 min 0,000 mm 0,0 UV-I 0 W/m 11,0 C 15,8 C 1,6 km/h (1 Bft) 100,00 %
28.09.2018 20:04 15,3 C 15,0 C 10,6 C 74 % 1018,5 hPa 0,0 l/m 0,4 km/h (0 Bft) N 5 0 min 0,000 mm 0,0 UV-I 0 W/m 10,7 C 15,3 C 3,2 km/h (1 Bft) 100,00 %
28.09.2018 20:06 15,1 C 15,0 C 11,1 C 75 % 1018,5 hPa 0,0 l/m 2,0 km/h (1 Bft) N 5 0 min 0,000 mm 0,0 UV-I 0 W/m 10,7 C 15,1 C 3,2 km/h (1 Bft) 100,00 %
28.09.2018 20:08 14,8 C 15,0 C 11,1 C 75 % 1018,5 hPa 0,0 l/m 1,4 km/h (1 Bft) N 5 0 min 0,000 mm 0,0 UV-I 0 W/m 10,4 C 14,8 C 3,2 km/h (1 Bft) 98,08 %
28.09.2018 20:10 14,6 C 15,0 C 11,1 C 76 % 1018,6 hPa 0,0 l/m 0,3 km/h (0 Bft) N 5 0 min 0,000 mm 0,0 UV-I 0 W/m 10,4 C 14,6 C 1,6 km/h (1 Bft) 100,00 %
28.09.2018 20:12 14,6 C 15,0 C 10,6 C 77 % 1018,6 hPa 0,0 l/m 0,0 km/h (0 Bft) N 5 0 min 0,000 mm 0,0 UV-I 0 W/m 10,6 C 14,6 C 0,0 km/h (0 Bft) 100,00 %
28.09.2018 20:14 14,6 C 15,0 C 10,6 C 77 % 1018,7 hPa 0,0 l/m 1,6 km/h (1 Bft) N 5 0 min 0,000 mm 0,0 UV-I 0 W/m 10,6 C 14,6 C 3,2 km/h (1 Bft) 100,00 %
28.09.2018 20:16 14,4 C 15,0 C 10,6 C 77 % 1018,7 hPa 0,0 l/m 2,1 km/h (1 Bft) N 5 0 min 0,000 mm 0,0 UV-I 0 W/m 10,4 C 14,4 C 3,2 km/h (1 Bft) 100,00 %
28.09.2018 20:18 14,3 C 15,0 C 10,0 C 78 % 1018,7 hPa 0,0 l/m 3,0 km/h (1 Bft) SW 223 0 min 0,000 mm 0,0 UV-I 0 W/m 10,5 C 14,3 C 4,8 km/h (1 Bft) 97,87 %
28.09.2018 20:20 14,2 C 15,0 C 10,0 C 78 % 1018,7 hPa 0,0 l/m 3,1 km/h (1 Bft) SW 223 0 min 0,000 mm 0,0 UV-I 0 W/m 10,4 C 14,2 C 4,8 km/h (1 Bft) 96,00 %
28.09.2018 20:22 13,9 C 15,0 C 10,0 C 79 % 1018,7 hPa 0,0 l/m 3,5 km/h (1 Bft) SW 223 0 min 0,000 mm 0,0 UV-I 0 W/m 10,3 C 13,9 C 4,8 km/h (1 Bft) 95,74 %
28.09.2018 20:24 13,9 C 15,0 C 10,0 C 79 % 1018,8 hPa 0,0 l/m 3,2 km/h (1 Bft) SW 223 0 min 0,000 mm 0,0 UV-I 0 W/m 10,3 C 13,9 C 4,8 km/h (1 Bft) 97,87 %
28.09.2018 20:26 13,7 C 15,0 C 10,0 C 80 % 1018,8 hPa 0,0 l/m 3,1 km/h (1 Bft) SW 223 0 min 0,000 mm 0,0 UV-I 0 W/m 10,3 C 13,7 C 4,8 km/h (1 Bft) 95,74 %
28.09.2018 20:28 13,4 C 15,0 C 10,0 C 81 % 1018,9 hPa 0,0 l/m 4,3 km/h (1 Bft) SW 216 0 min 0,000 mm 0,0 UV-I 0 W/m 10,2 C 13,4 C 6,4 km/h (2 Bft) 97,87 %
28.09.2018 20:30 13,4 C 15,0 C 10,0 C 82 % 1018,9 hPa 0,0 l/m 5,4 km/h (1 Bft) S-SW 200 0 min 0,000 mm 0,0 UV-I 0 W/m 10,4 C 13,4 C 8,0 km/h (2 Bft) 97,87 %
28.09.2018 20:32 13,6 C 15,0 C 10,0 C 82 % 1019,0 hPa 0,0 l/m 5,2 km/h (1 Bft) S 191 0 min 0,000 mm 0,0 UV-I 0 W/m 10,6 C 13,6 C 6,4 km/h (2 Bft) 93,62 %
28.09.2018 20:34 13,9 C 15,0 C 10,0 C 81 % 1019,0 hPa 0,0 l/m 5,0 km/h (1 Bft) S-SW 192 0 min 0,000 mm 0,0 UV-I 0 W/m 10,7 C 13,9 C 8,0 km/h (2 Bft) 93,62 %
28.09.2018 20:36 13,9 C 15,0 C 10,0 C 80 % 1018,9 hPa 0,0 l/m 5,7 km/h (1 Bft) S-SW 195 0 min 0,000 mm 0,0 UV-I 0 W/m 10,5 C 13,9 C 6,4 km/h (2 Bft) 94,74 %
28.09.2018 20:38 13,6 C 15,0 C 10,0 C 80 % 1018,9 hPa 0,0 l/m 6,0 km/h (2 Bft) S-SW 197 0 min 0,000 mm 0,0 UV-I 0 W/m 10,2 C 13,6 C 8,0 km/h (2 Bft) 96,00 %
28.09.2018 20:40 13,3 C 15,0 C 10,0 C 81 % 1018,9 hPa 0,0 l/m 5,7 km/h (1 Bft) S-SW 196 0 min 0,000 mm 0,0 UV-I 0 W/m 10,1 C 13,3 C 8,0 km/h (2 Bft) 95,74 %
28.09.2018 20:42 13,2 C 15,0 C 10,0 C 82 % 1019,0 hPa 0,0 l/m 5,2 km/h (1 Bft) S-SW 200 0 min 0,000 mm 0,0 UV-I 0 W/m 10,2 C 13,2 C 6,4 km/h (2 Bft) 93,75 %
28.09.2018 20:44 13,2 C 15,0 C 9,4 C 83 % 1019,0 hPa 0,0 l/m 4,5 km/h (1 Bft) S-SW 211 0 min 0,000 mm 0,0 UV-I 0 W/m 10,4 C 13,2 C 6,4 km/h (2 Bft) 91,84 %
28.09.2018 20:46 13,3 C 15,0 C 9,4 C 83 % 1019,0 hPa 0,0 l/m 3,8 km/h (1 Bft) S-SW 211 0 min 0,000 mm 0,0 UV-I 0 W/m 10,5 C 13,3 C 6,4 km/h (2 Bft) 95,83 %
28.09.2018 20:48 13,4 C 15,0 C 9,4 C 82 % 1019,0 hPa 0,0 l/m 4,2 km/h (1 Bft) S-SW 211 0 min 0,000 mm 0,0 UV-I 0 W/m 10,4 C 13,4 C 4,8 km/h (1 Bft) 95,74 %
28.09.2018 20:50 13,6 C 15,0 C 9,4 C 82 % 1019,0 hPa 0,0 l/m 4,0 km/h (1 Bft) S-SW 211 0 min 0,000 mm 0,0 UV-I 0 W/m 10,6 C 13,6 C 4,8 km/h (1 Bft) 95,74 %
28.09.2018 20:52 13,7 C 15,0 C 9,4 C 81 % 1019,1 hPa 0,0 l/m 3,8 km/h (1 Bft) S-SW 211 0 min 0,000 mm 0,0 UV-I 0 W/m 10,5 C 13,7 C 4,8 km/h (1 Bft) 95,74 %
28.09.2018 20:54 13,8 C 15,0 C 9,4 C 81 % 1019,1 hPa 0,0 l/m 3,5 km/h (1 Bft) S-SW 211 0 min 0,000 mm 0,0 UV-I 0 W/m 10,6 C 13,8 C 4,8 km/h (1 Bft) 93,62 %
28.09.2018 20:56 13,8 C 15,0 C 9,4 C 81 % 1019,1 hPa 0,0 l/m 3,4 km/h (1 Bft) S-SW 211 0 min 0,000 mm 0,0 UV-I 0 W/m 10,6 C 13,8 C 4,8 km/h (1 Bft) 97,87 %
28.09.2018 20:58 13,7 C 15,0 C 9,4 C 81 % 1019,1 hPa 0,0 l/m 3,4 km/h (1 Bft) S-SW 211 0 min 0,000 mm 0,0 UV-I 0 W/m 10,5 C 13,7 C 4,8 km/h (1 Bft) 93,62 %
28.09.2018 21:00 13,6 C 15,0 C 9,4 C 81 % 1019,2 hPa 0,0 l/m 3,4 km/h (1 Bft) S-SW 211 0 min 0,000 mm 0,0 UV-I 0 W/m 10,4 C 13,6 C 4,8 km/h (1 Bft) 97,87 %
28.09.2018 21:02 13,6 C 15,0 C 9,4 C 81 % 1019,1 hPa 0,0 l/m 3,3 km/h (1 Bft) S-SW 211 0 min 0,026 mm 0,0 UV-I 0 W/m 10,4 C 13,6 C 4,8 km/h (1 Bft) 97,87 %
28.09.2018 21:04 13,6 C 15,0 C 9,4 C 81 % 1019,2 hPa 0,0 l/m 3,4 km/h (1 Bft) S-SW 211 0 min 0,000 mm 0,0 UV-I 0 W/m 10,4 C 13,6 C 4,8 km/h (1 Bft) 95,74 %
28.09.2018 21:06 13,6 C 15,0 C 9,4 C 81 % 1019,2 hPa 0,0 l/m 3,9 km/h (1 Bft) S-SW 211 0 min 0,000 mm 0,0 UV-I 0 W/m 10,4 C 13,6 C 4,8 km/h (1 Bft) 97,37 %
28.09.2018 21:08 13,4 C 15,0 C 9,4 C 81 % 1019,2 hPa 0,0 l/m 4,6 km/h (1 Bft) S-SW 211 0 min 0,000 mm 0,0 UV-I 0 W/m 10,2 C 13,4 C 4,8 km/h (1 Bft) 97,87 %
28.09.2018 21:10 13,4 C 15,0 C 10,0 C 82 % 1019,2 hPa 0,0 l/m 4,9 km/h (1 Bft) S-SW 211 0 min 0,000 mm 0,0 UV-I 0 W/m 10,4 C 13,4 C 6,4 km/h (2 Bft) 95,74 %
28.09.2018 21:12 13,3 C 15,0 C 10,6 C 82 % 1019,2 hPa 0,0 l/m 4,9 km/h (1 Bft) S-SW 211 0 min 0,000 mm 0,0 UV-I 0 W/m 10,3 C 13,3 C 6,4 km/h (2 Bft) 97,87 %
28.09.2018 21:14 13,3 C 15,0 C 10,6 C 82 % 1019,3 hPa 0,0 l/m 4,9 km/h (1 Bft) S-SW 208 0 min 0,000 mm 0,0 UV-I 0 W/m 10,3 C 13,3 C 6,4 km/h (2 Bft) 93,62 %
28.09.2018 21:16 13,2 C 15,0 C 10,6 C 82 % 1019,3 hPa 0,0 l/m 4,6 km/h (1 Bft) S-SW 209 0 min 0,000 mm 0,0 UV-I 0 W/m 10,2 C 13,2 C 6,4 km/h (2 Bft) 97,87 %
28.09.2018 21:18 13,2 C 15,0 C 10,0 C 82 % 1019,3 hPa 0,0 l/m 4,4 km/h (1 Bft) S-SW 209 0 min 0,000 mm 0,0 UV-I 0 W/m 10,2 C 13,2 C 4,8 km/h (1 Bft) 96,23 %
28.09.2018 21:20 13,3 C 15,0 C 10,0 C 83 % 1019,3 hPa 0,0 l/m 3,6 km/h (1 Bft) S-SW 209 0 min 0,000 mm 0,0 UV-I 0 W/m 10,5 C 13,3 C 4,8 km/h (1 Bft) 97,87 %
28.09.2018 21:22 13,3 C 15,0 C 10,0 C 82 % 1019,3 hPa 0,0 l/m 3,8 km/h (1 Bft) S-SW 209 0 min 0,000 mm 0,0 UV-I 0 W/m 10,3 C 13,3 C 4,8 km/h (1 Bft) 100,00 %
28.09.2018 21:24 13,3 C 15,0 C 9,4 C 82 % 1019,3 hPa 0,0 l/m 3,2 km/h (1 Bft) S-SW 209 0 min 0,000 mm 0,0 UV-I 0 W/m 10,3 C 13,3 C 4,8 km/h (1 Bft) 97,87 %
28.09.2018 21:26 13,3 C 15,0 C 9,4 C 82 % 1019,4 hPa 0,0 l/m 3,2 km/h (1 Bft) S-SW 209 0 min 0,000 mm 0,0 UV-I 0 W/m 10,3 C 13,3 C 4,8 km/h (1 Bft) 95,83 %
28.09.2018 21:28 13,2 C 15,0 C 9,4 C 83 % 1019,4 hPa 0,0 l/m 3,7 km/h (1 Bft) S-SW 209 0 min 0,000 mm 0,0 UV-I 0 W/m 10,4 C 13,2 C 4,8 km/h (1 Bft) 95,74 %
28.09.2018 21:30 13,3 C 15,0 C 9,4 C 83 % 1019,4 hPa 0,0 l/m 2,5 km/h (1 Bft) S-SW 209 0 min 0,000 mm 0,0 UV-I 0 W/m 10,5 C 13,3 C 6,4 km/h (2 Bft) 97,87 %
28.09.2018 21:32 13,2 C 15,0 C 9,4 C 83 % 1019,4 hPa 0,0 l/m 4,4 km/h (1 Bft) S-SW 209 0 min 0,000 mm 0,0 UV-I 0 W/m 10,4 C 13,2 C 4,8 km/h (1 Bft) 97,87 %
28.09.2018 21:34 13,2 C 15,0 C 10,0 C 83 % 1019,4 hPa 0,0 l/m 4,0 km/h (1 Bft) S-SW 209 0 min 0,000 mm 0,0 UV-I 0 W/m 10,4 C 13,2 C 4,8 km/h (1 Bft) 95,74 %
28.09.2018 21:36 13,2 C 15,0 C 10,0 C 83 % 1019,4 hPa 0,0 l/m 3,8 km/h (1 Bft) S-SW 209 0 min 0,000 mm 0,0 UV-I 0 W/m 10,4 C 13,2 C 4,8 km/h (1 Bft) 100,00 %
28.09.2018 21:38 13,3 C 15,0 C 10,0 C 83 % 1019,4 hPa 0,0 l/m 3,7 km/h (1 Bft) S-SW 209 0 min 0,000 mm 0,0 UV-I 0 W/m 10,5 C 13,3 C 4,8 km/h (1 Bft) 97,87 %
28.09.2018 21:40 13,3 C 15,0 C 10,6 C 83 % 1019,5 hPa 0,0 l/m 3,2 km/h (1 Bft) S-SW 209 0 min 0,000 mm 0,0 UV-I 0 W/m 10,5 C 13,3 C 4,8 km/h (1 Bft) 95,74 %
28.09.2018 21:42 13,5 C 15,0 C 10,6 C 83 % 1019,5 hPa 0,0 l/m 3,5 km/h (1 Bft) S-SW 209 0 min 0,000 mm 0,0 UV-I 0 W/m 10,7 C 13,5 C 4,8 km/h (1 Bft) 97,87 %
28.09.2018 21:44 13,7 C 15,0 C 10,6 C 83 % 1019,5 hPa 0,0 l/m 3,6 km/h (1 Bft) S-SW 209 0 min 0,000 mm 0,0 UV-I 0 W/m 10,9 C 13,7 C 4,8 km/h (1 Bft) 98,00 %
28.09.2018 21:46 13,8 C 15,0 C 11,1 C 82 % 1019,6 hPa 0,0 l/m 4,4 km/h (1 Bft) S-SW 209 0 min 0,000 mm 0,0 UV-I 0 W/m 10,8 C 13,8 C 4,8 km/h (1 Bft) 97,87 %
28.09.2018 21:48 13,8 C 15,0 C 11,1 C 82 % 1019,6 hPa 0,0 l/m 4,6 km/h (1 Bft) S-SW 209 0 min 0,000 mm 0,0 UV-I 0 W/m 10,8 C 13,8 C 6,4 km/h (2 Bft) 95,74 %
28.09.2018 21:50 13,8 C 15,0 C 11,1 C 82 % 1019,6 hPa 0,0 l/m 4,2 km/h (1 Bft) S-SW 209 0 min 0,000 mm 0,0 UV-I 0 W/m 10,8 C 13,8 C 6,4 km/h (2 Bft) 98,00 %
28.09.2018 21:52 14,0 C 15,0 C 11,7 C 82 % 1019,7 hPa 0,0 l/m 4,6 km/h (1 Bft) S-SW 209 0 min 0,000 mm 0,0 UV-I 0 W/m 11,0 C 14,0 C 6,4 km/h (2 Bft) 94,00 %
28.09.2018 21:54 14,1 C 15,0 C 11,7 C 81 % 1019,7 hPa 0,0 l/m 3,7 km/h (1 Bft) S-SW 209 0 min 0,000 mm 0,0 UV-I 0 W/m 10,9 C 14,1 C 4,8 km/h (1 Bft) 93,62 %
28.09.2018 21:56 14,1 C 15,0 C 12,2 C 81 % 1019,7 hPa 0,0 l/m 2,9 km/h (1 Bft) S-SW 209 0 min 0,000 mm 0,0 UV-I 0 W/m 10,9 C 14,1 C 4,8 km/h (1 Bft) 95,74 %
28.09.2018 21:58 14,1 C 15,0 C 12,2 C 81 % 1019,7 hPa 0,0 l/m 2,9 km/h (1 Bft) S-SW 209 0 min 0,000 mm 0,0 UV-I 0 W/m 10,9 C 14,1 C 4,8 km/h (1 Bft) 95,83 %
28.09.2018 22:00 14,1 C 15,0 C 12,2 C 81 % 1019,8 hPa 0,0 l/m 3,4 km/h (1 Bft) S-SW 209 0 min 0,000 mm 0,0 UV-I 0 W/m 10,9 C 14,1 C 4,8 km/h (1 Bft) 91,30 %
28.09.2018 22:02 14,1 C 15,0 C 12,2 C 81 % 1019,8 hPa 0,0 l/m 1,9 km/h (1 Bft) S-SW 209 0 min 0,025 mm 0,0 UV-I 0 W/m 10,9 C 14,1 C 3,2 km/h (1 Bft) 94,44 %
28.09.2018 22:04 14,2 C 15,0 C 12,2 C 81 % 1019,8 hPa 0,0 l/m 1,2 km/h (1 Bft) S-SW 209 0 min 0,000 mm 0,0 UV-I 0 W/m 11,0 C 14,2 C 1,6 km/h (1 Bft) 95,74 %
28.09.2018 22:06 14,2 C 15,0 C 12,2 C 81 % 1019,9 hPa 0,0 l/m 3,2 km/h (1 Bft) N-NO 14 0 min 0,000 mm 0,0 UV-I 0 W/m 11,0 C 14,2 C 4,8 km/h (1 Bft) 93,62 %
28.09.2018 22:08 13,8 C 15,0 C 12,2 C 82 % 1019,9 hPa 0,0 l/m 4,5 km/h (1 Bft) N-NO 13 0 min 0,000 mm 0,0 UV-I 0 W/m 10,8 C 13,8 C 6,4 km/h (2 Bft) 93,62 %
28.09.2018 22:10 13,4 C 15,0 C 12,2 C 83 % 1019,9 hPa 0,0 l/m 1,7 km/h (1 Bft) N-NO 13 0 min 0,000 mm 0,0 UV-I 0 W/m 10,6 C 13,4 C 3,2 km/h (1 Bft) 96,00 %
28.09.2018 22:12 13,2 C 15,0 C 12,2 C 85 % 1020,1 hPa 0,0 l/m 6,9 km/h (2 Bft) NO 39 0 min 0,000 mm 0,0 UV-I 0 W/m 10,7 C 12,9 C 11,3 km/h (2 Bft) 91,49 %
28.09.2018 22:14 13,4 C 15,0 C 12,2 C 84 % 1020,1 hPa 0,0 l/m 6,1 km/h (2 Bft) N-NO 16 0 min 0,000 mm 0,0 UV-I 0 W/m 10,8 C 13,4 C 12,9 km/h (3 Bft) 97,87 %
28.09.2018 22:16 13,7 C 15,0 C 12,8 C 83 % 1020,2 hPa 0,0 l/m 8,5 km/h (2 Bft) N-NO 23 0 min 0,000 mm 0,0 UV-I 0 W/m 10,9 C 12,5 C 11,3 km/h (2 Bft) 100,00 %
28.09.2018 22:18 13,9 C 15,0 C 12,8 C 81 % 1020,3 hPa 0,0 l/m 10,8 km/h (2 Bft) N-NO 22 0 min 0,000 mm 0,0 UV-I 0 W/m 10,7 C 11,5 C 16,1 km/h (3 Bft) 100,00 %
28.09.2018 22:20 14,3 C 15,0 C 13,3 C 79 % 1020,3 hPa 0,0 l/m 13,1 km/h (3 Bft) N 5 0 min 0,000 mm 0,0 UV-I 0 W/m 10,7 C 11,0 C 19,3 km/h (3 Bft) 95,74 %
28.09.2018 22:22 14,6 C 15,0 C 13,3 C 78 % 1020,4 hPa 0,0 l/m 10,6 km/h (2 Bft) N-NO 15 0 min 0,000 mm 0,0 UV-I 0 W/m 10,8 C 12,4 C 16,1 km/h (3 Bft) 97,87 %
28.09.2018 22:24 14,7 C 15,0 C 13,3 C 77 % 1020,4 hPa 0,0 l/m 8,1 km/h (2 Bft) N 10 0 min 0,000 mm 0,0 UV-I 0 W/m 10,7 C 13,7 C 12,9 km/h (3 Bft) 95,74 %
28.09.2018 22:26 14,7 C 15,0 C 13,3 C 77 % 1020,4 hPa 0,0 l/m 7,6 km/h (2 Bft) N 10 0 min 0,000 mm 0,0 UV-I 0 W/m 10,7 C 14,0 C 12,9 km/h (3 Bft) 100,00 %
28.09.2018 22:28 14,7 C 15,0 C 13,3 C 77 % 1020,4 hPa 0,0 l/m 8,7 km/h (2 Bft) N 9 0 min 0,000 mm 0,0 UV-I 0 W/m 10,7 C 13,4 C 12,9 km/h (3 Bft) 100,00 %
28.09.2018 22:30 14,7 C 15,0 C 13,3 C 77 % 1020,4 hPa 0,0 l/m 6,2 km/h (2 Bft) N-NO 27 0 min 0,000 mm 0,0 UV-I 0 W/m 10,7 C 14,7 C 11,3 km/h (2 Bft) 97,22 %
28.09.2018 22:32 14,6 C 15,0 C 13,3 C 77 % 1020,4 hPa 0,0 l/m 8,9 km/h (2 Bft) N 5 0 min 0,000 mm 0,0 UV-I 0 W/m 10,6 C 13,2 C 12,9 km/h (3 Bft) 100,00 %
28.09.2018 22:34 14,5 C 15,0 C 12,8 C 76 % 1020,4 hPa 0,0 l/m 8,4 km/h (2 Bft) N-NO 28 0 min 0,000 mm 0,0 UV-I 0 W/m 10,3 C 13,4 C 14,5 km/h (3 Bft) 100,00 %
28.09.2018 22:36 14,4 C 15,0 C 12,8 C 76 % 1020,4 hPa 0,0 l/m 6,2 km/h (2 Bft) NO 46 0 min 0,000 mm 0,0 UV-I 0 W/m 10,2 C 14,4 C 9,7 km/h (2 Bft) 100,00 %
28.09.2018 22:38 14,3 C 15,0 C 12,8 C 76 % 1020,5 hPa 0,0 l/m 6,7 km/h (2 Bft) NO 43 0 min 0,000 mm 0,0 UV-I 0 W/m 10,1 C 14,1 C 8,0 km/h (2 Bft) 100,00 %
28.09.2018 22:40 14,3 C 15,0 C 12,8 C 76 % 1020,5 hPa 0,0 l/m 7,8 km/h (2 Bft) NO 51 0 min 0,000 mm 0,0 UV-I 0 W/m 10,1 C 13,5 C 9,7 km/h (2 Bft) 100,00 %
28.09.2018 22:42 14,2 C 15,0 C 12,2 C 76 % 1020,6 hPa 0,0 l/m 6,5 km/h (2 Bft) NO 46 0 min 0,000 mm 0,0 UV-I 0 W/m 10,0 C 14,2 C 11,3 km/h (2 Bft) 100,00 %
28.09.2018 22:44 14,1 C 15,0 C 12,2 C 77 % 1020,6 hPa 0,0 l/m 9,3 km/h (2 Bft) NO 37 0 min 0,000 mm 0,0 UV-I 0 W/m 10,1 C 12,5 C 14,5 km/h (3 Bft) 100,00 %
28.09.2018 22:46 13,9 C 15,0 C 12,2 C 77 % 1020,7 hPa 0,0 l/m 7,3 km/h (2 Bft) NO 55 0 min 0,000 mm 0,0 UV-I 0 W/m 9,9 C 13,4 C 11,3 km/h (2 Bft) 100,00 %
28.09.2018 22:48 13,9 C 15,0 C 12,2 C 77 % 1020,8 hPa 0,0 l/m 6,6 km/h (2 Bft) NO 35 0 min 0,000 mm 0,0 UV-I 0 W/m 9,9 C 13,8 C 9,7 km/h (2 Bft) 100,00 %
28.09.2018 22:50 13,8 C 15,0 C 12,2 C 77 % 1020,8 hPa 0,0 l/m 7,1 km/h (2 Bft) NO 45 0 min 0,000 mm 0,0 UV-I 0 W/m 9,8 C 13,4 C 8,0 km/h (2 Bft) 100,00 %
28.09.2018 22:52 13,7 C 15,0 C 12,2 C 78 % 1020,8 hPa 0,0 l/m 7,5 km/h (2 Bft) NO 38 0 min 0,000 mm 0,0 UV-I 0 W/m 9,9 C 13,0 C 9,7 km/h (2 Bft) 97,87 %
28.09.2018 22:54 13,7 C 15,0 C 11,7 C 78 % 1020,8 hPa 0,0 l/m 7,2 km/h (2 Bft) O-NO 59 0 min 0,000 mm 0,0 UV-I 0 W/m 9,9 C 13,2 C 9,7 km/h (2 Bft) 97,87 %
28.09.2018 22:56 13,7 C 15,0 C 11,7 C 78 % 1020,8 hPa 0,0 l/m 6,1 km/h (2 Bft) NO 53 0 min 0,000 mm 0,0 UV-I 0 W/m 9,9 C 13,7 C 8,0 km/h (2 Bft) 100,00 %
28.09.2018 22:58 13,6 C 15,0 C 11,7 C 78 % 1020,8 hPa 0,0 l/m 6,3 km/h (2 Bft) N-NO 21 0 min 0,000 mm 0,0 UV-I 0 W/m 9,8 C 13,6 C 8,0 km/h (2 Bft) 100,00 %
28.09.2018 23:00 13,6 C 15,0 C 11,7 C 78 % 1020,8 hPa 0,0 l/m 5,6 km/h (1 Bft) O-NO 57 0 min 0,025 mm 0,0 UV-I 0 W/m 9,8 C 13,6 C 6,4 km/h (2 Bft) 95,74 %
28.09.2018 23:02 13,5 C 15,0 C 11,7 C 78 % 1021,0 hPa 0,0 l/m 5,6 km/h (1 Bft) NO 38 0 min 0,000 mm 0,0 UV-I 0 W/m 9,7 C 13,5 C 8,0 km/h (2 Bft) 100,00 %
28.09.2018 23:04 13,5 C 15,0 C 11,7 C 78 % 1021,0 hPa 0,0 l/m 8,7 km/h (2 Bft) NO 43 0 min 0,000 mm 0,0 UV-I 0 W/m 9,7 C 12,1 C 12,9 km/h (3 Bft) 100,00 %
28.09.2018 23:06 13,6 C 15,0 C 12,2 C 78 % 1021,0 hPa 0,0 l/m 6,6 km/h (2 Bft) N-NO 30 0 min 0,000 mm 0,0 UV-I 0 W/m 9,8 C 13,5 C 12,9 km/h (3 Bft) 97,87 %
28.09.2018 23:08 13,6 C 15,0 C 12,2 C 78 % 1021,0 hPa 0,0 l/m 7,6 km/h (2 Bft) N-NO 32 0 min 0,000 mm 0,0 UV-I 0 W/m 9,8 C 12,9 C 11,3 km/h (2 Bft) 97,92 %
28.09.2018 23:10 13,6 C 15,0 C 12,2 C 78 % 1021,0 hPa 0,0 l/m 6,2 km/h (2 Bft) NO 43 0 min 0,000 mm 0,0 UV-I 0 W/m 9,8 C 13,6 C 8,0 km/h (2 Bft) 97,87 %
28.09.2018 23:12 13,5 C 15,0 C 12,2 C 78 % 1021,0 hPa 0,0 l/m 7,4 km/h (2 Bft) NO 44 0 min 0,000 mm 0,0 UV-I 0 W/m 9,7 C 12,9 C 9,7 km/h (2 Bft) 100,00 %
28.09.2018 23:14 13,4 C 15,0 C 12,2 C 78 % 1021,1 hPa 0,0 l/m 5,5 km/h (1 Bft) NO 42 0 min 0,000 mm 0,0 UV-I 0 W/m 9,6 C 13,4 C 8,0 km/h (2 Bft) 95,74 %
28.09.2018 23:16 13,4 C 15,0 C 12,2 C 79 % 1021,1 hPa 0,0 l/m 5,2 km/h (1 Bft) N-NO 33 0 min 0,000 mm 0,0 UV-I 0 W/m 9,8 C 13,4 C 8,0 km/h (2 Bft) 97,87 %
28.09.2018 23:18 13,3 C 15,0 C 12,2 C 79 % 1021,1 hPa 0,0 l/m 6,4 km/h (2 Bft) O-NO 59 0 min 0,000 mm 0,0 UV-I 0 W/m 9,7 C 13,3 C 8,0 km/h (2 Bft) 97,87 %
28.09.2018 23:20 13,3 C 15,0 C 11,7 C 79 % 1021,1 hPa 0,0 l/m 6,2 km/h (2 Bft) NO 56 0 min 0,000 mm 0,0 UV-I 0 W/m 9,7 C 13,3 C 8,0 km/h (2 Bft) 97,87 %
28.09.2018 23:22 13,3 C 15,0 C 11,7 C 79 % 1021,1 hPa 0,0 l/m 5,8 km/h (2 Bft) O-NO 64 0 min 0,000 mm 0,0 UV-I 0 W/m 9,7 C 13,3 C 8,0 km/h (2 Bft) 98,00 %
28.09.2018 23:24 13,2 C 15,0 C 11,7 C 79 % 1021,1 hPa 0,0 l/m 5,4 km/h (1 Bft) NO 51 0 min 0,000 mm 0,0 UV-I 0 W/m 9,6 C 13,2 C 6,4 km/h (2 Bft) 95,74 %
28.09.2018 23:26 13,2 C 15,0 C 11,7 C 79 % 1021,2 hPa 0,0 l/m 5,4 km/h (1 Bft) O-NO 60 0 min 0,000 mm 0,0 UV-I 0 W/m 9,6 C 13,2 C 8,0 km/h (2 Bft) 97,87 %
28.09.2018 23:28 13,2 C 15,0 C 11,7 C 79 % 1021,3 hPa 0,0 l/m 5,1 km/h (1 Bft) NO 39 0 min 0,000 mm 0,0 UV-I 0 W/m 9,6 C 13,2 C 8,0 km/h (2 Bft) 97,87 %
28.09.2018 23:30 13,2 C 15,0 C 11,7 C 79 % 1021,2 hPa 0,0 l/m 3,9 km/h (1 Bft) NO 41 0 min 0,000 mm 0,0 UV-I 0 W/m 9,6 C 13,2 C 4,8 km/h (1 Bft) 95,74 %
28.09.2018 23:32 13,2 C 15,0 C 11,7 C 80 % 1021,3 hPa 0,0 l/m 3,0 km/h (1 Bft) NO 40 0 min 0,000 mm 0,0 UV-I 0 W/m 9,8 C 13,2 C 4,8 km/h (1 Bft) 97,87 %
28.09.2018 23:34 13,2 C 15,0 C 11,7 C 80 % 1021,3 hPa 0,0 l/m 5,0 km/h (1 Bft) NO 44 0 min 0,000 mm 0,0 UV-I 0 W/m 9,8 C 13,2 C 8,0 km/h (2 Bft) 97,87 %
28.09.2018 23:36 13,1 C 15,0 C 11,7 C 80 % 1021,3 hPa 0,0 l/m 5,6 km/h (1 Bft) NO 43 0 min 0,000 mm 0,0 UV-I 0 W/m 9,7 C 13,1 C 6,4 km/h (2 Bft) 93,62 %
28.09.2018 23:38 13,1 C 15,0 C 11,7 C 80 % 1021,4 hPa 0,0 l/m 4,8 km/h (1 Bft) NO 36 0 min 0,000 mm 0,0 UV-I 0 W/m 9,7 C 13,1 C 6,4 km/h (2 Bft) 93,62 %
28.09.2018 23:40 13,0 C 15,0 C 11,7 C 80 % 1021,4 hPa 0,0 l/m 5,5 km/h (1 Bft) N-NO 19 0 min 0,000 mm 0,0 UV-I 0 W/m 9,6 C 13,0 C 9,7 km/h (2 Bft) 95,74 %
28.09.2018 23:42 13,0 C 15,0 C 11,7 C 80 % 1021,4 hPa 0,0 l/m 6,1 km/h (2 Bft) N-NO 21 0 min 0,000 mm 0,0 UV-I 0 W/m 9,6 C 13,0 C 9,7 km/h (2 Bft) 95,74 %
28.09.2018 23:44 12,9 C 15,0 C 11,7 C 81 % 1021,4 hPa 0,0 l/m 5,5 km/h (1 Bft) N-NO 24 0 min 0,000 mm 0,0 UV-I 0 W/m 9,7 C 12,9 C 8,0 km/h (2 Bft) 96,00 %
28.09.2018 23:46 12,8 C 15,0 C 11,7 C 81 % 1021,4 hPa 0,0 l/m 6,4 km/h (2 Bft) N-NO 30 0 min 0,000 mm 0,0 UV-I 0 W/m 9,6 C 12,8 C 8,0 km/h (2 Bft) 91,67 %
28.09.2018 23:48 12,8 C 15,0 C 11,7 C 82 % 1021,4 hPa 0,0 l/m 6,9 km/h (2 Bft) N-NO 31 0 min 0,000 mm 0,0 UV-I 0 W/m 9,8 C 12,5 C 8,0 km/h (2 Bft) 96,23 %
28.09.2018 23:50 12,8 C 15,0 C 11,7 C 81 % 1021,5 hPa 0,0 l/m 6,0 km/h (2 Bft) N-NO 28 0 min 0,000 mm 0,0 UV-I 0 W/m 9,6 C 12,8 C 9,7 km/h (2 Bft) 97,87 %
28.09.2018 23:52 12,9 C 15,0 C 11,7 C 80 % 1021,6 hPa 0,0 l/m 7,5 km/h (2 Bft) NO 49 0 min 0,000 mm 0,0 UV-I 0 W/m 9,5 C 12,2 C 9,7 km/h (2 Bft) 97,92 %
28.09.2018 23:54 13,1 C 15,0 C 11,7 C 80 % 1021,6 hPa 0,0 l/m 6,5 km/h (2 Bft) NO 46 0 min 0,000 mm 0,0 UV-I 0 W/m 9,7 C 13,1 C 9,7 km/h (2 Bft) 97,87 %
28.09.2018 23:56 13,1 C 15,0 C 11,7 C 80 % 1021,6 hPa 0,0 l/m 6,3 km/h (2 Bft) NO 41 0 min 0,000 mm 0,0 UV-I 0 W/m 9,7 C 13,1 C 8,0 km/h (2 Bft) 95,74 %
28.09.2018 23:58 13,1 C 15,0 C 11,7 C 80 % 1021,6 hPa 0,0 l/m 5,6 km/h (1 Bft) NO 54 0 min 0,000 mm 0,0 UV-I 0 W/m 9,7 C 13,1 C 6,4 km/h (2 Bft) 98,00 %
_ Min-Zeit 07:04 06:26 05:56 13:52 16:32 - 19:02 - - - - - - 07:02 07:04 19:04 11:56
Minimum _ 6,7 C 14,4 C 3,3 C 49 % 1017,2 hPa - 0,0 km/h (0 Bft) - - - - - - 5,7 C 6,7 C 0,0 km/h (0 Bft) 87,50 %
_ Max-Zeit 13:58 00:00 13:46 07:10 00:00 00:00 22:20 - - 07:10 14:00 12:36 14:10 13:26 14:00 14:06 00:18
Maximum _ 22,1 C 15,0 C 33,9 C 95 % 1022,6 hPa 0,0 l/m 13,1 km/h
N (3 Bft)
- - 2 min 0,381 mm 3,2 UV-I 632 W/m 13,0 C 22,0 C 19,3 km/h
W-SW (3 Bft)
100,00 %
Durchschnitt _ 13,9 C 14,9 C 14,1 C 76 % 1019,9 hPa #0,0 l/m 4,2 km/h (1 Bft) S-SW - #11:22 h #2,692 mm 2,0 UV-I 344 W/m 9,3 C 13,8 C 6,9 km/h (2 Bft) 96,98 %